<?xml version="1.0" encoding="UTF-8" standalone="no" ?>
<gpx xmlns="http://www.topografix.com/GPX/1/1" xmlns:xsi="http://www.w3.org/2001/XMLSchema-instance" xsi:schemaLocation="http://www.topografix.com/GPX/1/1 http://www.topografix.com/GPX/1/1/gpx.xsd" version="1.1" creator="VisuGPX - https://www.visugpx.com">
  <metadata>
    <name>P'tit tour CAP</name>
    <desc><![CDATA[P'tit tour CAP
P'tit tour CAPP'tit tour CAP]]></desc>
  </metadata>
  <trk>
    <name><![CDATA[P'tit tour du soir]]></name>
    <trkseg>
      <trkpt lat="47.51797" lon="6.77492">
        <ele>383.6</ele>
        <time>2017-09-28T16:19:45Z</time>
      </trkpt>
      <trkpt lat="47.51797" lon="6.77482">
        <ele>383.3</ele>
        <time>2017-09-28T16:19:52Z</time>
      </trkpt>
      <trkpt lat="47.51796" lon="6.77475">
        <ele>383.1</ele>
        <time>2017-09-28T16:19:53Z</time>
      </trkpt>
      <trkpt lat="47.518" lon="6.77471">
        <ele>383.1</ele>
        <time>2017-09-28T16:20:24Z</time>
      </trkpt>
      <trkpt lat="47.51803" lon="6.77467">
        <ele>383</ele>
        <time>2017-09-28T16:20:25Z</time>
      </trkpt>
      <trkpt lat="47.51803" lon="6.77474">
        <ele>382.9</ele>
        <time>2017-09-28T16:23:51Z</time>
      </trkpt>
      <trkpt lat="47.51802" lon="6.77481">
        <ele>382.8</ele>
        <time>2017-09-28T16:23:52Z</time>
      </trkpt>
      <trkpt lat="47.51805" lon="6.77483">
        <ele>382.7</ele>
        <time>2017-09-28T16:24:02Z</time>
      </trkpt>
      <trkpt lat="47.51808" lon="6.77485">
        <ele>382.6</ele>
        <time>2017-09-28T16:24:03Z</time>
      </trkpt>
      <trkpt lat="47.51814" lon="6.77489">
        <ele>382.5</ele>
        <time>2017-09-28T16:24:04Z</time>
      </trkpt>
      <trkpt lat="47.51817" lon="6.77491">
        <ele>382.4</ele>
        <time>2017-09-28T16:24:05Z</time>
      </trkpt>
      <trkpt lat="47.51819" lon="6.77493">
        <ele>382.4</ele>
        <time>2017-09-28T16:24:06Z</time>
      </trkpt>
      <trkpt lat="47.51822" lon="6.77495">
        <ele>382.4</ele>
        <time>2017-09-28T16:24:07Z</time>
      </trkpt>
      <trkpt lat="47.51825" lon="6.77496">
        <ele>382.5</ele>
        <time>2017-09-28T16:24:08Z</time>
      </trkpt>
      <trkpt lat="47.51828" lon="6.77498">
        <ele>382.6</ele>
        <time>2017-09-28T16:24:09Z</time>
      </trkpt>
      <trkpt lat="47.51834" lon="6.77498">
        <ele>382.9</ele>
        <time>2017-09-28T16:24:11Z</time>
      </trkpt>
      <trkpt lat="47.51837" lon="6.77498">
        <ele>383</ele>
        <time>2017-09-28T16:24:12Z</time>
      </trkpt>
      <trkpt lat="47.5184" lon="6.77498">
        <ele>383.1</ele>
        <time>2017-09-28T16:24:13Z</time>
      </trkpt>
      <trkpt lat="47.51843" lon="6.77499">
        <ele>383.2</ele>
        <time>2017-09-28T16:24:14Z</time>
      </trkpt>
      <trkpt lat="47.51845" lon="6.775">
        <ele>383.3</ele>
        <time>2017-09-28T16:24:15Z</time>
      </trkpt>
      <trkpt lat="47.51848" lon="6.77501">
        <ele>383.4</ele>
        <time>2017-09-28T16:24:16Z</time>
      </trkpt>
      <trkpt lat="47.51852" lon="6.77502">
        <ele>383.5</ele>
        <time>2017-09-28T16:24:17Z</time>
      </trkpt>
      <trkpt lat="47.51855" lon="6.77502">
        <ele>383.7</ele>
        <time>2017-09-28T16:24:18Z</time>
      </trkpt>
      <trkpt lat="47.51858" lon="6.77502">
        <ele>383.9</ele>
        <time>2017-09-28T16:24:19Z</time>
      </trkpt>
      <trkpt lat="47.5186" lon="6.77502">
        <ele>384</ele>
        <time>2017-09-28T16:24:20Z</time>
      </trkpt>
      <trkpt lat="47.51862" lon="6.77502">
        <ele>384.2</ele>
        <time>2017-09-28T16:24:21Z</time>
      </trkpt>
      <trkpt lat="47.51865" lon="6.77503">
        <ele>384.3</ele>
        <time>2017-09-28T16:24:22Z</time>
      </trkpt>
      <trkpt lat="47.51867" lon="6.77503">
        <ele>384.4</ele>
        <time>2017-09-28T16:24:23Z</time>
      </trkpt>
      <trkpt lat="47.5187" lon="6.77503">
        <ele>384.5</ele>
        <time>2017-09-28T16:24:24Z</time>
      </trkpt>
      <trkpt lat="47.51872" lon="6.77503">
        <ele>384.6</ele>
        <time>2017-09-28T16:24:25Z</time>
      </trkpt>
      <trkpt lat="47.51875" lon="6.77504">
        <ele>384.8</ele>
        <time>2017-09-28T16:24:26Z</time>
      </trkpt>
      <trkpt lat="47.51877" lon="6.77505">
        <ele>384.9</ele>
        <time>2017-09-28T16:24:27Z</time>
      </trkpt>
      <trkpt lat="47.5188" lon="6.77506">
        <ele>385.1</ele>
        <time>2017-09-28T16:24:28Z</time>
      </trkpt>
      <trkpt lat="47.51883" lon="6.77507">
        <ele>385.2</ele>
        <time>2017-09-28T16:24:29Z</time>
      </trkpt>
      <trkpt lat="47.51886" lon="6.77508">
        <ele>385.4</ele>
        <time>2017-09-28T16:24:30Z</time>
      </trkpt>
      <trkpt lat="47.51889" lon="6.77509">
        <ele>385.5</ele>
        <time>2017-09-28T16:24:31Z</time>
      </trkpt>
      <trkpt lat="47.51892" lon="6.7751">
        <ele>385.7</ele>
        <time>2017-09-28T16:24:32Z</time>
      </trkpt>
      <trkpt lat="47.51895" lon="6.77511">
        <ele>385.9</ele>
        <time>2017-09-28T16:24:33Z</time>
      </trkpt>
      <trkpt lat="47.51899" lon="6.77513">
        <ele>386.1</ele>
        <time>2017-09-28T16:24:35Z</time>
      </trkpt>
      <trkpt lat="47.519" lon="6.77514">
        <ele>386.2</ele>
        <time>2017-09-28T16:24:36Z</time>
      </trkpt>
      <trkpt lat="47.51903" lon="6.77515">
        <ele>386.3</ele>
        <time>2017-09-28T16:24:37Z</time>
      </trkpt>
      <trkpt lat="47.51905" lon="6.77515">
        <ele>386.4</ele>
        <time>2017-09-28T16:24:38Z</time>
      </trkpt>
      <trkpt lat="47.51908" lon="6.77516">
        <ele>386.6</ele>
        <time>2017-09-28T16:24:39Z</time>
      </trkpt>
      <trkpt lat="47.51911" lon="6.77517">
        <ele>386.8</ele>
        <time>2017-09-28T16:24:40Z</time>
      </trkpt>
      <trkpt lat="47.51914" lon="6.77517">
        <ele>387</ele>
        <time>2017-09-28T16:24:41Z</time>
      </trkpt>
      <trkpt lat="47.51917" lon="6.77518">
        <ele>387.2</ele>
        <time>2017-09-28T16:24:42Z</time>
      </trkpt>
      <trkpt lat="47.51919" lon="6.77519">
        <ele>387.3</ele>
        <time>2017-09-28T16:24:43Z</time>
      </trkpt>
      <trkpt lat="47.51921" lon="6.77521">
        <ele>387.5</ele>
        <time>2017-09-28T16:24:44Z</time>
      </trkpt>
      <trkpt lat="47.51962" lon="6.7753">
        <ele>388.2</ele>
        <time>2017-09-28T16:25:00Z</time>
      </trkpt>
      <trkpt lat="47.51979" lon="6.77533">
        <ele>388</ele>
        <time>2017-09-28T16:25:07Z</time>
      </trkpt>
      <trkpt lat="47.51992" lon="6.77535">
        <ele>388.3</ele>
        <time>2017-09-28T16:25:12Z</time>
      </trkpt>
      <trkpt lat="47.5201" lon="6.77538">
        <ele>389.1</ele>
        <time>2017-09-28T16:25:19Z</time>
      </trkpt>
      <trkpt lat="47.52014" lon="6.77539">
        <ele>389.1</ele>
        <time>2017-09-28T16:25:21Z</time>
      </trkpt>
      <trkpt lat="47.52023" lon="6.77541">
        <ele>389.2</ele>
        <time>2017-09-28T16:25:26Z</time>
      </trkpt>
      <trkpt lat="47.52027" lon="6.7754">
        <ele>389.3</ele>
        <time>2017-09-28T16:25:28Z</time>
      </trkpt>
      <trkpt lat="47.52045" lon="6.77542">
        <ele>389.3</ele>
        <time>2017-09-28T16:25:35Z</time>
      </trkpt>
      <trkpt lat="47.52052" lon="6.77544">
        <ele>389.2</ele>
        <time>2017-09-28T16:25:38Z</time>
      </trkpt>
      <trkpt lat="47.52056" lon="6.77546">
        <ele>389.2</ele>
        <time>2017-09-28T16:25:40Z</time>
      </trkpt>
      <trkpt lat="47.52059" lon="6.77547">
        <ele>389.2</ele>
        <time>2017-09-28T16:25:41Z</time>
      </trkpt>
      <trkpt lat="47.52062" lon="6.77547">
        <ele>389.2</ele>
        <time>2017-09-28T16:25:42Z</time>
      </trkpt>
      <trkpt lat="47.52065" lon="6.77548">
        <ele>389.2</ele>
        <time>2017-09-28T16:25:43Z</time>
      </trkpt>
      <trkpt lat="47.52068" lon="6.77549">
        <ele>389.2</ele>
        <time>2017-09-28T16:25:44Z</time>
      </trkpt>
      <trkpt lat="47.5207" lon="6.77551">
        <ele>389.3</ele>
        <time>2017-09-28T16:25:45Z</time>
      </trkpt>
      <trkpt lat="47.52073" lon="6.77552">
        <ele>389.3</ele>
        <time>2017-09-28T16:25:46Z</time>
      </trkpt>
      <trkpt lat="47.5208" lon="6.77555">
        <ele>389.5</ele>
        <time>2017-09-28T16:25:49Z</time>
      </trkpt>
      <trkpt lat="47.52088" lon="6.77558">
        <ele>390</ele>
        <time>2017-09-28T16:25:52Z</time>
      </trkpt>
      <trkpt lat="47.52091" lon="6.77565">
        <ele>390.3</ele>
        <time>2017-09-28T16:25:54Z</time>
      </trkpt>
      <trkpt lat="47.52094" lon="6.77572">
        <ele>390.8</ele>
        <time>2017-09-28T16:25:56Z</time>
      </trkpt>
      <trkpt lat="47.52094" lon="6.77577">
        <ele>391</ele>
        <time>2017-09-28T16:25:57Z</time>
      </trkpt>
      <trkpt lat="47.52095" lon="6.77587">
        <ele>391.3</ele>
        <time>2017-09-28T16:25:59Z</time>
      </trkpt>
      <trkpt lat="47.52095" lon="6.77589">
        <ele>391.4</ele>
        <time>2017-09-28T16:26:00Z</time>
      </trkpt>
      <trkpt lat="47.52096" lon="6.77594">
        <ele>391.4</ele>
        <time>2017-09-28T16:26:01Z</time>
      </trkpt>
      <trkpt lat="47.52096" lon="6.77598">
        <ele>391.5</ele>
        <time>2017-09-28T16:26:02Z</time>
      </trkpt>
      <trkpt lat="47.52095" lon="6.77602">
        <ele>391.5</ele>
        <time>2017-09-28T16:26:03Z</time>
      </trkpt>
      <trkpt lat="47.52095" lon="6.77609">
        <ele>391.6</ele>
        <time>2017-09-28T16:26:05Z</time>
      </trkpt>
      <trkpt lat="47.52095" lon="6.77613">
        <ele>391.7</ele>
        <time>2017-09-28T16:26:06Z</time>
      </trkpt>
      <trkpt lat="47.52095" lon="6.77617">
        <ele>391.8</ele>
        <time>2017-09-28T16:26:07Z</time>
      </trkpt>
      <trkpt lat="47.52095" lon="6.77621">
        <ele>391.9</ele>
        <time>2017-09-28T16:26:08Z</time>
      </trkpt>
      <trkpt lat="47.52095" lon="6.77625">
        <ele>392</ele>
        <time>2017-09-28T16:26:09Z</time>
      </trkpt>
      <trkpt lat="47.52096" lon="6.77632">
        <ele>392.2</ele>
        <time>2017-09-28T16:26:11Z</time>
      </trkpt>
      <trkpt lat="47.52096" lon="6.77636">
        <ele>392.3</ele>
        <time>2017-09-28T16:26:12Z</time>
      </trkpt>
      <trkpt lat="47.52096" lon="6.77657">
        <ele>392.7</ele>
        <time>2017-09-28T16:26:17Z</time>
      </trkpt>
      <trkpt lat="47.52096" lon="6.7766">
        <ele>392.8</ele>
        <time>2017-09-28T16:26:18Z</time>
      </trkpt>
      <trkpt lat="47.52099" lon="6.77672">
        <ele>392.8</ele>
        <time>2017-09-28T16:26:21Z</time>
      </trkpt>
      <trkpt lat="47.52101" lon="6.77672">
        <ele>392.7</ele>
        <time>2017-09-28T16:26:22Z</time>
      </trkpt>
      <trkpt lat="47.52103" lon="6.77671">
        <ele>392.7</ele>
        <time>2017-09-28T16:26:23Z</time>
      </trkpt>
      <trkpt lat="47.52106" lon="6.77668">
        <ele>392.5</ele>
        <time>2017-09-28T16:26:24Z</time>
      </trkpt>
      <trkpt lat="47.52109" lon="6.77666">
        <ele>392.4</ele>
        <time>2017-09-28T16:26:25Z</time>
      </trkpt>
      <trkpt lat="47.52116" lon="6.77662">
        <ele>392</ele>
        <time>2017-09-28T16:26:27Z</time>
      </trkpt>
      <trkpt lat="47.52119" lon="6.77659">
        <ele>391.8</ele>
        <time>2017-09-28T16:26:28Z</time>
      </trkpt>
      <trkpt lat="47.52122" lon="6.77657">
        <ele>391.7</ele>
        <time>2017-09-28T16:26:29Z</time>
      </trkpt>
      <trkpt lat="47.52125" lon="6.77656">
        <ele>391.5</ele>
        <time>2017-09-28T16:26:30Z</time>
      </trkpt>
      <trkpt lat="47.52127" lon="6.77654">
        <ele>391.4</ele>
        <time>2017-09-28T16:26:31Z</time>
      </trkpt>
      <trkpt lat="47.5213" lon="6.77652">
        <ele>391.2</ele>
        <time>2017-09-28T16:26:32Z</time>
      </trkpt>
      <trkpt lat="47.52134" lon="6.7765">
        <ele>391.1</ele>
        <time>2017-09-28T16:26:33Z</time>
      </trkpt>
      <trkpt lat="47.52136" lon="6.77649">
        <ele>391</ele>
        <time>2017-09-28T16:26:34Z</time>
      </trkpt>
      <trkpt lat="47.52138" lon="6.77648">
        <ele>390.9</ele>
        <time>2017-09-28T16:26:35Z</time>
      </trkpt>
      <trkpt lat="47.52141" lon="6.77646">
        <ele>390.8</ele>
        <time>2017-09-28T16:26:36Z</time>
      </trkpt>
      <trkpt lat="47.52146" lon="6.77643">
        <ele>390.7</ele>
        <time>2017-09-28T16:26:38Z</time>
      </trkpt>
      <trkpt lat="47.52148" lon="6.77642">
        <ele>390.6</ele>
        <time>2017-09-28T16:26:39Z</time>
      </trkpt>
      <trkpt lat="47.52151" lon="6.77642">
        <ele>390.6</ele>
        <time>2017-09-28T16:26:40Z</time>
      </trkpt>
      <trkpt lat="47.52153" lon="6.77641">
        <ele>390.5</ele>
        <time>2017-09-28T16:26:41Z</time>
      </trkpt>
      <trkpt lat="47.52159" lon="6.77638">
        <ele>390.2</ele>
        <time>2017-09-28T16:26:43Z</time>
      </trkpt>
      <trkpt lat="47.52162" lon="6.77636">
        <ele>390</ele>
        <time>2017-09-28T16:26:44Z</time>
      </trkpt>
      <trkpt lat="47.52166" lon="6.77635">
        <ele>389.8</ele>
        <time>2017-09-28T16:26:45Z</time>
      </trkpt>
      <trkpt lat="47.52169" lon="6.77633">
        <ele>389.7</ele>
        <time>2017-09-28T16:26:46Z</time>
      </trkpt>
      <trkpt lat="47.52171" lon="6.77631">
        <ele>389.6</ele>
        <time>2017-09-28T16:26:47Z</time>
      </trkpt>
      <trkpt lat="47.52175" lon="6.77629">
        <ele>389.4</ele>
        <time>2017-09-28T16:26:48Z</time>
      </trkpt>
      <trkpt lat="47.52178" lon="6.77627">
        <ele>389.2</ele>
        <time>2017-09-28T16:26:49Z</time>
      </trkpt>
      <trkpt lat="47.52181" lon="6.77624">
        <ele>389.1</ele>
        <time>2017-09-28T16:26:50Z</time>
      </trkpt>
      <trkpt lat="47.52183" lon="6.77621">
        <ele>389</ele>
        <time>2017-09-28T16:26:51Z</time>
      </trkpt>
      <trkpt lat="47.52186" lon="6.77619">
        <ele>388.9</ele>
        <time>2017-09-28T16:26:52Z</time>
      </trkpt>
      <trkpt lat="47.52188" lon="6.77617">
        <ele>388.9</ele>
        <time>2017-09-28T16:26:53Z</time>
      </trkpt>
      <trkpt lat="47.5219" lon="6.77615">
        <ele>388.8</ele>
        <time>2017-09-28T16:26:54Z</time>
      </trkpt>
      <trkpt lat="47.52193" lon="6.77612">
        <ele>388.7</ele>
        <time>2017-09-28T16:26:55Z</time>
      </trkpt>
      <trkpt lat="47.52195" lon="6.7761">
        <ele>388.7</ele>
        <time>2017-09-28T16:26:56Z</time>
      </trkpt>
      <trkpt lat="47.52198" lon="6.77608">
        <ele>388.6</ele>
        <time>2017-09-28T16:26:57Z</time>
      </trkpt>
      <trkpt lat="47.522" lon="6.77606">
        <ele>388.5</ele>
        <time>2017-09-28T16:26:58Z</time>
      </trkpt>
      <trkpt lat="47.52203" lon="6.77604">
        <ele>388.4</ele>
        <time>2017-09-28T16:26:59Z</time>
      </trkpt>
      <trkpt lat="47.52205" lon="6.77602">
        <ele>388.3</ele>
        <time>2017-09-28T16:27:00Z</time>
      </trkpt>
      <trkpt lat="47.52207" lon="6.77601">
        <ele>388.2</ele>
        <time>2017-09-28T16:27:01Z</time>
      </trkpt>
      <trkpt lat="47.5221" lon="6.77599">
        <ele>388.1</ele>
        <time>2017-09-28T16:27:02Z</time>
      </trkpt>
      <trkpt lat="47.52212" lon="6.77598">
        <ele>387.9</ele>
        <time>2017-09-28T16:27:03Z</time>
      </trkpt>
      <trkpt lat="47.52215" lon="6.77595">
        <ele>387.8</ele>
        <time>2017-09-28T16:27:04Z</time>
      </trkpt>
      <trkpt lat="47.52219" lon="6.77593">
        <ele>387.7</ele>
        <time>2017-09-28T16:27:05Z</time>
      </trkpt>
      <trkpt lat="47.52222" lon="6.77591">
        <ele>387.6</ele>
        <time>2017-09-28T16:27:06Z</time>
      </trkpt>
      <trkpt lat="47.52224" lon="6.7759">
        <ele>387.6</ele>
        <time>2017-09-28T16:27:07Z</time>
      </trkpt>
      <trkpt lat="47.52227" lon="6.77588">
        <ele>387.5</ele>
        <time>2017-09-28T16:27:08Z</time>
      </trkpt>
      <trkpt lat="47.52229" lon="6.77586">
        <ele>387.5</ele>
        <time>2017-09-28T16:27:09Z</time>
      </trkpt>
      <trkpt lat="47.52232" lon="6.77584">
        <ele>387.5</ele>
        <time>2017-09-28T16:27:10Z</time>
      </trkpt>
      <trkpt lat="47.52235" lon="6.77582">
        <ele>387.5</ele>
        <time>2017-09-28T16:27:11Z</time>
      </trkpt>
      <trkpt lat="47.52237" lon="6.77581">
        <ele>387.5</ele>
        <time>2017-09-28T16:27:12Z</time>
      </trkpt>
      <trkpt lat="47.5224" lon="6.77579">
        <ele>387.5</ele>
        <time>2017-09-28T16:27:13Z</time>
      </trkpt>
      <trkpt lat="47.52242" lon="6.77577">
        <ele>387.5</ele>
        <time>2017-09-28T16:27:14Z</time>
      </trkpt>
      <trkpt lat="47.52246" lon="6.77575">
        <ele>387.5</ele>
        <time>2017-09-28T16:27:16Z</time>
      </trkpt>
      <trkpt lat="47.5225" lon="6.77573">
        <ele>387.6</ele>
        <time>2017-09-28T16:27:17Z</time>
      </trkpt>
      <trkpt lat="47.52266" lon="6.77563">
        <ele>387.7</ele>
        <time>2017-09-28T16:27:23Z</time>
      </trkpt>
      <trkpt lat="47.52269" lon="6.77561">
        <ele>387.7</ele>
        <time>2017-09-28T16:27:24Z</time>
      </trkpt>
      <trkpt lat="47.52271" lon="6.7756">
        <ele>387.7</ele>
        <time>2017-09-28T16:27:25Z</time>
      </trkpt>
      <trkpt lat="47.52273" lon="6.77558">
        <ele>387.8</ele>
        <time>2017-09-28T16:27:26Z</time>
      </trkpt>
      <trkpt lat="47.52275" lon="6.77556">
        <ele>387.8</ele>
        <time>2017-09-28T16:27:27Z</time>
      </trkpt>
      <trkpt lat="47.52278" lon="6.77555">
        <ele>387.8</ele>
        <time>2017-09-28T16:27:28Z</time>
      </trkpt>
      <trkpt lat="47.5228" lon="6.77553">
        <ele>387.9</ele>
        <time>2017-09-28T16:27:29Z</time>
      </trkpt>
      <trkpt lat="47.52282" lon="6.77552">
        <ele>387.9</ele>
        <time>2017-09-28T16:27:30Z</time>
      </trkpt>
      <trkpt lat="47.52285" lon="6.7755">
        <ele>387.9</ele>
        <time>2017-09-28T16:27:31Z</time>
      </trkpt>
      <trkpt lat="47.52288" lon="6.77548">
        <ele>388</ele>
        <time>2017-09-28T16:27:32Z</time>
      </trkpt>
      <trkpt lat="47.5229" lon="6.77546">
        <ele>388</ele>
        <time>2017-09-28T16:27:33Z</time>
      </trkpt>
      <trkpt lat="47.52293" lon="6.77545">
        <ele>388</ele>
        <time>2017-09-28T16:27:34Z</time>
      </trkpt>
      <trkpt lat="47.52295" lon="6.77544">
        <ele>388.1</ele>
        <time>2017-09-28T16:27:35Z</time>
      </trkpt>
      <trkpt lat="47.52298" lon="6.77541">
        <ele>388.1</ele>
        <time>2017-09-28T16:27:36Z</time>
      </trkpt>
      <trkpt lat="47.52301" lon="6.7754">
        <ele>388.1</ele>
        <time>2017-09-28T16:27:37Z</time>
      </trkpt>
      <trkpt lat="47.52304" lon="6.77537">
        <ele>388.2</ele>
        <time>2017-09-28T16:27:39Z</time>
      </trkpt>
      <trkpt lat="47.52306" lon="6.77535">
        <ele>388.2</ele>
        <time>2017-09-28T16:27:40Z</time>
      </trkpt>
      <trkpt lat="47.52308" lon="6.77532">
        <ele>388.2</ele>
        <time>2017-09-28T16:27:41Z</time>
      </trkpt>
      <trkpt lat="47.5231" lon="6.77529">
        <ele>388.3</ele>
        <time>2017-09-28T16:27:42Z</time>
      </trkpt>
      <trkpt lat="47.52313" lon="6.77527">
        <ele>388.3</ele>
        <time>2017-09-28T16:27:43Z</time>
      </trkpt>
      <trkpt lat="47.52315" lon="6.77526">
        <ele>388.3</ele>
        <time>2017-09-28T16:27:44Z</time>
      </trkpt>
      <trkpt lat="47.52319" lon="6.77524">
        <ele>388.4</ele>
        <time>2017-09-28T16:27:46Z</time>
      </trkpt>
      <trkpt lat="47.52321" lon="6.77522">
        <ele>388.4</ele>
        <time>2017-09-28T16:27:47Z</time>
      </trkpt>
      <trkpt lat="47.52323" lon="6.77521">
        <ele>388.4</ele>
        <time>2017-09-28T16:27:48Z</time>
      </trkpt>
      <trkpt lat="47.52326" lon="6.77519">
        <ele>388.5</ele>
        <time>2017-09-28T16:27:49Z</time>
      </trkpt>
      <trkpt lat="47.52329" lon="6.77517">
        <ele>388.5</ele>
        <time>2017-09-28T16:27:50Z</time>
      </trkpt>
      <trkpt lat="47.52331" lon="6.77516">
        <ele>388.5</ele>
        <time>2017-09-28T16:27:51Z</time>
      </trkpt>
      <trkpt lat="47.52333" lon="6.77514">
        <ele>388.6</ele>
        <time>2017-09-28T16:27:52Z</time>
      </trkpt>
      <trkpt lat="47.52336" lon="6.77513">
        <ele>388.6</ele>
        <time>2017-09-28T16:27:53Z</time>
      </trkpt>
      <trkpt lat="47.52339" lon="6.77511">
        <ele>388.6</ele>
        <time>2017-09-28T16:27:54Z</time>
      </trkpt>
      <trkpt lat="47.52341" lon="6.77509">
        <ele>388.7</ele>
        <time>2017-09-28T16:27:55Z</time>
      </trkpt>
      <trkpt lat="47.52344" lon="6.77508">
        <ele>388.8</ele>
        <time>2017-09-28T16:27:56Z</time>
      </trkpt>
      <trkpt lat="47.52346" lon="6.77507">
        <ele>388.8</ele>
        <time>2017-09-28T16:27:57Z</time>
      </trkpt>
      <trkpt lat="47.52349" lon="6.77506">
        <ele>388.9</ele>
        <time>2017-09-28T16:27:58Z</time>
      </trkpt>
      <trkpt lat="47.52352" lon="6.77505">
        <ele>388.9</ele>
        <time>2017-09-28T16:27:59Z</time>
      </trkpt>
      <trkpt lat="47.52355" lon="6.77503">
        <ele>389</ele>
        <time>2017-09-28T16:28:00Z</time>
      </trkpt>
      <trkpt lat="47.52356" lon="6.77502">
        <ele>389</ele>
        <time>2017-09-28T16:28:01Z</time>
      </trkpt>
      <trkpt lat="47.52359" lon="6.77501">
        <ele>389.1</ele>
        <time>2017-09-28T16:28:02Z</time>
      </trkpt>
      <trkpt lat="47.52361" lon="6.775">
        <ele>389.1</ele>
        <time>2017-09-28T16:28:03Z</time>
      </trkpt>
      <trkpt lat="47.52363" lon="6.77498">
        <ele>389.2</ele>
        <time>2017-09-28T16:28:04Z</time>
      </trkpt>
      <trkpt lat="47.52365" lon="6.77496">
        <ele>389.2</ele>
        <time>2017-09-28T16:28:05Z</time>
      </trkpt>
      <trkpt lat="47.5237" lon="6.77493">
        <ele>389.5</ele>
        <time>2017-09-28T16:28:07Z</time>
      </trkpt>
      <trkpt lat="47.52374" lon="6.77491">
        <ele>389.8</ele>
        <time>2017-09-28T16:28:08Z</time>
      </trkpt>
      <trkpt lat="47.52377" lon="6.77489">
        <ele>390.1</ele>
        <time>2017-09-28T16:28:09Z</time>
      </trkpt>
      <trkpt lat="47.52379" lon="6.77488">
        <ele>390.4</ele>
        <time>2017-09-28T16:28:10Z</time>
      </trkpt>
      <trkpt lat="47.52382" lon="6.77485">
        <ele>390.7</ele>
        <time>2017-09-28T16:28:11Z</time>
      </trkpt>
      <trkpt lat="47.52385" lon="6.77482">
        <ele>391</ele>
        <time>2017-09-28T16:28:13Z</time>
      </trkpt>
      <trkpt lat="47.52389" lon="6.7748">
        <ele>391.3</ele>
        <time>2017-09-28T16:28:15Z</time>
      </trkpt>
      <trkpt lat="47.52391" lon="6.77478">
        <ele>391.4</ele>
        <time>2017-09-28T16:28:16Z</time>
      </trkpt>
      <trkpt lat="47.52394" lon="6.77477">
        <ele>391.5</ele>
        <time>2017-09-28T16:28:17Z</time>
      </trkpt>
      <trkpt lat="47.52396" lon="6.77475">
        <ele>391.6</ele>
        <time>2017-09-28T16:28:18Z</time>
      </trkpt>
      <trkpt lat="47.52399" lon="6.77474">
        <ele>391.6</ele>
        <time>2017-09-28T16:28:19Z</time>
      </trkpt>
      <trkpt lat="47.52401" lon="6.77473">
        <ele>391.7</ele>
        <time>2017-09-28T16:28:20Z</time>
      </trkpt>
      <trkpt lat="47.52404" lon="6.77472">
        <ele>391.7</ele>
        <time>2017-09-28T16:28:21Z</time>
      </trkpt>
      <trkpt lat="47.52407" lon="6.77471">
        <ele>391.8</ele>
        <time>2017-09-28T16:28:22Z</time>
      </trkpt>
      <trkpt lat="47.5241" lon="6.77468">
        <ele>391.9</ele>
        <time>2017-09-28T16:28:23Z</time>
      </trkpt>
      <trkpt lat="47.52414" lon="6.77465">
        <ele>391.9</ele>
        <time>2017-09-28T16:28:24Z</time>
      </trkpt>
      <trkpt lat="47.52417" lon="6.77463">
        <ele>392</ele>
        <time>2017-09-28T16:28:25Z</time>
      </trkpt>
      <trkpt lat="47.5242" lon="6.77461">
        <ele>392</ele>
        <time>2017-09-28T16:28:26Z</time>
      </trkpt>
      <trkpt lat="47.52423" lon="6.7746">
        <ele>392.1</ele>
        <time>2017-09-28T16:28:27Z</time>
      </trkpt>
      <trkpt lat="47.5243" lon="6.77461">
        <ele>392.2</ele>
        <time>2017-09-28T16:28:29Z</time>
      </trkpt>
      <trkpt lat="47.52432" lon="6.7746">
        <ele>392.2</ele>
        <time>2017-09-28T16:28:30Z</time>
      </trkpt>
      <trkpt lat="47.52435" lon="6.77461">
        <ele>392.3</ele>
        <time>2017-09-28T16:28:31Z</time>
      </trkpt>
      <trkpt lat="47.52437" lon="6.77461">
        <ele>392.3</ele>
        <time>2017-09-28T16:28:32Z</time>
      </trkpt>
      <trkpt lat="47.5244" lon="6.77462">
        <ele>392.4</ele>
        <time>2017-09-28T16:28:33Z</time>
      </trkpt>
      <trkpt lat="47.52442" lon="6.77463">
        <ele>392.5</ele>
        <time>2017-09-28T16:28:34Z</time>
      </trkpt>
      <trkpt lat="47.52446" lon="6.77465">
        <ele>392.6</ele>
        <time>2017-09-28T16:28:35Z</time>
      </trkpt>
      <trkpt lat="47.52449" lon="6.77467">
        <ele>392.6</ele>
        <time>2017-09-28T16:28:36Z</time>
      </trkpt>
      <trkpt lat="47.52452" lon="6.77468">
        <ele>392.7</ele>
        <time>2017-09-28T16:28:37Z</time>
      </trkpt>
      <trkpt lat="47.52454" lon="6.7747">
        <ele>392.7</ele>
        <time>2017-09-28T16:28:38Z</time>
      </trkpt>
      <trkpt lat="47.52457" lon="6.77471">
        <ele>392.8</ele>
        <time>2017-09-28T16:28:39Z</time>
      </trkpt>
      <trkpt lat="47.52459" lon="6.77472">
        <ele>392.8</ele>
        <time>2017-09-28T16:28:40Z</time>
      </trkpt>
      <trkpt lat="47.52462" lon="6.77472">
        <ele>392.9</ele>
        <time>2017-09-28T16:28:41Z</time>
      </trkpt>
      <trkpt lat="47.52464" lon="6.77473">
        <ele>393</ele>
        <time>2017-09-28T16:28:42Z</time>
      </trkpt>
      <trkpt lat="47.52468" lon="6.77473">
        <ele>393.1</ele>
        <time>2017-09-28T16:28:43Z</time>
      </trkpt>
      <trkpt lat="47.5247" lon="6.77473">
        <ele>393.1</ele>
        <time>2017-09-28T16:28:44Z</time>
      </trkpt>
      <trkpt lat="47.52473" lon="6.77472">
        <ele>393.2</ele>
        <time>2017-09-28T16:28:45Z</time>
      </trkpt>
      <trkpt lat="47.52475" lon="6.77472">
        <ele>393.3</ele>
        <time>2017-09-28T16:28:46Z</time>
      </trkpt>
      <trkpt lat="47.52478" lon="6.77473">
        <ele>393.3</ele>
        <time>2017-09-28T16:28:47Z</time>
      </trkpt>
      <trkpt lat="47.52481" lon="6.77473">
        <ele>393.4</ele>
        <time>2017-09-28T16:28:48Z</time>
      </trkpt>
      <trkpt lat="47.52484" lon="6.77474">
        <ele>393.5</ele>
        <time>2017-09-28T16:28:49Z</time>
      </trkpt>
      <trkpt lat="47.52487" lon="6.77474">
        <ele>393.6</ele>
        <time>2017-09-28T16:28:50Z</time>
      </trkpt>
      <trkpt lat="47.5249" lon="6.77475">
        <ele>393.6</ele>
        <time>2017-09-28T16:28:51Z</time>
      </trkpt>
      <trkpt lat="47.52493" lon="6.77476">
        <ele>393.6</ele>
        <time>2017-09-28T16:28:52Z</time>
      </trkpt>
      <trkpt lat="47.52495" lon="6.77476">
        <ele>393.6</ele>
        <time>2017-09-28T16:28:53Z</time>
      </trkpt>
      <trkpt lat="47.525" lon="6.77477">
        <ele>393.7</ele>
        <time>2017-09-28T16:28:55Z</time>
      </trkpt>
      <trkpt lat="47.52502" lon="6.77477">
        <ele>393.7</ele>
        <time>2017-09-28T16:28:56Z</time>
      </trkpt>
      <trkpt lat="47.52505" lon="6.77477">
        <ele>393.6</ele>
        <time>2017-09-28T16:28:57Z</time>
      </trkpt>
      <trkpt lat="47.52508" lon="6.77478">
        <ele>393.6</ele>
        <time>2017-09-28T16:28:58Z</time>
      </trkpt>
      <trkpt lat="47.52511" lon="6.77478">
        <ele>393.6</ele>
        <time>2017-09-28T16:28:59Z</time>
      </trkpt>
      <trkpt lat="47.52514" lon="6.7748">
        <ele>393.6</ele>
        <time>2017-09-28T16:29:00Z</time>
      </trkpt>
      <trkpt lat="47.52516" lon="6.7748">
        <ele>393.5</ele>
        <time>2017-09-28T16:29:01Z</time>
      </trkpt>
      <trkpt lat="47.52519" lon="6.7748">
        <ele>393.5</ele>
        <time>2017-09-28T16:29:02Z</time>
      </trkpt>
      <trkpt lat="47.52521" lon="6.77478">
        <ele>393.5</ele>
        <time>2017-09-28T16:29:03Z</time>
      </trkpt>
      <trkpt lat="47.52524" lon="6.77476">
        <ele>393.5</ele>
        <time>2017-09-28T16:29:04Z</time>
      </trkpt>
      <trkpt lat="47.52526" lon="6.77474">
        <ele>393.5</ele>
        <time>2017-09-28T16:29:05Z</time>
      </trkpt>
      <trkpt lat="47.52533" lon="6.77471">
        <ele>393.6</ele>
        <time>2017-09-28T16:29:07Z</time>
      </trkpt>
      <trkpt lat="47.52536" lon="6.7747">
        <ele>393.7</ele>
        <time>2017-09-28T16:29:08Z</time>
      </trkpt>
      <trkpt lat="47.52542" lon="6.77471">
        <ele>393.8</ele>
        <time>2017-09-28T16:29:10Z</time>
      </trkpt>
      <trkpt lat="47.52544" lon="6.77471">
        <ele>393.9</ele>
        <time>2017-09-28T16:29:11Z</time>
      </trkpt>
      <trkpt lat="47.52547" lon="6.77472">
        <ele>394</ele>
        <time>2017-09-28T16:29:12Z</time>
      </trkpt>
      <trkpt lat="47.5255" lon="6.77473">
        <ele>394</ele>
        <time>2017-09-28T16:29:13Z</time>
      </trkpt>
      <trkpt lat="47.52552" lon="6.77474">
        <ele>394.1</ele>
        <time>2017-09-28T16:29:14Z</time>
      </trkpt>
      <trkpt lat="47.52559" lon="6.77474">
        <ele>394.2</ele>
        <time>2017-09-28T16:29:16Z</time>
      </trkpt>
      <trkpt lat="47.52562" lon="6.77474">
        <ele>394.3</ele>
        <time>2017-09-28T16:29:17Z</time>
      </trkpt>
      <trkpt lat="47.52564" lon="6.77474">
        <ele>394.3</ele>
        <time>2017-09-28T16:29:18Z</time>
      </trkpt>
      <trkpt lat="47.52567" lon="6.77475">
        <ele>394.3</ele>
        <time>2017-09-28T16:29:19Z</time>
      </trkpt>
      <trkpt lat="47.52569" lon="6.77477">
        <ele>394.3</ele>
        <time>2017-09-28T16:29:20Z</time>
      </trkpt>
      <trkpt lat="47.52573" lon="6.77479">
        <ele>394.3</ele>
        <time>2017-09-28T16:29:22Z</time>
      </trkpt>
      <trkpt lat="47.52576" lon="6.77479">
        <ele>394.4</ele>
        <time>2017-09-28T16:29:23Z</time>
      </trkpt>
      <trkpt lat="47.52579" lon="6.77479">
        <ele>394.4</ele>
        <time>2017-09-28T16:29:24Z</time>
      </trkpt>
      <trkpt lat="47.52583" lon="6.7748">
        <ele>394.4</ele>
        <time>2017-09-28T16:29:25Z</time>
      </trkpt>
      <trkpt lat="47.52586" lon="6.77482">
        <ele>394.4</ele>
        <time>2017-09-28T16:29:26Z</time>
      </trkpt>
      <trkpt lat="47.52589" lon="6.77484">
        <ele>394.4</ele>
        <time>2017-09-28T16:29:27Z</time>
      </trkpt>
      <trkpt lat="47.52591" lon="6.77486">
        <ele>394.4</ele>
        <time>2017-09-28T16:29:28Z</time>
      </trkpt>
      <trkpt lat="47.52594" lon="6.77489">
        <ele>394.4</ele>
        <time>2017-09-28T16:29:29Z</time>
      </trkpt>
      <trkpt lat="47.52596" lon="6.77491">
        <ele>394.4</ele>
        <time>2017-09-28T16:29:30Z</time>
      </trkpt>
      <trkpt lat="47.52599" lon="6.77493">
        <ele>394.4</ele>
        <time>2017-09-28T16:29:31Z</time>
      </trkpt>
      <trkpt lat="47.52603" lon="6.77494">
        <ele>394.3</ele>
        <time>2017-09-28T16:29:33Z</time>
      </trkpt>
      <trkpt lat="47.52606" lon="6.77493">
        <ele>394.3</ele>
        <time>2017-09-28T16:29:35Z</time>
      </trkpt>
      <trkpt lat="47.5261" lon="6.77488">
        <ele>394.1</ele>
        <time>2017-09-28T16:29:37Z</time>
      </trkpt>
      <trkpt lat="47.52612" lon="6.77484">
        <ele>394</ele>
        <time>2017-09-28T16:29:38Z</time>
      </trkpt>
      <trkpt lat="47.52614" lon="6.77481">
        <ele>394</ele>
        <time>2017-09-28T16:29:39Z</time>
      </trkpt>
      <trkpt lat="47.52615" lon="6.77478">
        <ele>393.8</ele>
        <time>2017-09-28T16:29:40Z</time>
      </trkpt>
      <trkpt lat="47.52617" lon="6.77475">
        <ele>393.7</ele>
        <time>2017-09-28T16:29:41Z</time>
      </trkpt>
      <trkpt lat="47.52618" lon="6.77473">
        <ele>393.5</ele>
        <time>2017-09-28T16:29:42Z</time>
      </trkpt>
      <trkpt lat="47.5262" lon="6.7747">
        <ele>393.3</ele>
        <time>2017-09-28T16:29:43Z</time>
      </trkpt>
      <trkpt lat="47.52622" lon="6.77467">
        <ele>393</ele>
        <time>2017-09-28T16:29:44Z</time>
      </trkpt>
      <trkpt lat="47.52623" lon="6.77463">
        <ele>392.7</ele>
        <time>2017-09-28T16:29:45Z</time>
      </trkpt>
      <trkpt lat="47.52625" lon="6.77461">
        <ele>392.5</ele>
        <time>2017-09-28T16:29:46Z</time>
      </trkpt>
      <trkpt lat="47.52628" lon="6.77458">
        <ele>392.1</ele>
        <time>2017-09-28T16:29:47Z</time>
      </trkpt>
      <trkpt lat="47.5263" lon="6.77456">
        <ele>391.9</ele>
        <time>2017-09-28T16:29:48Z</time>
      </trkpt>
      <trkpt lat="47.52633" lon="6.77454">
        <ele>391.7</ele>
        <time>2017-09-28T16:29:49Z</time>
      </trkpt>
      <trkpt lat="47.52635" lon="6.77453">
        <ele>391.6</ele>
        <time>2017-09-28T16:29:50Z</time>
      </trkpt>
      <trkpt lat="47.52638" lon="6.77452">
        <ele>391.4</ele>
        <time>2017-09-28T16:29:51Z</time>
      </trkpt>
      <trkpt lat="47.52641" lon="6.7745">
        <ele>391.2</ele>
        <time>2017-09-28T16:29:52Z</time>
      </trkpt>
      <trkpt lat="47.52643" lon="6.77448">
        <ele>391.1</ele>
        <time>2017-09-28T16:29:53Z</time>
      </trkpt>
      <trkpt lat="47.52646" lon="6.77446">
        <ele>391.2</ele>
        <time>2017-09-28T16:29:54Z</time>
      </trkpt>
      <trkpt lat="47.52648" lon="6.77445">
        <ele>391.6</ele>
        <time>2017-09-28T16:29:55Z</time>
      </trkpt>
      <trkpt lat="47.52652" lon="6.77444">
        <ele>392.1</ele>
        <time>2017-09-28T16:29:57Z</time>
      </trkpt>
      <trkpt lat="47.52653" lon="6.77444">
        <ele>392.4</ele>
        <time>2017-09-28T16:29:58Z</time>
      </trkpt>
      <trkpt lat="47.52657" lon="6.77444">
        <ele>392.9</ele>
        <time>2017-09-28T16:30:00Z</time>
      </trkpt>
      <trkpt lat="47.52659" lon="6.77444">
        <ele>393.3</ele>
        <time>2017-09-28T16:30:01Z</time>
      </trkpt>
      <trkpt lat="47.52662" lon="6.77443">
        <ele>393.6</ele>
        <time>2017-09-28T16:30:02Z</time>
      </trkpt>
      <trkpt lat="47.52665" lon="6.77444">
        <ele>394.1</ele>
        <time>2017-09-28T16:30:03Z</time>
      </trkpt>
      <trkpt lat="47.52669" lon="6.77444">
        <ele>394.7</ele>
        <time>2017-09-28T16:30:05Z</time>
      </trkpt>
      <trkpt lat="47.52672" lon="6.77444">
        <ele>395.1</ele>
        <time>2017-09-28T16:30:06Z</time>
      </trkpt>
      <trkpt lat="47.52674" lon="6.77445">
        <ele>395.5</ele>
        <time>2017-09-28T16:30:07Z</time>
      </trkpt>
      <trkpt lat="47.52676" lon="6.77446">
        <ele>395.9</ele>
        <time>2017-09-28T16:30:08Z</time>
      </trkpt>
      <trkpt lat="47.52682" lon="6.7745">
        <ele>396.8</ele>
        <time>2017-09-28T16:30:10Z</time>
      </trkpt>
      <trkpt lat="47.52685" lon="6.77452">
        <ele>397.5</ele>
        <time>2017-09-28T16:30:12Z</time>
      </trkpt>
      <trkpt lat="47.52686" lon="6.77453">
        <ele>397.6</ele>
        <time>2017-09-28T16:30:13Z</time>
      </trkpt>
      <trkpt lat="47.52689" lon="6.77454">
        <ele>398.1</ele>
        <time>2017-09-28T16:30:14Z</time>
      </trkpt>
      <trkpt lat="47.52691" lon="6.77455">
        <ele>398.4</ele>
        <time>2017-09-28T16:30:15Z</time>
      </trkpt>
      <trkpt lat="47.52693" lon="6.77457">
        <ele>398.8</ele>
        <time>2017-09-28T16:30:16Z</time>
      </trkpt>
      <trkpt lat="47.52695" lon="6.7746">
        <ele>399.1</ele>
        <time>2017-09-28T16:30:17Z</time>
      </trkpt>
      <trkpt lat="47.52697" lon="6.77462">
        <ele>399.2</ele>
        <time>2017-09-28T16:30:18Z</time>
      </trkpt>
      <trkpt lat="47.52699" lon="6.77464">
        <ele>399.3</ele>
        <time>2017-09-28T16:30:19Z</time>
      </trkpt>
      <trkpt lat="47.52701" lon="6.77467">
        <ele>399.3</ele>
        <time>2017-09-28T16:30:20Z</time>
      </trkpt>
      <trkpt lat="47.52704" lon="6.7747">
        <ele>399.4</ele>
        <time>2017-09-28T16:30:21Z</time>
      </trkpt>
      <trkpt lat="47.52706" lon="6.77472">
        <ele>399.4</ele>
        <time>2017-09-28T16:30:22Z</time>
      </trkpt>
      <trkpt lat="47.52709" lon="6.77474">
        <ele>399.5</ele>
        <time>2017-09-28T16:30:23Z</time>
      </trkpt>
      <trkpt lat="47.52711" lon="6.77477">
        <ele>399.6</ele>
        <time>2017-09-28T16:30:24Z</time>
      </trkpt>
      <trkpt lat="47.52713" lon="6.77479">
        <ele>399.6</ele>
        <time>2017-09-28T16:30:25Z</time>
      </trkpt>
      <trkpt lat="47.52716" lon="6.7748">
        <ele>399.7</ele>
        <time>2017-09-28T16:30:26Z</time>
      </trkpt>
      <trkpt lat="47.52718" lon="6.77481">
        <ele>399.7</ele>
        <time>2017-09-28T16:30:27Z</time>
      </trkpt>
      <trkpt lat="47.52722" lon="6.77484">
        <ele>399.8</ele>
        <time>2017-09-28T16:30:29Z</time>
      </trkpt>
      <trkpt lat="47.52724" lon="6.77485">
        <ele>399.8</ele>
        <time>2017-09-28T16:30:30Z</time>
      </trkpt>
      <trkpt lat="47.52727" lon="6.77487">
        <ele>399.9</ele>
        <time>2017-09-28T16:30:31Z</time>
      </trkpt>
      <trkpt lat="47.5273" lon="6.77488">
        <ele>399.9</ele>
        <time>2017-09-28T16:30:32Z</time>
      </trkpt>
      <trkpt lat="47.52734" lon="6.7749">
        <ele>399.9</ele>
        <time>2017-09-28T16:30:34Z</time>
      </trkpt>
      <trkpt lat="47.52736" lon="6.77491">
        <ele>400</ele>
        <time>2017-09-28T16:30:35Z</time>
      </trkpt>
      <trkpt lat="47.52739" lon="6.77493">
        <ele>400</ele>
        <time>2017-09-28T16:30:36Z</time>
      </trkpt>
      <trkpt lat="47.52742" lon="6.77494">
        <ele>400</ele>
        <time>2017-09-28T16:30:37Z</time>
      </trkpt>
      <trkpt lat="47.52745" lon="6.77495">
        <ele>400</ele>
        <time>2017-09-28T16:30:38Z</time>
      </trkpt>
      <trkpt lat="47.52748" lon="6.77497">
        <ele>400.1</ele>
        <time>2017-09-28T16:30:39Z</time>
      </trkpt>
      <trkpt lat="47.52754" lon="6.77501">
        <ele>400.1</ele>
        <time>2017-09-28T16:30:41Z</time>
      </trkpt>
      <trkpt lat="47.52756" lon="6.77504">
        <ele>400.1</ele>
        <time>2017-09-28T16:30:42Z</time>
      </trkpt>
      <trkpt lat="47.52758" lon="6.77508">
        <ele>400.2</ele>
        <time>2017-09-28T16:30:43Z</time>
      </trkpt>
      <trkpt lat="47.52761" lon="6.77511">
        <ele>400.2</ele>
        <time>2017-09-28T16:30:44Z</time>
      </trkpt>
      <trkpt lat="47.52763" lon="6.77514">
        <ele>400.2</ele>
        <time>2017-09-28T16:30:45Z</time>
      </trkpt>
      <trkpt lat="47.52765" lon="6.77516">
        <ele>400.2</ele>
        <time>2017-09-28T16:30:46Z</time>
      </trkpt>
      <trkpt lat="47.52767" lon="6.77518">
        <ele>400.3</ele>
        <time>2017-09-28T16:30:47Z</time>
      </trkpt>
      <trkpt lat="47.52769" lon="6.77519">
        <ele>400.3</ele>
        <time>2017-09-28T16:30:48Z</time>
      </trkpt>
      <trkpt lat="47.52771" lon="6.77521">
        <ele>400.3</ele>
        <time>2017-09-28T16:30:49Z</time>
      </trkpt>
      <trkpt lat="47.52773" lon="6.77522">
        <ele>400.3</ele>
        <time>2017-09-28T16:30:50Z</time>
      </trkpt>
      <trkpt lat="47.52776" lon="6.77524">
        <ele>400.3</ele>
        <time>2017-09-28T16:30:51Z</time>
      </trkpt>
      <trkpt lat="47.52779" lon="6.77525">
        <ele>400.3</ele>
        <time>2017-09-28T16:30:52Z</time>
      </trkpt>
      <trkpt lat="47.52781" lon="6.77527">
        <ele>400.4</ele>
        <time>2017-09-28T16:30:53Z</time>
      </trkpt>
      <trkpt lat="47.52783" lon="6.77528">
        <ele>400.4</ele>
        <time>2017-09-28T16:30:54Z</time>
      </trkpt>
      <trkpt lat="47.52786" lon="6.7753">
        <ele>400.4</ele>
        <time>2017-09-28T16:30:55Z</time>
      </trkpt>
      <trkpt lat="47.52788" lon="6.77531">
        <ele>400.4</ele>
        <time>2017-09-28T16:30:56Z</time>
      </trkpt>
      <trkpt lat="47.52791" lon="6.77532">
        <ele>400.4</ele>
        <time>2017-09-28T16:30:57Z</time>
      </trkpt>
      <trkpt lat="47.52793" lon="6.77534">
        <ele>400.4</ele>
        <time>2017-09-28T16:30:58Z</time>
      </trkpt>
      <trkpt lat="47.52796" lon="6.77535">
        <ele>400.5</ele>
        <time>2017-09-28T16:30:59Z</time>
      </trkpt>
      <trkpt lat="47.52799" lon="6.77535">
        <ele>400.5</ele>
        <time>2017-09-28T16:31:00Z</time>
      </trkpt>
      <trkpt lat="47.52815" lon="6.77543">
        <ele>400.6</ele>
        <time>2017-09-28T16:31:06Z</time>
      </trkpt>
      <trkpt lat="47.5282" lon="6.77544">
        <ele>400.6</ele>
        <time>2017-09-28T16:31:08Z</time>
      </trkpt>
      <trkpt lat="47.52822" lon="6.77545">
        <ele>400.6</ele>
        <time>2017-09-28T16:31:09Z</time>
      </trkpt>
      <trkpt lat="47.52825" lon="6.77545">
        <ele>400.6</ele>
        <time>2017-09-28T16:31:10Z</time>
      </trkpt>
      <trkpt lat="47.52828" lon="6.77547">
        <ele>400.7</ele>
        <time>2017-09-28T16:31:11Z</time>
      </trkpt>
      <trkpt lat="47.52831" lon="6.77548">
        <ele>400.7</ele>
        <time>2017-09-28T16:31:12Z</time>
      </trkpt>
      <trkpt lat="47.52834" lon="6.7755">
        <ele>400.7</ele>
        <time>2017-09-28T16:31:14Z</time>
      </trkpt>
      <trkpt lat="47.52836" lon="6.77551">
        <ele>400.7</ele>
        <time>2017-09-28T16:31:15Z</time>
      </trkpt>
      <trkpt lat="47.5284" lon="6.77553">
        <ele>400.7</ele>
        <time>2017-09-28T16:31:17Z</time>
      </trkpt>
      <trkpt lat="47.52842" lon="6.77554">
        <ele>400.7</ele>
        <time>2017-09-28T16:31:18Z</time>
      </trkpt>
      <trkpt lat="47.52844" lon="6.77555">
        <ele>400.8</ele>
        <time>2017-09-28T16:31:19Z</time>
      </trkpt>
      <trkpt lat="47.52846" lon="6.77555">
        <ele>400.8</ele>
        <time>2017-09-28T16:31:20Z</time>
      </trkpt>
      <trkpt lat="47.52848" lon="6.77555">
        <ele>400.8</ele>
        <time>2017-09-28T16:31:21Z</time>
      </trkpt>
      <trkpt lat="47.52851" lon="6.77555">
        <ele>400.8</ele>
        <time>2017-09-28T16:31:22Z</time>
      </trkpt>
      <trkpt lat="47.52855" lon="6.77556">
        <ele>400.8</ele>
        <time>2017-09-28T16:31:24Z</time>
      </trkpt>
      <trkpt lat="47.52857" lon="6.77557">
        <ele>400.8</ele>
        <time>2017-09-28T16:31:25Z</time>
      </trkpt>
      <trkpt lat="47.52859" lon="6.77558">
        <ele>400.8</ele>
        <time>2017-09-28T16:31:26Z</time>
      </trkpt>
      <trkpt lat="47.52862" lon="6.77559">
        <ele>400.9</ele>
        <time>2017-09-28T16:31:27Z</time>
      </trkpt>
      <trkpt lat="47.52864" lon="6.7756">
        <ele>400.9</ele>
        <time>2017-09-28T16:31:28Z</time>
      </trkpt>
      <trkpt lat="47.52867" lon="6.77561">
        <ele>400.9</ele>
        <time>2017-09-28T16:31:29Z</time>
      </trkpt>
      <trkpt lat="47.52871" lon="6.77562">
        <ele>400.9</ele>
        <time>2017-09-28T16:31:31Z</time>
      </trkpt>
      <trkpt lat="47.52879" lon="6.77563">
        <ele>400.9</ele>
        <time>2017-09-28T16:31:34Z</time>
      </trkpt>
      <trkpt lat="47.52885" lon="6.77564">
        <ele>401</ele>
        <time>2017-09-28T16:31:37Z</time>
      </trkpt>
      <trkpt lat="47.52888" lon="6.77568">
        <ele>401</ele>
        <time>2017-09-28T16:31:42Z</time>
      </trkpt>
      <trkpt lat="47.52889" lon="6.77568">
        <ele>401</ele>
        <time>2017-09-28T16:31:43Z</time>
      </trkpt>
      <trkpt lat="47.52893" lon="6.77568">
        <ele>401</ele>
        <time>2017-09-28T16:31:44Z</time>
      </trkpt>
      <trkpt lat="47.52894" lon="6.77568">
        <ele>401</ele>
        <time>2017-09-28T16:31:45Z</time>
      </trkpt>
      <trkpt lat="47.52898" lon="6.77568">
        <ele>401.1</ele>
        <time>2017-09-28T16:31:48Z</time>
      </trkpt>
      <trkpt lat="47.52899" lon="6.77568">
        <ele>401.1</ele>
        <time>2017-09-28T16:31:49Z</time>
      </trkpt>
      <trkpt lat="47.52902" lon="6.77569">
        <ele>401.1</ele>
        <time>2017-09-28T16:31:53Z</time>
      </trkpt>
      <trkpt lat="47.52904" lon="6.77569">
        <ele>401.1</ele>
        <time>2017-09-28T16:31:54Z</time>
      </trkpt>
      <trkpt lat="47.52906" lon="6.77568">
        <ele>401.1</ele>
        <time>2017-09-28T16:31:55Z</time>
      </trkpt>
      <trkpt lat="47.52909" lon="6.77566">
        <ele>401.2</ele>
        <time>2017-09-28T16:31:58Z</time>
      </trkpt>
      <trkpt lat="47.52916" lon="6.77565">
        <ele>401.2</ele>
        <time>2017-09-28T16:32:00Z</time>
      </trkpt>
      <trkpt lat="47.5292" lon="6.77564">
        <ele>401.3</ele>
        <time>2017-09-28T16:32:01Z</time>
      </trkpt>
      <trkpt lat="47.52931" lon="6.77564">
        <ele>401.5</ele>
        <time>2017-09-28T16:32:04Z</time>
      </trkpt>
      <trkpt lat="47.52935" lon="6.77566">
        <ele>401.6</ele>
        <time>2017-09-28T16:32:05Z</time>
      </trkpt>
      <trkpt lat="47.52979" lon="6.77576">
        <ele>403.5</ele>
        <time>2017-09-28T16:32:21Z</time>
      </trkpt>
      <trkpt lat="47.52982" lon="6.77577">
        <ele>403.6</ele>
        <time>2017-09-28T16:32:22Z</time>
      </trkpt>
      <trkpt lat="47.52984" lon="6.77578">
        <ele>403.7</ele>
        <time>2017-09-28T16:32:23Z</time>
      </trkpt>
      <trkpt lat="47.52996" lon="6.77582">
        <ele>404.1</ele>
        <time>2017-09-28T16:32:27Z</time>
      </trkpt>
      <trkpt lat="47.53001" lon="6.77584">
        <ele>404.3</ele>
        <time>2017-09-28T16:32:29Z</time>
      </trkpt>
      <trkpt lat="47.53004" lon="6.77586">
        <ele>404.3</ele>
        <time>2017-09-28T16:32:30Z</time>
      </trkpt>
      <trkpt lat="47.53007" lon="6.77587">
        <ele>404.4</ele>
        <time>2017-09-28T16:32:31Z</time>
      </trkpt>
      <trkpt lat="47.53013" lon="6.77588">
        <ele>404.4</ele>
        <time>2017-09-28T16:32:33Z</time>
      </trkpt>
      <trkpt lat="47.53025" lon="6.7759">
        <ele>404.6</ele>
        <time>2017-09-28T16:32:37Z</time>
      </trkpt>
      <trkpt lat="47.53028" lon="6.77591">
        <ele>404.6</ele>
        <time>2017-09-28T16:32:38Z</time>
      </trkpt>
      <trkpt lat="47.53031" lon="6.77593">
        <ele>404.7</ele>
        <time>2017-09-28T16:32:39Z</time>
      </trkpt>
      <trkpt lat="47.53034" lon="6.77594">
        <ele>404.7</ele>
        <time>2017-09-28T16:32:40Z</time>
      </trkpt>
      <trkpt lat="47.53037" lon="6.77595">
        <ele>404.7</ele>
        <time>2017-09-28T16:32:41Z</time>
      </trkpt>
      <trkpt lat="47.53041" lon="6.77596">
        <ele>404.8</ele>
        <time>2017-09-28T16:32:42Z</time>
      </trkpt>
      <trkpt lat="47.53044" lon="6.77597">
        <ele>404.8</ele>
        <time>2017-09-28T16:32:43Z</time>
      </trkpt>
      <trkpt lat="47.53047" lon="6.77597">
        <ele>404.8</ele>
        <time>2017-09-28T16:32:44Z</time>
      </trkpt>
      <trkpt lat="47.53056" lon="6.77598">
        <ele>405</ele>
        <time>2017-09-28T16:32:47Z</time>
      </trkpt>
      <trkpt lat="47.5306" lon="6.77599">
        <ele>405</ele>
        <time>2017-09-28T16:32:48Z</time>
      </trkpt>
      <trkpt lat="47.53063" lon="6.77599">
        <ele>405</ele>
        <time>2017-09-28T16:32:49Z</time>
      </trkpt>
      <trkpt lat="47.53065" lon="6.77598">
        <ele>405</ele>
        <time>2017-09-28T16:32:50Z</time>
      </trkpt>
      <trkpt lat="47.53069" lon="6.77598">
        <ele>405.1</ele>
        <time>2017-09-28T16:32:51Z</time>
      </trkpt>
      <trkpt lat="47.53083" lon="6.776">
        <ele>405.3</ele>
        <time>2017-09-28T16:32:55Z</time>
      </trkpt>
      <trkpt lat="47.53094" lon="6.77598">
        <ele>405.5</ele>
        <time>2017-09-28T16:32:58Z</time>
      </trkpt>
      <trkpt lat="47.53097" lon="6.77598">
        <ele>405.6</ele>
        <time>2017-09-28T16:32:59Z</time>
      </trkpt>
      <trkpt lat="47.53101" lon="6.77598">
        <ele>405.6</ele>
        <time>2017-09-28T16:33:00Z</time>
      </trkpt>
      <trkpt lat="47.53104" lon="6.77599">
        <ele>405.6</ele>
        <time>2017-09-28T16:33:01Z</time>
      </trkpt>
      <trkpt lat="47.53107" lon="6.77599">
        <ele>405.7</ele>
        <time>2017-09-28T16:33:02Z</time>
      </trkpt>
      <trkpt lat="47.5311" lon="6.77598">
        <ele>405.7</ele>
        <time>2017-09-28T16:33:03Z</time>
      </trkpt>
      <trkpt lat="47.53113" lon="6.77597">
        <ele>405.8</ele>
        <time>2017-09-28T16:33:04Z</time>
      </trkpt>
      <trkpt lat="47.53118" lon="6.77595">
        <ele>406</ele>
        <time>2017-09-28T16:33:06Z</time>
      </trkpt>
      <trkpt lat="47.53121" lon="6.77593">
        <ele>406.1</ele>
        <time>2017-09-28T16:33:07Z</time>
      </trkpt>
      <trkpt lat="47.53124" lon="6.77592">
        <ele>406.1</ele>
        <time>2017-09-28T16:33:08Z</time>
      </trkpt>
      <trkpt lat="47.53127" lon="6.77591">
        <ele>406.2</ele>
        <time>2017-09-28T16:33:09Z</time>
      </trkpt>
      <trkpt lat="47.53133" lon="6.7759">
        <ele>406.1</ele>
        <time>2017-09-28T16:33:11Z</time>
      </trkpt>
      <trkpt lat="47.53137" lon="6.77588">
        <ele>406.1</ele>
        <time>2017-09-28T16:33:13Z</time>
      </trkpt>
      <trkpt lat="47.53138" lon="6.77585">
        <ele>405.9</ele>
        <time>2017-09-28T16:33:14Z</time>
      </trkpt>
      <trkpt lat="47.53139" lon="6.77581">
        <ele>405.7</ele>
        <time>2017-09-28T16:33:15Z</time>
      </trkpt>
      <trkpt lat="47.53145" lon="6.77573">
        <ele>404.9</ele>
        <time>2017-09-28T16:33:17Z</time>
      </trkpt>
      <trkpt lat="47.53152" lon="6.77569">
        <ele>404.3</ele>
        <time>2017-09-28T16:33:19Z</time>
      </trkpt>
      <trkpt lat="47.53155" lon="6.77567">
        <ele>403.8</ele>
        <time>2017-09-28T16:33:20Z</time>
      </trkpt>
      <trkpt lat="47.53159" lon="6.77565">
        <ele>403.3</ele>
        <time>2017-09-28T16:33:21Z</time>
      </trkpt>
      <trkpt lat="47.53163" lon="6.77562">
        <ele>402.6</ele>
        <time>2017-09-28T16:33:22Z</time>
      </trkpt>
      <trkpt lat="47.53167" lon="6.77558">
        <ele>401.6</ele>
        <time>2017-09-28T16:33:23Z</time>
      </trkpt>
      <trkpt lat="47.53172" lon="6.77554">
        <ele>400.1</ele>
        <time>2017-09-28T16:33:24Z</time>
      </trkpt>
      <trkpt lat="47.53175" lon="6.77551">
        <ele>399.3</ele>
        <time>2017-09-28T16:33:25Z</time>
      </trkpt>
      <trkpt lat="47.53183" lon="6.77547">
        <ele>397.6</ele>
        <time>2017-09-28T16:33:27Z</time>
      </trkpt>
      <trkpt lat="47.53185" lon="6.77544">
        <ele>396.6</ele>
        <time>2017-09-28T16:33:28Z</time>
      </trkpt>
      <trkpt lat="47.53193" lon="6.77531">
        <ele>392.8</ele>
        <time>2017-09-28T16:33:32Z</time>
      </trkpt>
      <trkpt lat="47.53199" lon="6.77524">
        <ele>390.7</ele>
        <time>2017-09-28T16:33:34Z</time>
      </trkpt>
      <trkpt lat="47.53203" lon="6.77521">
        <ele>389.7</ele>
        <time>2017-09-28T16:33:35Z</time>
      </trkpt>
      <trkpt lat="47.53206" lon="6.77518">
        <ele>388.7</ele>
        <time>2017-09-28T16:33:36Z</time>
      </trkpt>
      <trkpt lat="47.53208" lon="6.77515">
        <ele>388</ele>
        <time>2017-09-28T16:33:37Z</time>
      </trkpt>
      <trkpt lat="47.53225" lon="6.77461">
        <ele>384.9</ele>
        <time>2017-09-28T16:33:49Z</time>
      </trkpt>
      <trkpt lat="47.53227" lon="6.77457">
        <ele>385</ele>
        <time>2017-09-28T16:33:50Z</time>
      </trkpt>
      <trkpt lat="47.5323" lon="6.77452">
        <ele>385.4</ele>
        <time>2017-09-28T16:33:51Z</time>
      </trkpt>
      <trkpt lat="47.53232" lon="6.77448">
        <ele>385.7</ele>
        <time>2017-09-28T16:33:52Z</time>
      </trkpt>
      <trkpt lat="47.53239" lon="6.77437">
        <ele>386.7</ele>
        <time>2017-09-28T16:33:55Z</time>
      </trkpt>
      <trkpt lat="47.53245" lon="6.77425">
        <ele>387.2</ele>
        <time>2017-09-28T16:33:58Z</time>
      </trkpt>
      <trkpt lat="47.53248" lon="6.77421">
        <ele>387.3</ele>
        <time>2017-09-28T16:33:59Z</time>
      </trkpt>
      <trkpt lat="47.5325" lon="6.77417">
        <ele>387.4</ele>
        <time>2017-09-28T16:34:00Z</time>
      </trkpt>
      <trkpt lat="47.53252" lon="6.77413">
        <ele>387.3</ele>
        <time>2017-09-28T16:34:01Z</time>
      </trkpt>
      <trkpt lat="47.53254" lon="6.77411">
        <ele>387.2</ele>
        <time>2017-09-28T16:34:02Z</time>
      </trkpt>
      <trkpt lat="47.53258" lon="6.77407">
        <ele>386.8</ele>
        <time>2017-09-28T16:34:03Z</time>
      </trkpt>
      <trkpt lat="47.53264" lon="6.774">
        <ele>385.7</ele>
        <time>2017-09-28T16:34:06Z</time>
      </trkpt>
      <trkpt lat="47.53266" lon="6.77397">
        <ele>385.1</ele>
        <time>2017-09-28T16:34:07Z</time>
      </trkpt>
      <trkpt lat="47.53269" lon="6.77393">
        <ele>384.4</ele>
        <time>2017-09-28T16:34:08Z</time>
      </trkpt>
      <trkpt lat="47.53271" lon="6.7739">
        <ele>380.1</ele>
        <time>2017-09-28T16:34:09Z</time>
      </trkpt>
      <trkpt lat="47.53273" lon="6.77386">
        <ele>375.9</ele>
        <time>2017-09-28T16:34:10Z</time>
      </trkpt>
      <trkpt lat="47.53275" lon="6.77381">
        <ele>375.6</ele>
        <time>2017-09-28T16:34:11Z</time>
      </trkpt>
      <trkpt lat="47.53276" lon="6.77377">
        <ele>375.2</ele>
        <time>2017-09-28T16:34:12Z</time>
      </trkpt>
      <trkpt lat="47.53278" lon="6.77373">
        <ele>374.9</ele>
        <time>2017-09-28T16:34:13Z</time>
      </trkpt>
      <trkpt lat="47.53281" lon="6.77366">
        <ele>374.5</ele>
        <time>2017-09-28T16:34:15Z</time>
      </trkpt>
      <trkpt lat="47.53286" lon="6.77358">
        <ele>373.4</ele>
        <time>2017-09-28T16:34:17Z</time>
      </trkpt>
      <trkpt lat="47.53293" lon="6.77347">
        <ele>372</ele>
        <time>2017-09-28T16:34:20Z</time>
      </trkpt>
      <trkpt lat="47.53297" lon="6.7734">
        <ele>371.1</ele>
        <time>2017-09-28T16:34:22Z</time>
      </trkpt>
      <trkpt lat="47.533" lon="6.77337">
        <ele>370.7</ele>
        <time>2017-09-28T16:34:23Z</time>
      </trkpt>
      <trkpt lat="47.53304" lon="6.77332">
        <ele>370</ele>
        <time>2017-09-28T16:34:25Z</time>
      </trkpt>
      <trkpt lat="47.53306" lon="6.7733">
        <ele>369.6</ele>
        <time>2017-09-28T16:34:26Z</time>
      </trkpt>
      <trkpt lat="47.53319" lon="6.77316">
        <ele>367</ele>
        <time>2017-09-28T16:34:30Z</time>
      </trkpt>
      <trkpt lat="47.53324" lon="6.77311">
        <ele>366.2</ele>
        <time>2017-09-28T16:34:32Z</time>
      </trkpt>
      <trkpt lat="47.53334" lon="6.773">
        <ele>365.2</ele>
        <time>2017-09-28T16:34:36Z</time>
      </trkpt>
      <trkpt lat="47.53336" lon="6.77296">
        <ele>365.1</ele>
        <time>2017-09-28T16:34:37Z</time>
      </trkpt>
      <trkpt lat="47.53337" lon="6.77291">
        <ele>365.1</ele>
        <time>2017-09-28T16:34:38Z</time>
      </trkpt>
      <trkpt lat="47.53339" lon="6.77287">
        <ele>365</ele>
        <time>2017-09-28T16:34:39Z</time>
      </trkpt>
      <trkpt lat="47.53342" lon="6.77279">
        <ele>364.8</ele>
        <time>2017-09-28T16:34:41Z</time>
      </trkpt>
      <trkpt lat="47.53347" lon="6.77266">
        <ele>364.7</ele>
        <time>2017-09-28T16:34:45Z</time>
      </trkpt>
      <trkpt lat="47.53348" lon="6.77258">
        <ele>364.5</ele>
        <time>2017-09-28T16:34:47Z</time>
      </trkpt>
      <trkpt lat="47.5336" lon="6.77245">
        <ele>364.9</ele>
        <time>2017-09-28T16:34:51Z</time>
      </trkpt>
      <trkpt lat="47.53363" lon="6.77242">
        <ele>365.1</ele>
        <time>2017-09-28T16:34:52Z</time>
      </trkpt>
      <trkpt lat="47.5337" lon="6.77236">
        <ele>366</ele>
        <time>2017-09-28T16:34:54Z</time>
      </trkpt>
      <trkpt lat="47.5343" lon="6.77231">
        <ele>365.1</ele>
        <time>2017-09-28T16:35:17Z</time>
      </trkpt>
      <trkpt lat="47.53441" lon="6.77236">
        <ele>365.2</ele>
        <time>2017-09-28T16:35:21Z</time>
      </trkpt>
      <trkpt lat="47.53442" lon="6.77237">
        <ele>365.2</ele>
        <time>2017-09-28T16:35:22Z</time>
      </trkpt>
      <trkpt lat="47.5345" lon="6.77242">
        <ele>365.3</ele>
        <time>2017-09-28T16:35:26Z</time>
      </trkpt>
      <trkpt lat="47.53451" lon="6.77242">
        <ele>365.3</ele>
        <time>2017-09-28T16:35:27Z</time>
      </trkpt>
      <trkpt lat="47.53455" lon="6.77243">
        <ele>365.3</ele>
        <time>2017-09-28T16:35:29Z</time>
      </trkpt>
      <trkpt lat="47.5347" lon="6.77249">
        <ele>365.5</ele>
        <time>2017-09-28T16:35:36Z</time>
      </trkpt>
      <trkpt lat="47.53474" lon="6.77252">
        <ele>365.4</ele>
        <time>2017-09-28T16:35:38Z</time>
      </trkpt>
      <trkpt lat="47.53479" lon="6.77255">
        <ele>366.3</ele>
        <time>2017-09-28T16:35:41Z</time>
      </trkpt>
      <trkpt lat="47.53696" lon="6.77339">
        <ele>390.2</ele>
        <time>2017-09-28T16:38:16Z</time>
      </trkpt>
      <trkpt lat="47.53699" lon="6.77339">
        <ele>390.6</ele>
        <time>2017-09-28T16:38:17Z</time>
      </trkpt>
      <trkpt lat="47.53703" lon="6.7734">
        <ele>391.1</ele>
        <time>2017-09-28T16:38:18Z</time>
      </trkpt>
      <trkpt lat="47.53706" lon="6.77341">
        <ele>391.6</ele>
        <time>2017-09-28T16:38:25Z</time>
      </trkpt>
      <trkpt lat="47.5371" lon="6.77341">
        <ele>392.2</ele>
        <time>2017-09-28T16:38:25Z</time>
      </trkpt>
      <trkpt lat="47.53714" lon="6.77339">
        <ele>392.8</ele>
        <time>2017-09-28T16:38:38Z</time>
      </trkpt>
      <trkpt lat="47.53718" lon="6.77337">
        <ele>393.4</ele>
        <time>2017-09-28T16:38:39Z</time>
      </trkpt>
      <trkpt lat="47.53722" lon="6.77333">
        <ele>394.2</ele>
        <time>2017-09-28T16:38:52Z</time>
      </trkpt>
      <trkpt lat="47.53726" lon="6.77329">
        <ele>395</ele>
        <time>2017-09-28T16:38:53Z</time>
      </trkpt>
      <trkpt lat="47.53729" lon="6.77326">
        <ele>395.6</ele>
        <time>2017-09-28T16:38:57Z</time>
      </trkpt>
      <trkpt lat="47.5373" lon="6.77325">
        <ele>395.8</ele>
        <time>2017-09-28T16:38:58Z</time>
      </trkpt>
      <trkpt lat="47.53734" lon="6.77321">
        <ele>396.5</ele>
        <time>2017-09-28T16:39:02Z</time>
      </trkpt>
      <trkpt lat="47.53734" lon="6.77321">
        <ele>396.6</ele>
        <time>2017-09-28T16:39:03Z</time>
      </trkpt>
      <trkpt lat="47.53736" lon="6.77318">
        <ele>397.1</ele>
        <time>2017-09-28T16:39:06Z</time>
      </trkpt>
      <trkpt lat="47.53738" lon="6.77316">
        <ele>397.4</ele>
        <time>2017-09-28T16:39:07Z</time>
      </trkpt>
      <trkpt lat="47.53739" lon="6.77313">
        <ele>397.9</ele>
        <time>2017-09-28T16:39:08Z</time>
      </trkpt>
      <trkpt lat="47.53741" lon="6.77309">
        <ele>398.4</ele>
        <time>2017-09-28T16:39:09Z</time>
      </trkpt>
      <trkpt lat="47.53743" lon="6.77303">
        <ele>399.2</ele>
        <time>2017-09-28T16:39:11Z</time>
      </trkpt>
      <trkpt lat="47.53744" lon="6.773">
        <ele>399.7</ele>
        <time>2017-09-28T16:39:12Z</time>
      </trkpt>
      <trkpt lat="47.53746" lon="6.77297">
        <ele>400.1</ele>
        <time>2017-09-28T16:39:13Z</time>
      </trkpt>
      <trkpt lat="47.53748" lon="6.77295">
        <ele>400.5</ele>
        <time>2017-09-28T16:39:14Z</time>
      </trkpt>
      <trkpt lat="47.5375" lon="6.7729">
        <ele>401.1</ele>
        <time>2017-09-28T16:39:16Z</time>
      </trkpt>
      <trkpt lat="47.53751" lon="6.77287">
        <ele>401.6</ele>
        <time>2017-09-28T16:39:17Z</time>
      </trkpt>
      <trkpt lat="47.53753" lon="6.77285">
        <ele>401.9</ele>
        <time>2017-09-28T16:39:18Z</time>
      </trkpt>
      <trkpt lat="47.53755" lon="6.77281">
        <ele>402.4</ele>
        <time>2017-09-28T16:39:19Z</time>
      </trkpt>
      <trkpt lat="47.53757" lon="6.77277">
        <ele>402.9</ele>
        <time>2017-09-28T16:39:20Z</time>
      </trkpt>
      <trkpt lat="47.53758" lon="6.77273">
        <ele>403.4</ele>
        <time>2017-09-28T16:39:21Z</time>
      </trkpt>
      <trkpt lat="47.53759" lon="6.77268">
        <ele>403.7</ele>
        <time>2017-09-28T16:39:22Z</time>
      </trkpt>
      <trkpt lat="47.53759" lon="6.77266">
        <ele>403.9</ele>
        <time>2017-09-28T16:39:23Z</time>
      </trkpt>
      <trkpt lat="47.5376" lon="6.77261">
        <ele>404.4</ele>
        <time>2017-09-28T16:39:25Z</time>
      </trkpt>
      <trkpt lat="47.53761" lon="6.77258">
        <ele>404.6</ele>
        <time>2017-09-28T16:39:26Z</time>
      </trkpt>
      <trkpt lat="47.53762" lon="6.77253">
        <ele>405</ele>
        <time>2017-09-28T16:39:27Z</time>
      </trkpt>
      <trkpt lat="47.53764" lon="6.77249">
        <ele>405.4</ele>
        <time>2017-09-28T16:39:28Z</time>
      </trkpt>
      <trkpt lat="47.53765" lon="6.77245">
        <ele>405.7</ele>
        <time>2017-09-28T16:39:29Z</time>
      </trkpt>
      <trkpt lat="47.53767" lon="6.77241">
        <ele>406</ele>
        <time>2017-09-28T16:39:30Z</time>
      </trkpt>
      <trkpt lat="47.53767" lon="6.77236">
        <ele>406.4</ele>
        <time>2017-09-28T16:39:32Z</time>
      </trkpt>
      <trkpt lat="47.53767" lon="6.77234">
        <ele>406.5</ele>
        <time>2017-09-28T16:39:33Z</time>
      </trkpt>
      <trkpt lat="47.53767" lon="6.77231">
        <ele>406.7</ele>
        <time>2017-09-28T16:39:34Z</time>
      </trkpt>
      <trkpt lat="47.53768" lon="6.77227">
        <ele>407</ele>
        <time>2017-09-28T16:39:35Z</time>
      </trkpt>
      <trkpt lat="47.53771" lon="6.77223">
        <ele>407.4</ele>
        <time>2017-09-28T16:39:36Z</time>
      </trkpt>
      <trkpt lat="47.53771" lon="6.77219">
        <ele>407.7</ele>
        <time>2017-09-28T16:39:37Z</time>
      </trkpt>
      <trkpt lat="47.53772" lon="6.77214">
        <ele>408</ele>
        <time>2017-09-28T16:39:38Z</time>
      </trkpt>
      <trkpt lat="47.53772" lon="6.77212">
        <ele>408.2</ele>
        <time>2017-09-28T16:39:39Z</time>
      </trkpt>
      <trkpt lat="47.53773" lon="6.77208">
        <ele>408.5</ele>
        <time>2017-09-28T16:39:40Z</time>
      </trkpt>
      <trkpt lat="47.53773" lon="6.77205">
        <ele>408.7</ele>
        <time>2017-09-28T16:39:41Z</time>
      </trkpt>
      <trkpt lat="47.53774" lon="6.772">
        <ele>409</ele>
        <time>2017-09-28T16:39:43Z</time>
      </trkpt>
      <trkpt lat="47.53775" lon="6.77197">
        <ele>409.3</ele>
        <time>2017-09-28T16:39:44Z</time>
      </trkpt>
      <trkpt lat="47.53775" lon="6.77193">
        <ele>409.5</ele>
        <time>2017-09-28T16:39:45Z</time>
      </trkpt>
      <trkpt lat="47.53774" lon="6.7719">
        <ele>409.8</ele>
        <time>2017-09-28T16:39:46Z</time>
      </trkpt>
      <trkpt lat="47.53773" lon="6.77185">
        <ele>410.2</ele>
        <time>2017-09-28T16:39:48Z</time>
      </trkpt>
      <trkpt lat="47.53773" lon="6.77182">
        <ele>410.4</ele>
        <time>2017-09-28T16:39:49Z</time>
      </trkpt>
      <trkpt lat="47.53772" lon="6.77176">
        <ele>410.8</ele>
        <time>2017-09-28T16:39:51Z</time>
      </trkpt>
      <trkpt lat="47.53773" lon="6.77173">
        <ele>411.1</ele>
        <time>2017-09-28T16:39:52Z</time>
      </trkpt>
      <trkpt lat="47.53773" lon="6.77166">
        <ele>411.5</ele>
        <time>2017-09-28T16:39:54Z</time>
      </trkpt>
      <trkpt lat="47.53773" lon="6.77163">
        <ele>411.7</ele>
        <time>2017-09-28T16:39:55Z</time>
      </trkpt>
      <trkpt lat="47.53773" lon="6.7716">
        <ele>411.9</ele>
        <time>2017-09-28T16:39:56Z</time>
      </trkpt>
      <trkpt lat="47.53774" lon="6.77156">
        <ele>412.1</ele>
        <time>2017-09-28T16:39:57Z</time>
      </trkpt>
      <trkpt lat="47.53774" lon="6.77149">
        <ele>412.5</ele>
        <time>2017-09-28T16:39:59Z</time>
      </trkpt>
      <trkpt lat="47.53775" lon="6.77145">
        <ele>412.7</ele>
        <time>2017-09-28T16:40:00Z</time>
      </trkpt>
      <trkpt lat="47.53775" lon="6.77142">
        <ele>412.9</ele>
        <time>2017-09-28T16:40:01Z</time>
      </trkpt>
      <trkpt lat="47.53776" lon="6.77138">
        <ele>413</ele>
        <time>2017-09-28T16:40:02Z</time>
      </trkpt>
      <trkpt lat="47.53775" lon="6.77134">
        <ele>413.3</ele>
        <time>2017-09-28T16:40:04Z</time>
      </trkpt>
      <trkpt lat="47.53775" lon="6.77131">
        <ele>413.4</ele>
        <time>2017-09-28T16:40:05Z</time>
      </trkpt>
      <trkpt lat="47.53776" lon="6.77128">
        <ele>413.5</ele>
        <time>2017-09-28T16:40:06Z</time>
      </trkpt>
      <trkpt lat="47.53776" lon="6.77125">
        <ele>413.7</ele>
        <time>2017-09-28T16:40:07Z</time>
      </trkpt>
      <trkpt lat="47.53777" lon="6.77118">
        <ele>414</ele>
        <time>2017-09-28T16:40:09Z</time>
      </trkpt>
      <trkpt lat="47.53778" lon="6.77114">
        <ele>414.2</ele>
        <time>2017-09-28T16:40:10Z</time>
      </trkpt>
      <trkpt lat="47.53779" lon="6.77108">
        <ele>414.4</ele>
        <time>2017-09-28T16:40:12Z</time>
      </trkpt>
      <trkpt lat="47.53779" lon="6.77105">
        <ele>414.6</ele>
        <time>2017-09-28T16:40:13Z</time>
      </trkpt>
      <trkpt lat="47.53779" lon="6.77101">
        <ele>414.7</ele>
        <time>2017-09-28T16:40:14Z</time>
      </trkpt>
      <trkpt lat="47.5378" lon="6.77098">
        <ele>414.8</ele>
        <time>2017-09-28T16:40:15Z</time>
      </trkpt>
      <trkpt lat="47.5378" lon="6.77094">
        <ele>415</ele>
        <time>2017-09-28T16:40:16Z</time>
      </trkpt>
      <trkpt lat="47.53781" lon="6.7709">
        <ele>415.1</ele>
        <time>2017-09-28T16:40:17Z</time>
      </trkpt>
      <trkpt lat="47.53781" lon="6.77086">
        <ele>415.2</ele>
        <time>2017-09-28T16:40:18Z</time>
      </trkpt>
      <trkpt lat="47.5378" lon="6.77083">
        <ele>415.3</ele>
        <time>2017-09-28T16:40:19Z</time>
      </trkpt>
      <trkpt lat="47.5378" lon="6.77079">
        <ele>415.5</ele>
        <time>2017-09-28T16:40:20Z</time>
      </trkpt>
      <trkpt lat="47.53779" lon="6.77075">
        <ele>415.6</ele>
        <time>2017-09-28T16:40:21Z</time>
      </trkpt>
      <trkpt lat="47.53779" lon="6.77072">
        <ele>415.7</ele>
        <time>2017-09-28T16:40:22Z</time>
      </trkpt>
      <trkpt lat="47.53779" lon="6.77068">
        <ele>415.7</ele>
        <time>2017-09-28T16:40:23Z</time>
      </trkpt>
      <trkpt lat="47.53779" lon="6.77065">
        <ele>415.8</ele>
        <time>2017-09-28T16:40:24Z</time>
      </trkpt>
      <trkpt lat="47.53779" lon="6.77061">
        <ele>415.9</ele>
        <time>2017-09-28T16:40:25Z</time>
      </trkpt>
      <trkpt lat="47.53779" lon="6.77055">
        <ele>416.1</ele>
        <time>2017-09-28T16:40:27Z</time>
      </trkpt>
      <trkpt lat="47.53778" lon="6.77052">
        <ele>416.1</ele>
        <time>2017-09-28T16:40:28Z</time>
      </trkpt>
      <trkpt lat="47.53777" lon="6.77046">
        <ele>416.3</ele>
        <time>2017-09-28T16:40:30Z</time>
      </trkpt>
      <trkpt lat="47.53777" lon="6.77043">
        <ele>416.4</ele>
        <time>2017-09-28T16:40:31Z</time>
      </trkpt>
      <trkpt lat="47.53776" lon="6.77039">
        <ele>416.5</ele>
        <time>2017-09-28T16:40:32Z</time>
      </trkpt>
      <trkpt lat="47.53776" lon="6.77035">
        <ele>416.6</ele>
        <time>2017-09-28T16:40:33Z</time>
      </trkpt>
      <trkpt lat="47.53776" lon="6.77031">
        <ele>416.7</ele>
        <time>2017-09-28T16:40:34Z</time>
      </trkpt>
      <trkpt lat="47.53776" lon="6.77028">
        <ele>416.8</ele>
        <time>2017-09-28T16:40:35Z</time>
      </trkpt>
      <trkpt lat="47.53776" lon="6.77024">
        <ele>416.9</ele>
        <time>2017-09-28T16:40:36Z</time>
      </trkpt>
      <trkpt lat="47.53777" lon="6.77021">
        <ele>417.1</ele>
        <time>2017-09-28T16:40:37Z</time>
      </trkpt>
      <trkpt lat="47.53777" lon="6.77017">
        <ele>417.3</ele>
        <time>2017-09-28T16:40:38Z</time>
      </trkpt>
      <trkpt lat="47.53778" lon="6.77012">
        <ele>417.4</ele>
        <time>2017-09-28T16:40:39Z</time>
      </trkpt>
      <trkpt lat="47.53778" lon="6.77008">
        <ele>417.6</ele>
        <time>2017-09-28T16:40:40Z</time>
      </trkpt>
      <trkpt lat="47.53779" lon="6.77004">
        <ele>417.8</ele>
        <time>2017-09-28T16:40:41Z</time>
      </trkpt>
      <trkpt lat="47.53778" lon="6.77001">
        <ele>417.9</ele>
        <time>2017-09-28T16:40:42Z</time>
      </trkpt>
      <trkpt lat="47.53778" lon="6.76997">
        <ele>418.1</ele>
        <time>2017-09-28T16:40:43Z</time>
      </trkpt>
      <trkpt lat="47.53778" lon="6.76994">
        <ele>418.2</ele>
        <time>2017-09-28T16:40:44Z</time>
      </trkpt>
      <trkpt lat="47.53777" lon="6.76989">
        <ele>418.4</ele>
        <time>2017-09-28T16:40:45Z</time>
      </trkpt>
      <trkpt lat="47.53777" lon="6.76983">
        <ele>418.5</ele>
        <time>2017-09-28T16:40:47Z</time>
      </trkpt>
      <trkpt lat="47.53777" lon="6.76979">
        <ele>418.6</ele>
        <time>2017-09-28T16:40:48Z</time>
      </trkpt>
      <trkpt lat="47.53776" lon="6.76977">
        <ele>418.7</ele>
        <time>2017-09-28T16:40:49Z</time>
      </trkpt>
      <trkpt lat="47.53775" lon="6.76972">
        <ele>418.9</ele>
        <time>2017-09-28T16:40:50Z</time>
      </trkpt>
      <trkpt lat="47.53774" lon="6.76968">
        <ele>419</ele>
        <time>2017-09-28T16:40:51Z</time>
      </trkpt>
      <trkpt lat="47.53773" lon="6.76964">
        <ele>419.2</ele>
        <time>2017-09-28T16:40:52Z</time>
      </trkpt>
      <trkpt lat="47.53773" lon="6.7696">
        <ele>419.4</ele>
        <time>2017-09-28T16:40:53Z</time>
      </trkpt>
      <trkpt lat="47.53772" lon="6.76957">
        <ele>419.6</ele>
        <time>2017-09-28T16:40:54Z</time>
      </trkpt>
      <trkpt lat="47.53772" lon="6.76952">
        <ele>419.8</ele>
        <time>2017-09-28T16:40:55Z</time>
      </trkpt>
      <trkpt lat="47.53771" lon="6.76949">
        <ele>420</ele>
        <time>2017-09-28T16:40:56Z</time>
      </trkpt>
      <trkpt lat="47.5377" lon="6.76944">
        <ele>420.3</ele>
        <time>2017-09-28T16:41:01Z</time>
      </trkpt>
      <trkpt lat="47.5377" lon="6.76938">
        <ele>420.7</ele>
        <time>2017-09-28T16:41:02Z</time>
      </trkpt>
      <trkpt lat="47.5377" lon="6.76934">
        <ele>420.9</ele>
        <time>2017-09-28T16:41:03Z</time>
      </trkpt>
      <trkpt lat="47.5377" lon="6.76931">
        <ele>421.1</ele>
        <time>2017-09-28T16:41:04Z</time>
      </trkpt>
      <trkpt lat="47.5377" lon="6.76926">
        <ele>421.3</ele>
        <time>2017-09-28T16:41:05Z</time>
      </trkpt>
      <trkpt lat="47.5377" lon="6.76923">
        <ele>421.5</ele>
        <time>2017-09-28T16:41:06Z</time>
      </trkpt>
      <trkpt lat="47.53771" lon="6.76919">
        <ele>421.7</ele>
        <time>2017-09-28T16:41:07Z</time>
      </trkpt>
      <trkpt lat="47.53771" lon="6.76914">
        <ele>422.1</ele>
        <time>2017-09-28T16:41:08Z</time>
      </trkpt>
      <trkpt lat="47.53772" lon="6.76908">
        <ele>422.5</ele>
        <time>2017-09-28T16:41:10Z</time>
      </trkpt>
      <trkpt lat="47.53772" lon="6.76904">
        <ele>422.7</ele>
        <time>2017-09-28T16:41:11Z</time>
      </trkpt>
      <trkpt lat="47.53772" lon="6.769">
        <ele>423</ele>
        <time>2017-09-28T16:41:12Z</time>
      </trkpt>
      <trkpt lat="47.53773" lon="6.76896">
        <ele>423.2</ele>
        <time>2017-09-28T16:41:13Z</time>
      </trkpt>
      <trkpt lat="47.53774" lon="6.7689">
        <ele>423.6</ele>
        <time>2017-09-28T16:41:15Z</time>
      </trkpt>
      <trkpt lat="47.53775" lon="6.76887">
        <ele>423.7</ele>
        <time>2017-09-28T16:41:16Z</time>
      </trkpt>
      <trkpt lat="47.53776" lon="6.76884">
        <ele>423.9</ele>
        <time>2017-09-28T16:41:17Z</time>
      </trkpt>
      <trkpt lat="47.53776" lon="6.7688">
        <ele>424.1</ele>
        <time>2017-09-28T16:41:18Z</time>
      </trkpt>
      <trkpt lat="47.53776" lon="6.76874">
        <ele>424.5</ele>
        <time>2017-09-28T16:41:20Z</time>
      </trkpt>
      <trkpt lat="47.53777" lon="6.7687">
        <ele>424.7</ele>
        <time>2017-09-28T16:41:21Z</time>
      </trkpt>
      <trkpt lat="47.53778" lon="6.76866">
        <ele>424.9</ele>
        <time>2017-09-28T16:41:22Z</time>
      </trkpt>
      <trkpt lat="47.53778" lon="6.76863">
        <ele>425.1</ele>
        <time>2017-09-28T16:41:23Z</time>
      </trkpt>
      <trkpt lat="47.53779" lon="6.76859">
        <ele>425.3</ele>
        <time>2017-09-28T16:41:24Z</time>
      </trkpt>
      <trkpt lat="47.5378" lon="6.76855">
        <ele>425.5</ele>
        <time>2017-09-28T16:41:25Z</time>
      </trkpt>
      <trkpt lat="47.53781" lon="6.76852">
        <ele>425.7</ele>
        <time>2017-09-28T16:41:26Z</time>
      </trkpt>
      <trkpt lat="47.53782" lon="6.76848">
        <ele>425.9</ele>
        <time>2017-09-28T16:41:27Z</time>
      </trkpt>
      <trkpt lat="47.53782" lon="6.76844">
        <ele>426.2</ele>
        <time>2017-09-28T16:41:28Z</time>
      </trkpt>
      <trkpt lat="47.53783" lon="6.7684">
        <ele>426.4</ele>
        <time>2017-09-28T16:41:29Z</time>
      </trkpt>
      <trkpt lat="47.53784" lon="6.76836">
        <ele>426.7</ele>
        <time>2017-09-28T16:41:30Z</time>
      </trkpt>
      <trkpt lat="47.53785" lon="6.76833">
        <ele>426.9</ele>
        <time>2017-09-28T16:41:31Z</time>
      </trkpt>
      <trkpt lat="47.53785" lon="6.76827">
        <ele>427.3</ele>
        <time>2017-09-28T16:41:33Z</time>
      </trkpt>
      <trkpt lat="47.53785" lon="6.76823">
        <ele>427.7</ele>
        <time>2017-09-28T16:41:34Z</time>
      </trkpt>
      <trkpt lat="47.53786" lon="6.76819">
        <ele>427.9</ele>
        <time>2017-09-28T16:41:35Z</time>
      </trkpt>
      <trkpt lat="47.53786" lon="6.76816">
        <ele>428.2</ele>
        <time>2017-09-28T16:41:36Z</time>
      </trkpt>
      <trkpt lat="47.53787" lon="6.7681">
        <ele>428.6</ele>
        <time>2017-09-28T16:41:38Z</time>
      </trkpt>
      <trkpt lat="47.53788" lon="6.76806">
        <ele>428.9</ele>
        <time>2017-09-28T16:41:39Z</time>
      </trkpt>
      <trkpt lat="47.53789" lon="6.76803">
        <ele>429.1</ele>
        <time>2017-09-28T16:41:40Z</time>
      </trkpt>
      <trkpt lat="47.53789" lon="6.76798">
        <ele>429.5</ele>
        <time>2017-09-28T16:41:41Z</time>
      </trkpt>
      <trkpt lat="47.53789" lon="6.76792">
        <ele>429.9</ele>
        <time>2017-09-28T16:41:43Z</time>
      </trkpt>
      <trkpt lat="47.5379" lon="6.7679">
        <ele>430.1</ele>
        <time>2017-09-28T16:41:44Z</time>
      </trkpt>
      <trkpt lat="47.53792" lon="6.76784">
        <ele>430.6</ele>
        <time>2017-09-28T16:41:46Z</time>
      </trkpt>
      <trkpt lat="47.53793" lon="6.7678">
        <ele>430.9</ele>
        <time>2017-09-28T16:41:47Z</time>
      </trkpt>
      <trkpt lat="47.53796" lon="6.76775">
        <ele>431.3</ele>
        <time>2017-09-28T16:41:49Z</time>
      </trkpt>
      <trkpt lat="47.53796" lon="6.76773">
        <ele>431.5</ele>
        <time>2017-09-28T16:41:50Z</time>
      </trkpt>
      <trkpt lat="47.53799" lon="6.76768">
        <ele>432</ele>
        <time>2017-09-28T16:41:52Z</time>
      </trkpt>
      <trkpt lat="47.53801" lon="6.76765">
        <ele>432.2</ele>
        <time>2017-09-28T16:41:53Z</time>
      </trkpt>
      <trkpt lat="47.53802" lon="6.76763">
        <ele>432.5</ele>
        <time>2017-09-28T16:41:54Z</time>
      </trkpt>
      <trkpt lat="47.53804" lon="6.7676">
        <ele>432.7</ele>
        <time>2017-09-28T16:41:55Z</time>
      </trkpt>
      <trkpt lat="47.53806" lon="6.76757">
        <ele>433</ele>
        <time>2017-09-28T16:41:56Z</time>
      </trkpt>
      <trkpt lat="47.53807" lon="6.76753">
        <ele>433.3</ele>
        <time>2017-09-28T16:41:57Z</time>
      </trkpt>
      <trkpt lat="47.53809" lon="6.7675">
        <ele>433.6</ele>
        <time>2017-09-28T16:41:58Z</time>
      </trkpt>
      <trkpt lat="47.5381" lon="6.76746">
        <ele>433.9</ele>
        <time>2017-09-28T16:41:59Z</time>
      </trkpt>
      <trkpt lat="47.53812" lon="6.7674">
        <ele>434.2</ele>
        <time>2017-09-28T16:42:01Z</time>
      </trkpt>
      <trkpt lat="47.53812" lon="6.76736">
        <ele>434.4</ele>
        <time>2017-09-28T16:42:02Z</time>
      </trkpt>
      <trkpt lat="47.53813" lon="6.76733">
        <ele>434.5</ele>
        <time>2017-09-28T16:42:03Z</time>
      </trkpt>
      <trkpt lat="47.53814" lon="6.7673">
        <ele>434.6</ele>
        <time>2017-09-28T16:42:04Z</time>
      </trkpt>
      <trkpt lat="47.53815" lon="6.76723">
        <ele>434.8</ele>
        <time>2017-09-28T16:42:06Z</time>
      </trkpt>
      <trkpt lat="47.53817" lon="6.76719">
        <ele>434.9</ele>
        <time>2017-09-28T16:42:07Z</time>
      </trkpt>
      <trkpt lat="47.53818" lon="6.76716">
        <ele>435</ele>
        <time>2017-09-28T16:42:08Z</time>
      </trkpt>
      <trkpt lat="47.53819" lon="6.76713">
        <ele>435</ele>
        <time>2017-09-28T16:42:09Z</time>
      </trkpt>
      <trkpt lat="47.53821" lon="6.76707">
        <ele>435.1</ele>
        <time>2017-09-28T16:42:11Z</time>
      </trkpt>
      <trkpt lat="47.53821" lon="6.76705">
        <ele>435.1</ele>
        <time>2017-09-28T16:42:12Z</time>
      </trkpt>
      <trkpt lat="47.53824" lon="6.767">
        <ele>435.2</ele>
        <time>2017-09-28T16:42:14Z</time>
      </trkpt>
      <trkpt lat="47.53826" lon="6.76696">
        <ele>435.2</ele>
        <time>2017-09-28T16:42:15Z</time>
      </trkpt>
      <trkpt lat="47.53828" lon="6.76692">
        <ele>435.3</ele>
        <time>2017-09-28T16:42:16Z</time>
      </trkpt>
      <trkpt lat="47.53829" lon="6.76688">
        <ele>435.3</ele>
        <time>2017-09-28T16:42:17Z</time>
      </trkpt>
      <trkpt lat="47.5383" lon="6.76685">
        <ele>435.4</ele>
        <time>2017-09-28T16:42:18Z</time>
      </trkpt>
      <trkpt lat="47.5383" lon="6.76682">
        <ele>435.4</ele>
        <time>2017-09-28T16:42:19Z</time>
      </trkpt>
      <trkpt lat="47.53832" lon="6.76679">
        <ele>435.4</ele>
        <time>2017-09-28T16:42:20Z</time>
      </trkpt>
      <trkpt lat="47.53833" lon="6.76676">
        <ele>435.4</ele>
        <time>2017-09-28T16:42:21Z</time>
      </trkpt>
      <trkpt lat="47.53835" lon="6.76673">
        <ele>435.5</ele>
        <time>2017-09-28T16:42:22Z</time>
      </trkpt>
      <trkpt lat="47.53837" lon="6.7667">
        <ele>435.5</ele>
        <time>2017-09-28T16:42:23Z</time>
      </trkpt>
      <trkpt lat="47.53838" lon="6.76666">
        <ele>435.5</ele>
        <time>2017-09-28T16:42:24Z</time>
      </trkpt>
      <trkpt lat="47.5384" lon="6.76663">
        <ele>435.5</ele>
        <time>2017-09-28T16:42:25Z</time>
      </trkpt>
      <trkpt lat="47.53843" lon="6.76659">
        <ele>435.6</ele>
        <time>2017-09-28T16:42:27Z</time>
      </trkpt>
      <trkpt lat="47.53845" lon="6.76656">
        <ele>435.6</ele>
        <time>2017-09-28T16:42:28Z</time>
      </trkpt>
      <trkpt lat="47.53847" lon="6.76654">
        <ele>435.6</ele>
        <time>2017-09-28T16:42:29Z</time>
      </trkpt>
      <trkpt lat="47.53849" lon="6.76651">
        <ele>435.6</ele>
        <time>2017-09-28T16:42:30Z</time>
      </trkpt>
      <trkpt lat="47.53851" lon="6.76649">
        <ele>435.6</ele>
        <time>2017-09-28T16:42:31Z</time>
      </trkpt>
      <trkpt lat="47.53853" lon="6.76646">
        <ele>435.6</ele>
        <time>2017-09-28T16:42:32Z</time>
      </trkpt>
      <trkpt lat="47.53856" lon="6.76644">
        <ele>435.6</ele>
        <time>2017-09-28T16:42:33Z</time>
      </trkpt>
      <trkpt lat="47.53858" lon="6.76641">
        <ele>435.6</ele>
        <time>2017-09-28T16:42:34Z</time>
      </trkpt>
      <trkpt lat="47.5386" lon="6.76639">
        <ele>435.6</ele>
        <time>2017-09-28T16:42:35Z</time>
      </trkpt>
      <trkpt lat="47.53862" lon="6.76637">
        <ele>435.6</ele>
        <time>2017-09-28T16:42:36Z</time>
      </trkpt>
      <trkpt lat="47.53864" lon="6.76634">
        <ele>435.5</ele>
        <time>2017-09-28T16:42:37Z</time>
      </trkpt>
      <trkpt lat="47.53865" lon="6.76632">
        <ele>435.5</ele>
        <time>2017-09-28T16:42:38Z</time>
      </trkpt>
      <trkpt lat="47.53868" lon="6.76629">
        <ele>435.5</ele>
        <time>2017-09-28T16:42:39Z</time>
      </trkpt>
      <trkpt lat="47.5387" lon="6.76626">
        <ele>435.5</ele>
        <time>2017-09-28T16:42:40Z</time>
      </trkpt>
      <trkpt lat="47.53872" lon="6.76621">
        <ele>435.4</ele>
        <time>2017-09-28T16:42:42Z</time>
      </trkpt>
      <trkpt lat="47.53875" lon="6.76617">
        <ele>435.3</ele>
        <time>2017-09-28T16:42:43Z</time>
      </trkpt>
      <trkpt lat="47.53876" lon="6.76613">
        <ele>435.1</ele>
        <time>2017-09-28T16:42:44Z</time>
      </trkpt>
      <trkpt lat="47.53877" lon="6.76609">
        <ele>435</ele>
        <time>2017-09-28T16:42:45Z</time>
      </trkpt>
      <trkpt lat="47.53878" lon="6.76606">
        <ele>434.9</ele>
        <time>2017-09-28T16:42:46Z</time>
      </trkpt>
      <trkpt lat="47.53879" lon="6.76602">
        <ele>434.9</ele>
        <time>2017-09-28T16:42:47Z</time>
      </trkpt>
      <trkpt lat="47.53881" lon="6.76599">
        <ele>434.8</ele>
        <time>2017-09-28T16:42:48Z</time>
      </trkpt>
      <trkpt lat="47.53882" lon="6.76596">
        <ele>434.8</ele>
        <time>2017-09-28T16:42:49Z</time>
      </trkpt>
      <trkpt lat="47.53883" lon="6.76592">
        <ele>434.8</ele>
        <time>2017-09-28T16:42:50Z</time>
      </trkpt>
      <trkpt lat="47.53886" lon="6.76589">
        <ele>434.8</ele>
        <time>2017-09-28T16:42:51Z</time>
      </trkpt>
      <trkpt lat="47.53888" lon="6.76586">
        <ele>434.8</ele>
        <time>2017-09-28T16:42:52Z</time>
      </trkpt>
      <trkpt lat="47.53891" lon="6.76586">
        <ele>434.8</ele>
        <time>2017-09-28T16:42:53Z</time>
      </trkpt>
      <trkpt lat="47.53894" lon="6.76585">
        <ele>434.8</ele>
        <time>2017-09-28T16:42:54Z</time>
      </trkpt>
      <trkpt lat="47.53895" lon="6.76583">
        <ele>434.8</ele>
        <time>2017-09-28T16:42:55Z</time>
      </trkpt>
      <trkpt lat="47.53899" lon="6.76581">
        <ele>434.8</ele>
        <time>2017-09-28T16:42:56Z</time>
      </trkpt>
      <trkpt lat="47.53902" lon="6.76578">
        <ele>434.8</ele>
        <time>2017-09-28T16:42:57Z</time>
      </trkpt>
      <trkpt lat="47.53904" lon="6.76574">
        <ele>434.8</ele>
        <time>2017-09-28T16:42:58Z</time>
      </trkpt>
      <trkpt lat="47.53906" lon="6.76571">
        <ele>434.8</ele>
        <time>2017-09-28T16:42:59Z</time>
      </trkpt>
      <trkpt lat="47.53908" lon="6.76568">
        <ele>434.8</ele>
        <time>2017-09-28T16:43:00Z</time>
      </trkpt>
      <trkpt lat="47.5391" lon="6.76564">
        <ele>434.9</ele>
        <time>2017-09-28T16:43:01Z</time>
      </trkpt>
      <trkpt lat="47.53912" lon="6.76561">
        <ele>434.9</ele>
        <time>2017-09-28T16:43:02Z</time>
      </trkpt>
      <trkpt lat="47.53913" lon="6.76558">
        <ele>434.9</ele>
        <time>2017-09-28T16:43:03Z</time>
      </trkpt>
      <trkpt lat="47.53915" lon="6.76553">
        <ele>435</ele>
        <time>2017-09-28T16:43:04Z</time>
      </trkpt>
      <trkpt lat="47.53917" lon="6.76551">
        <ele>435</ele>
        <time>2017-09-28T16:43:05Z</time>
      </trkpt>
      <trkpt lat="47.5392" lon="6.76548">
        <ele>435.1</ele>
        <time>2017-09-28T16:43:06Z</time>
      </trkpt>
      <trkpt lat="47.53922" lon="6.76546">
        <ele>435.1</ele>
        <time>2017-09-28T16:43:07Z</time>
      </trkpt>
      <trkpt lat="47.53923" lon="6.76543">
        <ele>435.1</ele>
        <time>2017-09-28T16:43:08Z</time>
      </trkpt>
      <trkpt lat="47.53925" lon="6.7654">
        <ele>435.2</ele>
        <time>2017-09-28T16:43:09Z</time>
      </trkpt>
      <trkpt lat="47.53927" lon="6.76537">
        <ele>435.2</ele>
        <time>2017-09-28T16:43:10Z</time>
      </trkpt>
      <trkpt lat="47.53928" lon="6.76534">
        <ele>435.2</ele>
        <time>2017-09-28T16:43:11Z</time>
      </trkpt>
      <trkpt lat="47.5393" lon="6.7653">
        <ele>435.3</ele>
        <time>2017-09-28T16:43:12Z</time>
      </trkpt>
      <trkpt lat="47.5393" lon="6.76527">
        <ele>435.3</ele>
        <time>2017-09-28T16:43:13Z</time>
      </trkpt>
      <trkpt lat="47.53934" lon="6.76524">
        <ele>435.3</ele>
        <time>2017-09-28T16:43:14Z</time>
      </trkpt>
      <trkpt lat="47.53936" lon="6.76522">
        <ele>435.3</ele>
        <time>2017-09-28T16:43:15Z</time>
      </trkpt>
      <trkpt lat="47.53937" lon="6.7652">
        <ele>435.4</ele>
        <time>2017-09-28T16:43:16Z</time>
      </trkpt>
      <trkpt lat="47.5394" lon="6.76517">
        <ele>435.4</ele>
        <time>2017-09-28T16:43:17Z</time>
      </trkpt>
      <trkpt lat="47.53941" lon="6.76513">
        <ele>435.4</ele>
        <time>2017-09-28T16:43:18Z</time>
      </trkpt>
      <trkpt lat="47.53943" lon="6.76509">
        <ele>435.4</ele>
        <time>2017-09-28T16:43:19Z</time>
      </trkpt>
      <trkpt lat="47.53945" lon="6.76506">
        <ele>435.5</ele>
        <time>2017-09-28T16:43:20Z</time>
      </trkpt>
      <trkpt lat="47.53947" lon="6.76503">
        <ele>435.5</ele>
        <time>2017-09-28T16:43:21Z</time>
      </trkpt>
      <trkpt lat="47.53948" lon="6.76499">
        <ele>435.6</ele>
        <time>2017-09-28T16:43:22Z</time>
      </trkpt>
      <trkpt lat="47.53951" lon="6.76495">
        <ele>435.6</ele>
        <time>2017-09-28T16:43:23Z</time>
      </trkpt>
      <trkpt lat="47.53953" lon="6.76491">
        <ele>435.6</ele>
        <time>2017-09-28T16:43:24Z</time>
      </trkpt>
      <trkpt lat="47.53955" lon="6.76487">
        <ele>435.7</ele>
        <time>2017-09-28T16:43:25Z</time>
      </trkpt>
      <trkpt lat="47.53957" lon="6.76483">
        <ele>435.7</ele>
        <time>2017-09-28T16:43:26Z</time>
      </trkpt>
      <trkpt lat="47.53959" lon="6.76479">
        <ele>435.7</ele>
        <time>2017-09-28T16:43:27Z</time>
      </trkpt>
      <trkpt lat="47.53961" lon="6.76476">
        <ele>435.7</ele>
        <time>2017-09-28T16:43:28Z</time>
      </trkpt>
      <trkpt lat="47.53963" lon="6.76473">
        <ele>435.8</ele>
        <time>2017-09-28T16:43:29Z</time>
      </trkpt>
      <trkpt lat="47.53964" lon="6.76468">
        <ele>435.8</ele>
        <time>2017-09-28T16:43:31Z</time>
      </trkpt>
      <trkpt lat="47.53965" lon="6.76465">
        <ele>435.8</ele>
        <time>2017-09-28T16:43:32Z</time>
      </trkpt>
      <trkpt lat="47.53966" lon="6.76461">
        <ele>435.9</ele>
        <time>2017-09-28T16:43:33Z</time>
      </trkpt>
      <trkpt lat="47.53968" lon="6.76457">
        <ele>435.9</ele>
        <time>2017-09-28T16:43:34Z</time>
      </trkpt>
      <trkpt lat="47.53969" lon="6.76454">
        <ele>435.9</ele>
        <time>2017-09-28T16:43:35Z</time>
      </trkpt>
      <trkpt lat="47.53971" lon="6.76451">
        <ele>435.9</ele>
        <time>2017-09-28T16:43:36Z</time>
      </trkpt>
      <trkpt lat="47.53973" lon="6.76448">
        <ele>436</ele>
        <time>2017-09-28T16:43:37Z</time>
      </trkpt>
      <trkpt lat="47.53975" lon="6.76445">
        <ele>436</ele>
        <time>2017-09-28T16:43:38Z</time>
      </trkpt>
      <trkpt lat="47.53978" lon="6.76441">
        <ele>436</ele>
        <time>2017-09-28T16:43:39Z</time>
      </trkpt>
      <trkpt lat="47.5398" lon="6.76438">
        <ele>436.1</ele>
        <time>2017-09-28T16:43:40Z</time>
      </trkpt>
      <trkpt lat="47.53982" lon="6.76435">
        <ele>436.1</ele>
        <time>2017-09-28T16:43:41Z</time>
      </trkpt>
      <trkpt lat="47.53983" lon="6.76431">
        <ele>436.1</ele>
        <time>2017-09-28T16:43:42Z</time>
      </trkpt>
      <trkpt lat="47.53985" lon="6.76427">
        <ele>436.2</ele>
        <time>2017-09-28T16:43:43Z</time>
      </trkpt>
      <trkpt lat="47.53987" lon="6.76424">
        <ele>436.2</ele>
        <time>2017-09-28T16:43:44Z</time>
      </trkpt>
      <trkpt lat="47.53989" lon="6.76421">
        <ele>436.3</ele>
        <time>2017-09-28T16:43:45Z</time>
      </trkpt>
      <trkpt lat="47.53991" lon="6.76418">
        <ele>436.3</ele>
        <time>2017-09-28T16:43:46Z</time>
      </trkpt>
      <trkpt lat="47.53993" lon="6.76415">
        <ele>436.4</ele>
        <time>2017-09-28T16:43:47Z</time>
      </trkpt>
      <trkpt lat="47.53995" lon="6.76411">
        <ele>436.4</ele>
        <time>2017-09-28T16:43:48Z</time>
      </trkpt>
      <trkpt lat="47.53998" lon="6.76408">
        <ele>436.4</ele>
        <time>2017-09-28T16:43:49Z</time>
      </trkpt>
      <trkpt lat="47.53999" lon="6.76404">
        <ele>436.5</ele>
        <time>2017-09-28T16:43:50Z</time>
      </trkpt>
      <trkpt lat="47.54001" lon="6.76401">
        <ele>436.5</ele>
        <time>2017-09-28T16:43:51Z</time>
      </trkpt>
      <trkpt lat="47.54003" lon="6.76398">
        <ele>436.5</ele>
        <time>2017-09-28T16:43:52Z</time>
      </trkpt>
      <trkpt lat="47.54005" lon="6.76392">
        <ele>436.6</ele>
        <time>2017-09-28T16:43:54Z</time>
      </trkpt>
      <trkpt lat="47.54006" lon="6.76389">
        <ele>436.6</ele>
        <time>2017-09-28T16:43:55Z</time>
      </trkpt>
      <trkpt lat="47.54007" lon="6.76386">
        <ele>436.6</ele>
        <time>2017-09-28T16:43:56Z</time>
      </trkpt>
      <trkpt lat="47.54009" lon="6.76382">
        <ele>436.6</ele>
        <time>2017-09-28T16:43:57Z</time>
      </trkpt>
      <trkpt lat="47.54011" lon="6.76379">
        <ele>436.6</ele>
        <time>2017-09-28T16:43:58Z</time>
      </trkpt>
      <trkpt lat="47.54014" lon="6.76376">
        <ele>436.6</ele>
        <time>2017-09-28T16:43:59Z</time>
      </trkpt>
      <trkpt lat="47.54017" lon="6.76373">
        <ele>436.7</ele>
        <time>2017-09-28T16:44:00Z</time>
      </trkpt>
      <trkpt lat="47.5402" lon="6.76371">
        <ele>436.7</ele>
        <time>2017-09-28T16:44:01Z</time>
      </trkpt>
      <trkpt lat="47.54023" lon="6.76368">
        <ele>436.7</ele>
        <time>2017-09-28T16:44:02Z</time>
      </trkpt>
      <trkpt lat="47.54024" lon="6.76365">
        <ele>436.6</ele>
        <time>2017-09-28T16:44:03Z</time>
      </trkpt>
      <trkpt lat="47.54025" lon="6.76362">
        <ele>436.6</ele>
        <time>2017-09-28T16:44:04Z</time>
      </trkpt>
      <trkpt lat="47.54027" lon="6.76358">
        <ele>436.6</ele>
        <time>2017-09-28T16:44:05Z</time>
      </trkpt>
      <trkpt lat="47.54028" lon="6.76353">
        <ele>436.5</ele>
        <time>2017-09-28T16:44:06Z</time>
      </trkpt>
      <trkpt lat="47.5403" lon="6.76349">
        <ele>436.4</ele>
        <time>2017-09-28T16:44:07Z</time>
      </trkpt>
      <trkpt lat="47.54031" lon="6.76345">
        <ele>436.2</ele>
        <time>2017-09-28T16:44:08Z</time>
      </trkpt>
      <trkpt lat="47.54032" lon="6.76341">
        <ele>436.2</ele>
        <time>2017-09-28T16:44:09Z</time>
      </trkpt>
      <trkpt lat="47.54033" lon="6.76337">
        <ele>436.2</ele>
        <time>2017-09-28T16:44:10Z</time>
      </trkpt>
      <trkpt lat="47.54033" lon="6.76335">
        <ele>436.2</ele>
        <time>2017-09-28T16:44:11Z</time>
      </trkpt>
      <trkpt lat="47.54034" lon="6.76331">
        <ele>436.1</ele>
        <time>2017-09-28T16:44:12Z</time>
      </trkpt>
      <trkpt lat="47.54036" lon="6.76329">
        <ele>436.1</ele>
        <time>2017-09-28T16:44:13Z</time>
      </trkpt>
      <trkpt lat="47.54038" lon="6.76326">
        <ele>436.2</ele>
        <time>2017-09-28T16:44:14Z</time>
      </trkpt>
      <trkpt lat="47.5404" lon="6.76323">
        <ele>436.2</ele>
        <time>2017-09-28T16:44:15Z</time>
      </trkpt>
      <trkpt lat="47.54041" lon="6.76319">
        <ele>436.2</ele>
        <time>2017-09-28T16:44:16Z</time>
      </trkpt>
      <trkpt lat="47.54043" lon="6.76315">
        <ele>436.3</ele>
        <time>2017-09-28T16:44:17Z</time>
      </trkpt>
      <trkpt lat="47.54044" lon="6.76312">
        <ele>436.3</ele>
        <time>2017-09-28T16:44:18Z</time>
      </trkpt>
      <trkpt lat="47.54045" lon="6.76308">
        <ele>436.3</ele>
        <time>2017-09-28T16:44:19Z</time>
      </trkpt>
      <trkpt lat="47.54046" lon="6.76305">
        <ele>436.3</ele>
        <time>2017-09-28T16:44:20Z</time>
      </trkpt>
      <trkpt lat="47.54047" lon="6.76301">
        <ele>436.4</ele>
        <time>2017-09-28T16:44:21Z</time>
      </trkpt>
      <trkpt lat="47.54049" lon="6.76297">
        <ele>436.4</ele>
        <time>2017-09-28T16:44:22Z</time>
      </trkpt>
      <trkpt lat="47.54049" lon="6.76295">
        <ele>436.4</ele>
        <time>2017-09-28T16:44:23Z</time>
      </trkpt>
      <trkpt lat="47.54051" lon="6.7629">
        <ele>436.4</ele>
        <time>2017-09-28T16:44:25Z</time>
      </trkpt>
      <trkpt lat="47.54051" lon="6.76287">
        <ele>436.4</ele>
        <time>2017-09-28T16:44:26Z</time>
      </trkpt>
      <trkpt lat="47.54052" lon="6.76283">
        <ele>436.5</ele>
        <time>2017-09-28T16:44:27Z</time>
      </trkpt>
      <trkpt lat="47.54053" lon="6.76279">
        <ele>436.5</ele>
        <time>2017-09-28T16:44:28Z</time>
      </trkpt>
      <trkpt lat="47.54054" lon="6.76274">
        <ele>436.5</ele>
        <time>2017-09-28T16:44:29Z</time>
      </trkpt>
      <trkpt lat="47.54055" lon="6.76271">
        <ele>436.5</ele>
        <time>2017-09-28T16:44:30Z</time>
      </trkpt>
      <trkpt lat="47.54056" lon="6.76267">
        <ele>436.6</ele>
        <time>2017-09-28T16:44:31Z</time>
      </trkpt>
      <trkpt lat="47.54057" lon="6.76263">
        <ele>436.6</ele>
        <time>2017-09-28T16:44:32Z</time>
      </trkpt>
      <trkpt lat="47.54058" lon="6.76258">
        <ele>436.6</ele>
        <time>2017-09-28T16:44:33Z</time>
      </trkpt>
      <trkpt lat="47.54058" lon="6.76254">
        <ele>436.6</ele>
        <time>2017-09-28T16:44:34Z</time>
      </trkpt>
      <trkpt lat="47.54059" lon="6.7625">
        <ele>436.6</ele>
        <time>2017-09-28T16:44:35Z</time>
      </trkpt>
      <trkpt lat="47.5406" lon="6.76245">
        <ele>436.7</ele>
        <time>2017-09-28T16:44:36Z</time>
      </trkpt>
      <trkpt lat="47.54062" lon="6.76241">
        <ele>436.7</ele>
        <time>2017-09-28T16:44:37Z</time>
      </trkpt>
      <trkpt lat="47.54063" lon="6.76238">
        <ele>436.7</ele>
        <time>2017-09-28T16:44:38Z</time>
      </trkpt>
      <trkpt lat="47.54065" lon="6.76233">
        <ele>436.8</ele>
        <time>2017-09-28T16:44:39Z</time>
      </trkpt>
      <trkpt lat="47.54067" lon="6.7623">
        <ele>436.8</ele>
        <time>2017-09-28T16:44:40Z</time>
      </trkpt>
      <trkpt lat="47.54069" lon="6.76226">
        <ele>436.8</ele>
        <time>2017-09-28T16:44:41Z</time>
      </trkpt>
      <trkpt lat="47.5407" lon="6.76222">
        <ele>436.8</ele>
        <time>2017-09-28T16:44:42Z</time>
      </trkpt>
      <trkpt lat="47.54071" lon="6.76218">
        <ele>436.9</ele>
        <time>2017-09-28T16:44:43Z</time>
      </trkpt>
      <trkpt lat="47.54071" lon="6.76214">
        <ele>436.9</ele>
        <time>2017-09-28T16:44:44Z</time>
      </trkpt>
      <trkpt lat="47.54071" lon="6.76209">
        <ele>436.9</ele>
        <time>2017-09-28T16:44:45Z</time>
      </trkpt>
      <trkpt lat="47.54071" lon="6.76205">
        <ele>436.9</ele>
        <time>2017-09-28T16:44:46Z</time>
      </trkpt>
      <trkpt lat="47.54072" lon="6.76202">
        <ele>436.9</ele>
        <time>2017-09-28T16:44:47Z</time>
      </trkpt>
      <trkpt lat="47.54073" lon="6.76198">
        <ele>437</ele>
        <time>2017-09-28T16:44:48Z</time>
      </trkpt>
      <trkpt lat="47.54075" lon="6.76193">
        <ele>437</ele>
        <time>2017-09-28T16:44:50Z</time>
      </trkpt>
      <trkpt lat="47.54076" lon="6.76189">
        <ele>437</ele>
        <time>2017-09-28T16:44:51Z</time>
      </trkpt>
      <trkpt lat="47.54077" lon="6.76186">
        <ele>437</ele>
        <time>2017-09-28T16:44:52Z</time>
      </trkpt>
      <trkpt lat="47.54078" lon="6.76182">
        <ele>437.1</ele>
        <time>2017-09-28T16:44:53Z</time>
      </trkpt>
      <trkpt lat="47.54079" lon="6.76178">
        <ele>437.1</ele>
        <time>2017-09-28T16:44:54Z</time>
      </trkpt>
      <trkpt lat="47.5408" lon="6.76175">
        <ele>437.1</ele>
        <time>2017-09-28T16:44:55Z</time>
      </trkpt>
      <trkpt lat="47.54081" lon="6.76172">
        <ele>437.1</ele>
        <time>2017-09-28T16:44:56Z</time>
      </trkpt>
      <trkpt lat="47.54082" lon="6.76168">
        <ele>437.1</ele>
        <time>2017-09-28T16:44:57Z</time>
      </trkpt>
      <trkpt lat="47.54083" lon="6.76164">
        <ele>437.2</ele>
        <time>2017-09-28T16:44:58Z</time>
      </trkpt>
      <trkpt lat="47.54084" lon="6.7616">
        <ele>437.2</ele>
        <time>2017-09-28T16:44:59Z</time>
      </trkpt>
      <trkpt lat="47.54085" lon="6.76154">
        <ele>437.2</ele>
        <time>2017-09-28T16:45:01Z</time>
      </trkpt>
      <trkpt lat="47.54086" lon="6.76152">
        <ele>437.2</ele>
        <time>2017-09-28T16:45:02Z</time>
      </trkpt>
      <trkpt lat="47.54087" lon="6.76147">
        <ele>437.3</ele>
        <time>2017-09-28T16:45:03Z</time>
      </trkpt>
      <trkpt lat="47.54088" lon="6.76143">
        <ele>437.3</ele>
        <time>2017-09-28T16:45:04Z</time>
      </trkpt>
      <trkpt lat="47.54088" lon="6.76137">
        <ele>437.3</ele>
        <time>2017-09-28T16:45:05Z</time>
      </trkpt>
      <trkpt lat="47.54088" lon="6.76135">
        <ele>437.3</ele>
        <time>2017-09-28T16:45:06Z</time>
      </trkpt>
      <trkpt lat="47.54089" lon="6.7613">
        <ele>437.4</ele>
        <time>2017-09-28T16:45:07Z</time>
      </trkpt>
      <trkpt lat="47.54089" lon="6.76126">
        <ele>437.4</ele>
        <time>2017-09-28T16:45:08Z</time>
      </trkpt>
      <trkpt lat="47.54091" lon="6.76122">
        <ele>437.4</ele>
        <time>2017-09-28T16:45:09Z</time>
      </trkpt>
      <trkpt lat="47.54091" lon="6.76117">
        <ele>437.4</ele>
        <time>2017-09-28T16:45:10Z</time>
      </trkpt>
      <trkpt lat="47.54091" lon="6.76112">
        <ele>437.5</ele>
        <time>2017-09-28T16:45:11Z</time>
      </trkpt>
      <trkpt lat="47.54092" lon="6.76107">
        <ele>437.5</ele>
        <time>2017-09-28T16:45:12Z</time>
      </trkpt>
      <trkpt lat="47.54092" lon="6.76103">
        <ele>437.5</ele>
        <time>2017-09-28T16:45:13Z</time>
      </trkpt>
      <trkpt lat="47.54092" lon="6.761">
        <ele>437.5</ele>
        <time>2017-09-28T16:45:14Z</time>
      </trkpt>
      <trkpt lat="47.54091" lon="6.76096">
        <ele>437.6</ele>
        <time>2017-09-28T16:45:16Z</time>
      </trkpt>
      <trkpt lat="47.5409" lon="6.76093">
        <ele>437.6</ele>
        <time>2017-09-28T16:45:17Z</time>
      </trkpt>
      <trkpt lat="47.5409" lon="6.76087">
        <ele>437.6</ele>
        <time>2017-09-28T16:45:19Z</time>
      </trkpt>
      <trkpt lat="47.54089" lon="6.76084">
        <ele>437.6</ele>
        <time>2017-09-28T16:45:20Z</time>
      </trkpt>
      <trkpt lat="47.54087" lon="6.76081">
        <ele>437.7</ele>
        <time>2017-09-28T16:45:21Z</time>
      </trkpt>
      <trkpt lat="47.54085" lon="6.7608">
        <ele>438</ele>
        <time>2017-09-28T16:45:22Z</time>
      </trkpt>
      <trkpt lat="47.54083" lon="6.76083">
        <ele>438</ele>
        <time>2017-09-28T16:45:26Z</time>
      </trkpt>
      <trkpt lat="47.54082" lon="6.76085">
        <ele>437.9</ele>
        <time>2017-09-28T16:45:27Z</time>
      </trkpt>
      <trkpt lat="47.54079" lon="6.76086">
        <ele>437.7</ele>
        <time>2017-09-28T16:45:29Z</time>
      </trkpt>
      <trkpt lat="47.54077" lon="6.76086">
        <ele>437.6</ele>
        <time>2017-09-28T16:45:30Z</time>
      </trkpt>
      <trkpt lat="47.54074" lon="6.76088">
        <ele>437.4</ele>
        <time>2017-09-28T16:45:32Z</time>
      </trkpt>
      <trkpt lat="47.54073" lon="6.76088">
        <ele>437.3</ele>
        <time>2017-09-28T16:45:33Z</time>
      </trkpt>
      <trkpt lat="47.5407" lon="6.76088">
        <ele>437.1</ele>
        <time>2017-09-28T16:45:34Z</time>
      </trkpt>
      <trkpt lat="47.54068" lon="6.76087">
        <ele>437</ele>
        <time>2017-09-28T16:45:35Z</time>
      </trkpt>
      <trkpt lat="47.54065" lon="6.76087">
        <ele>436.8</ele>
        <time>2017-09-28T16:45:36Z</time>
      </trkpt>
      <trkpt lat="47.54063" lon="6.76086">
        <ele>436.6</ele>
        <time>2017-09-28T16:45:37Z</time>
      </trkpt>
      <trkpt lat="47.5406" lon="6.76086">
        <ele>436.4</ele>
        <time>2017-09-28T16:45:38Z</time>
      </trkpt>
      <trkpt lat="47.54058" lon="6.76085">
        <ele>436.3</ele>
        <time>2017-09-28T16:45:39Z</time>
      </trkpt>
      <trkpt lat="47.54055" lon="6.76085">
        <ele>436.1</ele>
        <time>2017-09-28T16:45:40Z</time>
      </trkpt>
      <trkpt lat="47.54052" lon="6.76083">
        <ele>435.9</ele>
        <time>2017-09-28T16:45:41Z</time>
      </trkpt>
      <trkpt lat="47.54049" lon="6.76082">
        <ele>435.9</ele>
        <time>2017-09-28T16:45:42Z</time>
      </trkpt>
      <trkpt lat="47.54046" lon="6.76081">
        <ele>435.8</ele>
        <time>2017-09-28T16:45:43Z</time>
      </trkpt>
      <trkpt lat="47.54043" lon="6.76081">
        <ele>435.7</ele>
        <time>2017-09-28T16:45:44Z</time>
      </trkpt>
      <trkpt lat="47.5404" lon="6.7608">
        <ele>435.7</ele>
        <time>2017-09-28T16:45:45Z</time>
      </trkpt>
      <trkpt lat="47.54036" lon="6.7608">
        <ele>435.6</ele>
        <time>2017-09-28T16:45:47Z</time>
      </trkpt>
      <trkpt lat="47.54035" lon="6.7608">
        <ele>435.7</ele>
        <time>2017-09-28T16:45:48Z</time>
      </trkpt>
      <trkpt lat="47.54031" lon="6.76078">
        <ele>435.6</ele>
        <time>2017-09-28T16:45:51Z</time>
      </trkpt>
      <trkpt lat="47.5403" lon="6.76077">
        <ele>435.7</ele>
        <time>2017-09-28T16:45:52Z</time>
      </trkpt>
      <trkpt lat="47.54026" lon="6.76076">
        <ele>435.5</ele>
        <time>2017-09-28T16:45:56Z</time>
      </trkpt>
      <trkpt lat="47.54024" lon="6.76075">
        <ele>435.5</ele>
        <time>2017-09-28T16:45:57Z</time>
      </trkpt>
      <trkpt lat="47.54019" lon="6.76074">
        <ele>435.4</ele>
        <time>2017-09-28T16:46:06Z</time>
      </trkpt>
      <trkpt lat="47.54019" lon="6.76074">
        <ele>435.4</ele>
        <time>2017-09-28T16:46:07Z</time>
      </trkpt>
      <trkpt lat="47.54015" lon="6.76075">
        <ele>435.3</ele>
        <time>2017-09-28T16:46:38Z</time>
      </trkpt>
      <trkpt lat="47.54014" lon="6.76074">
        <ele>435.1</ele>
        <time>2017-09-28T16:46:39Z</time>
      </trkpt>
      <trkpt lat="47.54012" lon="6.76069">
        <ele>434.9</ele>
        <time>2017-09-28T16:46:48Z</time>
      </trkpt>
      <trkpt lat="47.54011" lon="6.76068">
        <ele>434.9</ele>
        <time>2017-09-28T16:46:49Z</time>
      </trkpt>
      <trkpt lat="47.54007" lon="6.76066">
        <ele>434.7</ele>
        <time>2017-09-28T16:46:54Z</time>
      </trkpt>
      <trkpt lat="47.54006" lon="6.76066">
        <ele>434.5</ele>
        <time>2017-09-28T16:46:55Z</time>
      </trkpt>
      <trkpt lat="47.54002" lon="6.76063">
        <ele>434.2</ele>
        <time>2017-09-28T16:46:57Z</time>
      </trkpt>
      <trkpt lat="47.53999" lon="6.7606">
        <ele>433.9</ele>
        <time>2017-09-28T16:46:58Z</time>
      </trkpt>
      <trkpt lat="47.53996" lon="6.76059">
        <ele>433.6</ele>
        <time>2017-09-28T16:46:59Z</time>
      </trkpt>
      <trkpt lat="47.53994" lon="6.76058">
        <ele>433.2</ele>
        <time>2017-09-28T16:47:00Z</time>
      </trkpt>
      <trkpt lat="47.53991" lon="6.76057">
        <ele>432.9</ele>
        <time>2017-09-28T16:47:01Z</time>
      </trkpt>
      <trkpt lat="47.53989" lon="6.76057">
        <ele>432.4</ele>
        <time>2017-09-28T16:47:02Z</time>
      </trkpt>
      <trkpt lat="47.53986" lon="6.76056">
        <ele>432.5</ele>
        <time>2017-09-28T16:47:03Z</time>
      </trkpt>
      <trkpt lat="47.53983" lon="6.76055">
        <ele>431.6</ele>
        <time>2017-09-28T16:47:04Z</time>
      </trkpt>
      <trkpt lat="47.53981" lon="6.76054">
        <ele>431.6</ele>
        <time>2017-09-28T16:47:05Z</time>
      </trkpt>
      <trkpt lat="47.53978" lon="6.76054">
        <ele>431.2</ele>
        <time>2017-09-28T16:47:06Z</time>
      </trkpt>
      <trkpt lat="47.53975" lon="6.76051">
        <ele>430.8</ele>
        <time>2017-09-28T16:47:08Z</time>
      </trkpt>
      <trkpt lat="47.53974" lon="6.7605">
        <ele>430.4</ele>
        <time>2017-09-28T16:47:09Z</time>
      </trkpt>
      <trkpt lat="47.53972" lon="6.76048">
        <ele>430.5</ele>
        <time>2017-09-28T16:47:10Z</time>
      </trkpt>
      <trkpt lat="47.53968" lon="6.76048">
        <ele>429.8</ele>
        <time>2017-09-28T16:47:11Z</time>
      </trkpt>
      <trkpt lat="47.53965" lon="6.76046">
        <ele>429.5</ele>
        <time>2017-09-28T16:47:12Z</time>
      </trkpt>
      <trkpt lat="47.53962" lon="6.76045">
        <ele>429.3</ele>
        <time>2017-09-28T16:47:13Z</time>
      </trkpt>
      <trkpt lat="47.53959" lon="6.76044">
        <ele>429</ele>
        <time>2017-09-28T16:47:15Z</time>
      </trkpt>
      <trkpt lat="47.53956" lon="6.76044">
        <ele>428.7</ele>
        <time>2017-09-28T16:47:16Z</time>
      </trkpt>
      <trkpt lat="47.53954" lon="6.76043">
        <ele>428.5</ele>
        <time>2017-09-28T16:47:17Z</time>
      </trkpt>
      <trkpt lat="47.53951" lon="6.76042">
        <ele>428.2</ele>
        <time>2017-09-28T16:47:18Z</time>
      </trkpt>
      <trkpt lat="47.53948" lon="6.76042">
        <ele>428.1</ele>
        <time>2017-09-28T16:47:19Z</time>
      </trkpt>
      <trkpt lat="47.53945" lon="6.7604">
        <ele>428.1</ele>
        <time>2017-09-28T16:47:20Z</time>
      </trkpt>
      <trkpt lat="47.53942" lon="6.7604">
        <ele>428</ele>
        <time>2017-09-28T16:47:21Z</time>
      </trkpt>
      <trkpt lat="47.53939" lon="6.76038">
        <ele>427.8</ele>
        <time>2017-09-28T16:47:22Z</time>
      </trkpt>
      <trkpt lat="47.53936" lon="6.76037">
        <ele>427.8</ele>
        <time>2017-09-28T16:47:23Z</time>
      </trkpt>
      <trkpt lat="47.53933" lon="6.76036">
        <ele>427.5</ele>
        <time>2017-09-28T16:47:24Z</time>
      </trkpt>
      <trkpt lat="47.5393" lon="6.76035">
        <ele>427.2</ele>
        <time>2017-09-28T16:47:25Z</time>
      </trkpt>
      <trkpt lat="47.53927" lon="6.76035">
        <ele>426.9</ele>
        <time>2017-09-28T16:47:26Z</time>
      </trkpt>
      <trkpt lat="47.53924" lon="6.76033">
        <ele>426.6</ele>
        <time>2017-09-28T16:47:27Z</time>
      </trkpt>
      <trkpt lat="47.53922" lon="6.76033">
        <ele>426.3</ele>
        <time>2017-09-28T16:47:28Z</time>
      </trkpt>
      <trkpt lat="47.53919" lon="6.76032">
        <ele>426.2</ele>
        <time>2017-09-28T16:47:29Z</time>
      </trkpt>
      <trkpt lat="47.53916" lon="6.76031">
        <ele>425.9</ele>
        <time>2017-09-28T16:47:30Z</time>
      </trkpt>
      <trkpt lat="47.53913" lon="6.7603">
        <ele>425.5</ele>
        <time>2017-09-28T16:47:31Z</time>
      </trkpt>
      <trkpt lat="47.5391" lon="6.76028">
        <ele>425.3</ele>
        <time>2017-09-28T16:47:32Z</time>
      </trkpt>
      <trkpt lat="47.53907" lon="6.76026">
        <ele>424.9</ele>
        <time>2017-09-28T16:47:33Z</time>
      </trkpt>
      <trkpt lat="47.53904" lon="6.76024">
        <ele>424.5</ele>
        <time>2017-09-28T16:47:34Z</time>
      </trkpt>
      <trkpt lat="47.53902" lon="6.76023">
        <ele>424.1</ele>
        <time>2017-09-28T16:47:35Z</time>
      </trkpt>
      <trkpt lat="47.53897" lon="6.76021">
        <ele>423.7</ele>
        <time>2017-09-28T16:47:36Z</time>
      </trkpt>
      <trkpt lat="47.53894" lon="6.76019">
        <ele>423.4</ele>
        <time>2017-09-28T16:47:37Z</time>
      </trkpt>
      <trkpt lat="47.53891" lon="6.76018">
        <ele>423.1</ele>
        <time>2017-09-28T16:47:38Z</time>
      </trkpt>
      <trkpt lat="47.53888" lon="6.76016">
        <ele>422.8</ele>
        <time>2017-09-28T16:47:39Z</time>
      </trkpt>
      <trkpt lat="47.53885" lon="6.76015">
        <ele>422.2</ele>
        <time>2017-09-28T16:47:40Z</time>
      </trkpt>
      <trkpt lat="47.53882" lon="6.76013">
        <ele>421.9</ele>
        <time>2017-09-28T16:47:41Z</time>
      </trkpt>
      <trkpt lat="47.53879" lon="6.76012">
        <ele>421.6</ele>
        <time>2017-09-28T16:47:42Z</time>
      </trkpt>
      <trkpt lat="47.53877" lon="6.76012">
        <ele>421.6</ele>
        <time>2017-09-28T16:47:43Z</time>
      </trkpt>
      <trkpt lat="47.53874" lon="6.76011">
        <ele>421.3</ele>
        <time>2017-09-28T16:47:44Z</time>
      </trkpt>
      <trkpt lat="47.5387" lon="6.7601">
        <ele>421.1</ele>
        <time>2017-09-28T16:47:46Z</time>
      </trkpt>
      <trkpt lat="47.53868" lon="6.76009">
        <ele>420.9</ele>
        <time>2017-09-28T16:47:47Z</time>
      </trkpt>
      <trkpt lat="47.53865" lon="6.76008">
        <ele>420.7</ele>
        <time>2017-09-28T16:47:48Z</time>
      </trkpt>
      <trkpt lat="47.53863" lon="6.76007">
        <ele>420.5</ele>
        <time>2017-09-28T16:47:49Z</time>
      </trkpt>
      <trkpt lat="47.53861" lon="6.76007">
        <ele>420.4</ele>
        <time>2017-09-28T16:47:50Z</time>
      </trkpt>
      <trkpt lat="47.53858" lon="6.76005">
        <ele>420.5</ele>
        <time>2017-09-28T16:47:51Z</time>
      </trkpt>
      <trkpt lat="47.53855" lon="6.76004">
        <ele>420.3</ele>
        <time>2017-09-28T16:47:52Z</time>
      </trkpt>
      <trkpt lat="47.53853" lon="6.76003">
        <ele>420.4</ele>
        <time>2017-09-28T16:47:53Z</time>
      </trkpt>
      <trkpt lat="47.5385" lon="6.76002">
        <ele>420.4</ele>
        <time>2017-09-28T16:47:54Z</time>
      </trkpt>
      <trkpt lat="47.53847" lon="6.76">
        <ele>420.1</ele>
        <time>2017-09-28T16:47:55Z</time>
      </trkpt>
      <trkpt lat="47.53843" lon="6.75999">
        <ele>419.9</ele>
        <time>2017-09-28T16:47:56Z</time>
      </trkpt>
      <trkpt lat="47.5384" lon="6.75997">
        <ele>419.8</ele>
        <time>2017-09-28T16:47:57Z</time>
      </trkpt>
      <trkpt lat="47.53838" lon="6.75996">
        <ele>419.6</ele>
        <time>2017-09-28T16:47:58Z</time>
      </trkpt>
      <trkpt lat="47.53835" lon="6.75995">
        <ele>419.4</ele>
        <time>2017-09-28T16:47:59Z</time>
      </trkpt>
      <trkpt lat="47.53833" lon="6.75993">
        <ele>419.6</ele>
        <time>2017-09-28T16:48:00Z</time>
      </trkpt>
      <trkpt lat="47.5383" lon="6.75993">
        <ele>419.4</ele>
        <time>2017-09-28T16:48:01Z</time>
      </trkpt>
      <trkpt lat="47.53828" lon="6.75992">
        <ele>419.1</ele>
        <time>2017-09-28T16:48:02Z</time>
      </trkpt>
      <trkpt lat="47.53825" lon="6.75991">
        <ele>418.7</ele>
        <time>2017-09-28T16:48:03Z</time>
      </trkpt>
      <trkpt lat="47.53823" lon="6.7599">
        <ele>418.3</ele>
        <time>2017-09-28T16:48:04Z</time>
      </trkpt>
      <trkpt lat="47.5382" lon="6.75989">
        <ele>418.2</ele>
        <time>2017-09-28T16:48:05Z</time>
      </trkpt>
      <trkpt lat="47.53817" lon="6.75988">
        <ele>417.8</ele>
        <time>2017-09-28T16:48:06Z</time>
      </trkpt>
      <trkpt lat="47.53813" lon="6.75986">
        <ele>417.4</ele>
        <time>2017-09-28T16:48:07Z</time>
      </trkpt>
      <trkpt lat="47.53809" lon="6.75986">
        <ele>417</ele>
        <time>2017-09-28T16:48:08Z</time>
      </trkpt>
      <trkpt lat="47.53806" lon="6.75984">
        <ele>416.7</ele>
        <time>2017-09-28T16:48:09Z</time>
      </trkpt>
      <trkpt lat="47.53803" lon="6.75982">
        <ele>416.4</ele>
        <time>2017-09-28T16:48:10Z</time>
      </trkpt>
      <trkpt lat="47.538" lon="6.7598">
        <ele>416.4</ele>
        <time>2017-09-28T16:48:11Z</time>
      </trkpt>
      <trkpt lat="47.53798" lon="6.75979">
        <ele>416.1</ele>
        <time>2017-09-28T16:48:12Z</time>
      </trkpt>
      <trkpt lat="47.53795" lon="6.75978">
        <ele>416.1</ele>
        <time>2017-09-28T16:48:13Z</time>
      </trkpt>
      <trkpt lat="47.53792" lon="6.75977">
        <ele>415.3</ele>
        <time>2017-09-28T16:48:14Z</time>
      </trkpt>
      <trkpt lat="47.53788" lon="6.75976">
        <ele>415.2</ele>
        <time>2017-09-28T16:48:15Z</time>
      </trkpt>
      <trkpt lat="47.53785" lon="6.75975">
        <ele>414.8</ele>
        <time>2017-09-28T16:48:16Z</time>
      </trkpt>
      <trkpt lat="47.5378" lon="6.75972">
        <ele>414.1</ele>
        <time>2017-09-28T16:48:17Z</time>
      </trkpt>
      <trkpt lat="47.53776" lon="6.7597">
        <ele>413.8</ele>
        <time>2017-09-28T16:48:18Z</time>
      </trkpt>
      <trkpt lat="47.53773" lon="6.75967">
        <ele>413.6</ele>
        <time>2017-09-28T16:48:19Z</time>
      </trkpt>
      <trkpt lat="47.5377" lon="6.75967">
        <ele>413.3</ele>
        <time>2017-09-28T16:48:20Z</time>
      </trkpt>
      <trkpt lat="47.53766" lon="6.75965">
        <ele>412.9</ele>
        <time>2017-09-28T16:48:21Z</time>
      </trkpt>
      <trkpt lat="47.53763" lon="6.75963">
        <ele>412.8</ele>
        <time>2017-09-28T16:48:22Z</time>
      </trkpt>
      <trkpt lat="47.53761" lon="6.75962">
        <ele>412.5</ele>
        <time>2017-09-28T16:48:23Z</time>
      </trkpt>
      <trkpt lat="47.53757" lon="6.75961">
        <ele>412.2</ele>
        <time>2017-09-28T16:48:25Z</time>
      </trkpt>
      <trkpt lat="47.53756" lon="6.75961">
        <ele>412</ele>
        <time>2017-09-28T16:48:26Z</time>
      </trkpt>
      <trkpt lat="47.53753" lon="6.75961">
        <ele>411.8</ele>
        <time>2017-09-28T16:48:27Z</time>
      </trkpt>
      <trkpt lat="47.5375" lon="6.75959">
        <ele>411.9</ele>
        <time>2017-09-28T16:48:28Z</time>
      </trkpt>
      <trkpt lat="47.53747" lon="6.75958">
        <ele>411.7</ele>
        <time>2017-09-28T16:48:29Z</time>
      </trkpt>
      <trkpt lat="47.53744" lon="6.75957">
        <ele>411.6</ele>
        <time>2017-09-28T16:48:30Z</time>
      </trkpt>
      <trkpt lat="47.53741" lon="6.75955">
        <ele>411.6</ele>
        <time>2017-09-28T16:48:31Z</time>
      </trkpt>
      <trkpt lat="47.53739" lon="6.75954">
        <ele>411.4</ele>
        <time>2017-09-28T16:48:32Z</time>
      </trkpt>
      <trkpt lat="47.53735" lon="6.75952">
        <ele>411.3</ele>
        <time>2017-09-28T16:48:34Z</time>
      </trkpt>
      <trkpt lat="47.53733" lon="6.75952">
        <ele>411.1</ele>
        <time>2017-09-28T16:48:35Z</time>
      </trkpt>
      <trkpt lat="47.5373" lon="6.7595">
        <ele>411</ele>
        <time>2017-09-28T16:48:36Z</time>
      </trkpt>
      <trkpt lat="47.53728" lon="6.75949">
        <ele>410.8</ele>
        <time>2017-09-28T16:48:37Z</time>
      </trkpt>
      <trkpt lat="47.53723" lon="6.75946">
        <ele>410.7</ele>
        <time>2017-09-28T16:48:39Z</time>
      </trkpt>
      <trkpt lat="47.53721" lon="6.75946">
        <ele>410.7</ele>
        <time>2017-09-28T16:48:40Z</time>
      </trkpt>
      <trkpt lat="47.53717" lon="6.75945">
        <ele>410.6</ele>
        <time>2017-09-28T16:48:41Z</time>
      </trkpt>
      <trkpt lat="47.53715" lon="6.75944">
        <ele>410.6</ele>
        <time>2017-09-28T16:48:42Z</time>
      </trkpt>
      <trkpt lat="47.53711" lon="6.75943">
        <ele>410.5</ele>
        <time>2017-09-28T16:48:43Z</time>
      </trkpt>
      <trkpt lat="47.53706" lon="6.75942">
        <ele>410.4</ele>
        <time>2017-09-28T16:48:44Z</time>
      </trkpt>
      <trkpt lat="47.53702" lon="6.75941">
        <ele>410.2</ele>
        <time>2017-09-28T16:48:45Z</time>
      </trkpt>
      <trkpt lat="47.53698" lon="6.7594">
        <ele>410.2</ele>
        <time>2017-09-28T16:48:46Z</time>
      </trkpt>
      <trkpt lat="47.53694" lon="6.75937">
        <ele>410.2</ele>
        <time>2017-09-28T16:48:47Z</time>
      </trkpt>
      <trkpt lat="47.5369" lon="6.75936">
        <ele>410</ele>
        <time>2017-09-28T16:48:48Z</time>
      </trkpt>
      <trkpt lat="47.53687" lon="6.75934">
        <ele>409.8</ele>
        <time>2017-09-28T16:48:49Z</time>
      </trkpt>
      <trkpt lat="47.53685" lon="6.75933">
        <ele>409.6</ele>
        <time>2017-09-28T16:48:50Z</time>
      </trkpt>
      <trkpt lat="47.53682" lon="6.75931">
        <ele>409.6</ele>
        <time>2017-09-28T16:48:51Z</time>
      </trkpt>
      <trkpt lat="47.5368" lon="6.7593">
        <ele>409.4</ele>
        <time>2017-09-28T16:48:52Z</time>
      </trkpt>
      <trkpt lat="47.53678" lon="6.75927">
        <ele>409.2</ele>
        <time>2017-09-28T16:48:53Z</time>
      </trkpt>
      <trkpt lat="47.53675" lon="6.75926">
        <ele>408.9</ele>
        <time>2017-09-28T16:48:54Z</time>
      </trkpt>
      <trkpt lat="47.53673" lon="6.75925">
        <ele>408.7</ele>
        <time>2017-09-28T16:48:55Z</time>
      </trkpt>
      <trkpt lat="47.5367" lon="6.75924">
        <ele>408.5</ele>
        <time>2017-09-28T16:48:56Z</time>
      </trkpt>
      <trkpt lat="47.53667" lon="6.75921">
        <ele>408.3</ele>
        <time>2017-09-28T16:48:57Z</time>
      </trkpt>
      <trkpt lat="47.53664" lon="6.75921">
        <ele>408.1</ele>
        <time>2017-09-28T16:48:58Z</time>
      </trkpt>
      <trkpt lat="47.53661" lon="6.7592">
        <ele>408</ele>
        <time>2017-09-28T16:48:59Z</time>
      </trkpt>
      <trkpt lat="47.53657" lon="6.75918">
        <ele>407.8</ele>
        <time>2017-09-28T16:49:01Z</time>
      </trkpt>
      <trkpt lat="47.53655" lon="6.75917">
        <ele>407.7</ele>
        <time>2017-09-28T16:49:02Z</time>
      </trkpt>
      <trkpt lat="47.53654" lon="6.75916">
        <ele>407.8</ele>
        <time>2017-09-28T16:49:03Z</time>
      </trkpt>
      <trkpt lat="47.5365" lon="6.75915">
        <ele>407.6</ele>
        <time>2017-09-28T16:49:04Z</time>
      </trkpt>
      <trkpt lat="47.53647" lon="6.75914">
        <ele>407.2</ele>
        <time>2017-09-28T16:49:05Z</time>
      </trkpt>
      <trkpt lat="47.53643" lon="6.75912">
        <ele>406.9</ele>
        <time>2017-09-28T16:49:06Z</time>
      </trkpt>
      <trkpt lat="47.53639" lon="6.75909">
        <ele>406.7</ele>
        <time>2017-09-28T16:49:07Z</time>
      </trkpt>
      <trkpt lat="47.53636" lon="6.75907">
        <ele>406.3</ele>
        <time>2017-09-28T16:49:08Z</time>
      </trkpt>
      <trkpt lat="47.53634" lon="6.75906">
        <ele>406</ele>
        <time>2017-09-28T16:49:09Z</time>
      </trkpt>
      <trkpt lat="47.5363" lon="6.75905">
        <ele>405.7</ele>
        <time>2017-09-28T16:49:10Z</time>
      </trkpt>
      <trkpt lat="47.53628" lon="6.75903">
        <ele>405.2</ele>
        <time>2017-09-28T16:49:11Z</time>
      </trkpt>
      <trkpt lat="47.53625" lon="6.75902">
        <ele>404.9</ele>
        <time>2017-09-28T16:49:12Z</time>
      </trkpt>
      <trkpt lat="47.53623" lon="6.75901">
        <ele>404.7</ele>
        <time>2017-09-28T16:49:13Z</time>
      </trkpt>
      <trkpt lat="47.5362" lon="6.75901">
        <ele>404.4</ele>
        <time>2017-09-28T16:49:14Z</time>
      </trkpt>
      <trkpt lat="47.53618" lon="6.759">
        <ele>404.2</ele>
        <time>2017-09-28T16:49:15Z</time>
      </trkpt>
      <trkpt lat="47.53615" lon="6.75899">
        <ele>403.8</ele>
        <time>2017-09-28T16:49:16Z</time>
      </trkpt>
      <trkpt lat="47.53612" lon="6.75898">
        <ele>403.6</ele>
        <time>2017-09-28T16:49:17Z</time>
      </trkpt>
      <trkpt lat="47.53609" lon="6.75897">
        <ele>403.5</ele>
        <time>2017-09-28T16:49:18Z</time>
      </trkpt>
      <trkpt lat="47.53607" lon="6.75896">
        <ele>403.5</ele>
        <time>2017-09-28T16:49:19Z</time>
      </trkpt>
      <trkpt lat="47.53604" lon="6.75895">
        <ele>403.2</ele>
        <time>2017-09-28T16:49:20Z</time>
      </trkpt>
      <trkpt lat="47.53602" lon="6.75893">
        <ele>403.1</ele>
        <time>2017-09-28T16:49:21Z</time>
      </trkpt>
      <trkpt lat="47.536" lon="6.75893">
        <ele>403.1</ele>
        <time>2017-09-28T16:49:22Z</time>
      </trkpt>
      <trkpt lat="47.53597" lon="6.75892">
        <ele>403.2</ele>
        <time>2017-09-28T16:49:23Z</time>
      </trkpt>
      <trkpt lat="47.53595" lon="6.75891">
        <ele>403</ele>
        <time>2017-09-28T16:49:24Z</time>
      </trkpt>
      <trkpt lat="47.53592" lon="6.75891">
        <ele>403.3</ele>
        <time>2017-09-28T16:49:25Z</time>
      </trkpt>
      <trkpt lat="47.5359" lon="6.75892">
        <ele>403.4</ele>
        <time>2017-09-28T16:49:26Z</time>
      </trkpt>
      <trkpt lat="47.53586" lon="6.75892">
        <ele>403.7</ele>
        <time>2017-09-28T16:49:29Z</time>
      </trkpt>
      <trkpt lat="47.53583" lon="6.75891">
        <ele>403.9</ele>
        <time>2017-09-28T16:49:30Z</time>
      </trkpt>
      <trkpt lat="47.53579" lon="6.7589">
        <ele>403.9</ele>
        <time>2017-09-28T16:49:31Z</time>
      </trkpt>
      <trkpt lat="47.53577" lon="6.7589">
        <ele>403.9</ele>
        <time>2017-09-28T16:49:32Z</time>
      </trkpt>
      <trkpt lat="47.53574" lon="6.75889">
        <ele>403.9</ele>
        <time>2017-09-28T16:49:33Z</time>
      </trkpt>
      <trkpt lat="47.53572" lon="6.75887">
        <ele>403.9</ele>
        <time>2017-09-28T16:49:34Z</time>
      </trkpt>
      <trkpt lat="47.5357" lon="6.75885">
        <ele>403.9</ele>
        <time>2017-09-28T16:49:35Z</time>
      </trkpt>
      <trkpt lat="47.53567" lon="6.75884">
        <ele>403.8</ele>
        <time>2017-09-28T16:49:36Z</time>
      </trkpt>
      <trkpt lat="47.53563" lon="6.75883">
        <ele>403.8</ele>
        <time>2017-09-28T16:49:38Z</time>
      </trkpt>
      <trkpt lat="47.5356" lon="6.75883">
        <ele>403.7</ele>
        <time>2017-09-28T16:49:39Z</time>
      </trkpt>
      <trkpt lat="47.53557" lon="6.75882">
        <ele>403.6</ele>
        <time>2017-09-28T16:49:41Z</time>
      </trkpt>
      <trkpt lat="47.53555" lon="6.75881">
        <ele>403.5</ele>
        <time>2017-09-28T16:49:42Z</time>
      </trkpt>
      <trkpt lat="47.53553" lon="6.7588">
        <ele>403.4</ele>
        <time>2017-09-28T16:49:43Z</time>
      </trkpt>
      <trkpt lat="47.5355" lon="6.75879">
        <ele>403.3</ele>
        <time>2017-09-28T16:49:44Z</time>
      </trkpt>
      <trkpt lat="47.53548" lon="6.75878">
        <ele>403.2</ele>
        <time>2017-09-28T16:49:45Z</time>
      </trkpt>
      <trkpt lat="47.53546" lon="6.75877">
        <ele>403.1</ele>
        <time>2017-09-28T16:49:46Z</time>
      </trkpt>
      <trkpt lat="47.53543" lon="6.75876">
        <ele>403</ele>
        <time>2017-09-28T16:49:47Z</time>
      </trkpt>
      <trkpt lat="47.53539" lon="6.75875">
        <ele>402.9</ele>
        <time>2017-09-28T16:49:48Z</time>
      </trkpt>
      <trkpt lat="47.53537" lon="6.75874">
        <ele>402.9</ele>
        <time>2017-09-28T16:49:49Z</time>
      </trkpt>
      <trkpt lat="47.53533" lon="6.75874">
        <ele>402.8</ele>
        <time>2017-09-28T16:49:50Z</time>
      </trkpt>
      <trkpt lat="47.53529" lon="6.75873">
        <ele>402.6</ele>
        <time>2017-09-28T16:49:51Z</time>
      </trkpt>
      <trkpt lat="47.53527" lon="6.75873">
        <ele>402.6</ele>
        <time>2017-09-28T16:49:52Z</time>
      </trkpt>
      <trkpt lat="47.53524" lon="6.75872">
        <ele>402.5</ele>
        <time>2017-09-28T16:49:53Z</time>
      </trkpt>
      <trkpt lat="47.5352" lon="6.75871">
        <ele>402.3</ele>
        <time>2017-09-28T16:49:54Z</time>
      </trkpt>
      <trkpt lat="47.53517" lon="6.75869">
        <ele>402.1</ele>
        <time>2017-09-28T16:49:55Z</time>
      </trkpt>
      <trkpt lat="47.53513" lon="6.75867">
        <ele>401.9</ele>
        <time>2017-09-28T16:49:56Z</time>
      </trkpt>
      <trkpt lat="47.5351" lon="6.75865">
        <ele>401.7</ele>
        <time>2017-09-28T16:49:57Z</time>
      </trkpt>
      <trkpt lat="47.53507" lon="6.75864">
        <ele>401.6</ele>
        <time>2017-09-28T16:49:58Z</time>
      </trkpt>
      <trkpt lat="47.53504" lon="6.75862">
        <ele>401.5</ele>
        <time>2017-09-28T16:49:59Z</time>
      </trkpt>
      <trkpt lat="47.53501" lon="6.75862">
        <ele>401.4</ele>
        <time>2017-09-28T16:50:00Z</time>
      </trkpt>
      <trkpt lat="47.53498" lon="6.75862">
        <ele>401.4</ele>
        <time>2017-09-28T16:50:01Z</time>
      </trkpt>
      <trkpt lat="47.53495" lon="6.75861">
        <ele>401.3</ele>
        <time>2017-09-28T16:50:02Z</time>
      </trkpt>
      <trkpt lat="47.53493" lon="6.75861">
        <ele>401.3</ele>
        <time>2017-09-28T16:50:03Z</time>
      </trkpt>
      <trkpt lat="47.5349" lon="6.7586">
        <ele>401.3</ele>
        <time>2017-09-28T16:50:04Z</time>
      </trkpt>
      <trkpt lat="47.53488" lon="6.75859">
        <ele>401.2</ele>
        <time>2017-09-28T16:50:05Z</time>
      </trkpt>
      <trkpt lat="47.53486" lon="6.75858">
        <ele>401.2</ele>
        <time>2017-09-28T16:50:06Z</time>
      </trkpt>
      <trkpt lat="47.53483" lon="6.75858">
        <ele>401.1</ele>
        <time>2017-09-28T16:50:07Z</time>
      </trkpt>
      <trkpt lat="47.5348" lon="6.75857">
        <ele>401</ele>
        <time>2017-09-28T16:50:08Z</time>
      </trkpt>
      <trkpt lat="47.53477" lon="6.75855">
        <ele>400.8</ele>
        <time>2017-09-28T16:50:09Z</time>
      </trkpt>
      <trkpt lat="47.53474" lon="6.75854">
        <ele>400.6</ele>
        <time>2017-09-28T16:50:10Z</time>
      </trkpt>
      <trkpt lat="47.53471" lon="6.75856">
        <ele>400.6</ele>
        <time>2017-09-28T16:50:14Z</time>
      </trkpt>
      <trkpt lat="47.53469" lon="6.75859">
        <ele>400.5</ele>
        <time>2017-09-28T16:50:15Z</time>
      </trkpt>
      <trkpt lat="47.53467" lon="6.75864">
        <ele>400.4</ele>
        <time>2017-09-28T16:50:17Z</time>
      </trkpt>
      <trkpt lat="47.53466" lon="6.75867">
        <ele>400.3</ele>
        <time>2017-09-28T16:50:18Z</time>
      </trkpt>
      <trkpt lat="47.53464" lon="6.7587">
        <ele>400.2</ele>
        <time>2017-09-28T16:50:19Z</time>
      </trkpt>
      <trkpt lat="47.53463" lon="6.75873">
        <ele>400.1</ele>
        <time>2017-09-28T16:50:20Z</time>
      </trkpt>
      <trkpt lat="47.53464" lon="6.75878">
        <ele>400</ele>
        <time>2017-09-28T16:50:22Z</time>
      </trkpt>
      <trkpt lat="47.53464" lon="6.75882">
        <ele>400</ele>
        <time>2017-09-28T16:50:23Z</time>
      </trkpt>
      <trkpt lat="47.53464" lon="6.75887">
        <ele>399.9</ele>
        <time>2017-09-28T16:50:24Z</time>
      </trkpt>
      <trkpt lat="47.53464" lon="6.75891">
        <ele>399.9</ele>
        <time>2017-09-28T16:50:25Z</time>
      </trkpt>
      <trkpt lat="47.53463" lon="6.75897">
        <ele>400</ele>
        <time>2017-09-28T16:50:27Z</time>
      </trkpt>
      <trkpt lat="47.53462" lon="6.75901">
        <ele>400.1</ele>
        <time>2017-09-28T16:50:28Z</time>
      </trkpt>
      <trkpt lat="47.53461" lon="6.75907">
        <ele>400.1</ele>
        <time>2017-09-28T16:50:30Z</time>
      </trkpt>
      <trkpt lat="47.53462" lon="6.7591">
        <ele>400.3</ele>
        <time>2017-09-28T16:50:31Z</time>
      </trkpt>
      <trkpt lat="47.53462" lon="6.75914">
        <ele>400.4</ele>
        <time>2017-09-28T16:50:32Z</time>
      </trkpt>
      <trkpt lat="47.53461" lon="6.75917">
        <ele>400.5</ele>
        <time>2017-09-28T16:50:33Z</time>
      </trkpt>
      <trkpt lat="47.53461" lon="6.75922">
        <ele>400.6</ele>
        <time>2017-09-28T16:50:35Z</time>
      </trkpt>
      <trkpt lat="47.53461" lon="6.75925">
        <ele>400.6</ele>
        <time>2017-09-28T16:50:36Z</time>
      </trkpt>
      <trkpt lat="47.53461" lon="6.75929">
        <ele>400.6</ele>
        <time>2017-09-28T16:50:37Z</time>
      </trkpt>
      <trkpt lat="47.53461" lon="6.75933">
        <ele>400.6</ele>
        <time>2017-09-28T16:50:38Z</time>
      </trkpt>
      <trkpt lat="47.5346" lon="6.75939">
        <ele>400.8</ele>
        <time>2017-09-28T16:50:40Z</time>
      </trkpt>
      <trkpt lat="47.5346" lon="6.75944">
        <ele>400.8</ele>
        <time>2017-09-28T16:50:41Z</time>
      </trkpt>
      <trkpt lat="47.53459" lon="6.75948">
        <ele>400.6</ele>
        <time>2017-09-28T16:50:42Z</time>
      </trkpt>
      <trkpt lat="47.53458" lon="6.75954">
        <ele>400.7</ele>
        <time>2017-09-28T16:50:43Z</time>
      </trkpt>
      <trkpt lat="47.53457" lon="6.75959">
        <ele>400.8</ele>
        <time>2017-09-28T16:50:44Z</time>
      </trkpt>
      <trkpt lat="47.53455" lon="6.75963">
        <ele>400.5</ele>
        <time>2017-09-28T16:50:45Z</time>
      </trkpt>
      <trkpt lat="47.53452" lon="6.75966">
        <ele>400.2</ele>
        <time>2017-09-28T16:50:46Z</time>
      </trkpt>
      <trkpt lat="47.53448" lon="6.75967">
        <ele>399.9</ele>
        <time>2017-09-28T16:50:47Z</time>
      </trkpt>
      <trkpt lat="47.53446" lon="6.75968">
        <ele>399.5</ele>
        <time>2017-09-28T16:50:48Z</time>
      </trkpt>
      <trkpt lat="47.53443" lon="6.75967">
        <ele>399.3</ele>
        <time>2017-09-28T16:50:49Z</time>
      </trkpt>
      <trkpt lat="47.53439" lon="6.75966">
        <ele>398.9</ele>
        <time>2017-09-28T16:50:50Z</time>
      </trkpt>
      <trkpt lat="47.53435" lon="6.75965">
        <ele>398.3</ele>
        <time>2017-09-28T16:50:51Z</time>
      </trkpt>
      <trkpt lat="47.53432" lon="6.75964">
        <ele>398.1</ele>
        <time>2017-09-28T16:50:52Z</time>
      </trkpt>
      <trkpt lat="47.5343" lon="6.75962">
        <ele>397.7</ele>
        <time>2017-09-28T16:50:53Z</time>
      </trkpt>
      <trkpt lat="47.53427" lon="6.75963">
        <ele>397.4</ele>
        <time>2017-09-28T16:50:54Z</time>
      </trkpt>
      <trkpt lat="47.53424" lon="6.75962">
        <ele>397.1</ele>
        <time>2017-09-28T16:50:55Z</time>
      </trkpt>
      <trkpt lat="47.53421" lon="6.7596">
        <ele>396.8</ele>
        <time>2017-09-28T16:50:56Z</time>
      </trkpt>
      <trkpt lat="47.53419" lon="6.75959">
        <ele>396.9</ele>
        <time>2017-09-28T16:50:57Z</time>
      </trkpt>
      <trkpt lat="47.53416" lon="6.75958">
        <ele>396.6</ele>
        <time>2017-09-28T16:50:59Z</time>
      </trkpt>
      <trkpt lat="47.53413" lon="6.75957">
        <ele>396.3</ele>
        <time>2017-09-28T16:51:00Z</time>
      </trkpt>
      <trkpt lat="47.5341" lon="6.75956">
        <ele>395.9</ele>
        <time>2017-09-28T16:51:01Z</time>
      </trkpt>
      <trkpt lat="47.53406" lon="6.75956">
        <ele>395.2</ele>
        <time>2017-09-28T16:51:02Z</time>
      </trkpt>
      <trkpt lat="47.53403" lon="6.75955">
        <ele>395</ele>
        <time>2017-09-28T16:51:03Z</time>
      </trkpt>
      <trkpt lat="47.53399" lon="6.75955">
        <ele>394.6</ele>
        <time>2017-09-28T16:51:04Z</time>
      </trkpt>
      <trkpt lat="47.53398" lon="6.75955">
        <ele>394.3</ele>
        <time>2017-09-28T16:51:05Z</time>
      </trkpt>
      <trkpt lat="47.53395" lon="6.75956">
        <ele>393.8</ele>
        <time>2017-09-28T16:51:06Z</time>
      </trkpt>
      <trkpt lat="47.53391" lon="6.75955">
        <ele>393.7</ele>
        <time>2017-09-28T16:51:08Z</time>
      </trkpt>
      <trkpt lat="47.53388" lon="6.75954">
        <ele>393.4</ele>
        <time>2017-09-28T16:51:09Z</time>
      </trkpt>
      <trkpt lat="47.53387" lon="6.75952">
        <ele>393.4</ele>
        <time>2017-09-28T16:51:10Z</time>
      </trkpt>
      <trkpt lat="47.53384" lon="6.75951">
        <ele>393.3</ele>
        <time>2017-09-28T16:51:11Z</time>
      </trkpt>
      <trkpt lat="47.53381" lon="6.7595">
        <ele>393</ele>
        <time>2017-09-28T16:51:12Z</time>
      </trkpt>
      <trkpt lat="47.53377" lon="6.75948">
        <ele>392.6</ele>
        <time>2017-09-28T16:51:13Z</time>
      </trkpt>
      <trkpt lat="47.53373" lon="6.75947">
        <ele>392.4</ele>
        <time>2017-09-28T16:51:14Z</time>
      </trkpt>
      <trkpt lat="47.53371" lon="6.75944">
        <ele>392.1</ele>
        <time>2017-09-28T16:51:15Z</time>
      </trkpt>
      <trkpt lat="47.53367" lon="6.75942">
        <ele>391.9</ele>
        <time>2017-09-28T16:51:17Z</time>
      </trkpt>
      <trkpt lat="47.53365" lon="6.75941">
        <ele>391.7</ele>
        <time>2017-09-28T16:51:18Z</time>
      </trkpt>
      <trkpt lat="47.53363" lon="6.7594">
        <ele>391.5</ele>
        <time>2017-09-28T16:51:19Z</time>
      </trkpt>
      <trkpt lat="47.53359" lon="6.75938">
        <ele>391.3</ele>
        <time>2017-09-28T16:51:20Z</time>
      </trkpt>
      <trkpt lat="47.53357" lon="6.75937">
        <ele>391</ele>
        <time>2017-09-28T16:51:21Z</time>
      </trkpt>
      <trkpt lat="47.53354" lon="6.75936">
        <ele>390.8</ele>
        <time>2017-09-28T16:51:22Z</time>
      </trkpt>
      <trkpt lat="47.53352" lon="6.75934">
        <ele>390.8</ele>
        <time>2017-09-28T16:51:23Z</time>
      </trkpt>
      <trkpt lat="47.53349" lon="6.75933">
        <ele>390.3</ele>
        <time>2017-09-28T16:51:24Z</time>
      </trkpt>
      <trkpt lat="47.53345" lon="6.75932">
        <ele>390</ele>
        <time>2017-09-28T16:51:25Z</time>
      </trkpt>
      <trkpt lat="47.53343" lon="6.75931">
        <ele>389.8</ele>
        <time>2017-09-28T16:51:26Z</time>
      </trkpt>
      <trkpt lat="47.5334" lon="6.7593">
        <ele>389.5</ele>
        <time>2017-09-28T16:51:27Z</time>
      </trkpt>
      <trkpt lat="47.53337" lon="6.75929">
        <ele>389.5</ele>
        <time>2017-09-28T16:51:28Z</time>
      </trkpt>
      <trkpt lat="47.53333" lon="6.75928">
        <ele>389.1</ele>
        <time>2017-09-28T16:51:30Z</time>
      </trkpt>
      <trkpt lat="47.53331" lon="6.75927">
        <ele>388.9</ele>
        <time>2017-09-28T16:51:31Z</time>
      </trkpt>
      <trkpt lat="47.53328" lon="6.75925">
        <ele>388.6</ele>
        <time>2017-09-28T16:51:32Z</time>
      </trkpt>
      <trkpt lat="47.53325" lon="6.75923">
        <ele>388.3</ele>
        <time>2017-09-28T16:51:33Z</time>
      </trkpt>
      <trkpt lat="47.53323" lon="6.75922">
        <ele>388.3</ele>
        <time>2017-09-28T16:51:34Z</time>
      </trkpt>
      <trkpt lat="47.5332" lon="6.75921">
        <ele>388</ele>
        <time>2017-09-28T16:51:35Z</time>
      </trkpt>
      <trkpt lat="47.53318" lon="6.75918">
        <ele>387.7</ele>
        <time>2017-09-28T16:51:36Z</time>
      </trkpt>
      <trkpt lat="47.53316" lon="6.75916">
        <ele>387.4</ele>
        <time>2017-09-28T16:51:37Z</time>
      </trkpt>
      <trkpt lat="47.53313" lon="6.75915">
        <ele>387.2</ele>
        <time>2017-09-28T16:51:38Z</time>
      </trkpt>
      <trkpt lat="47.53311" lon="6.75914">
        <ele>387</ele>
        <time>2017-09-28T16:51:39Z</time>
      </trkpt>
      <trkpt lat="47.53308" lon="6.75914">
        <ele>386.9</ele>
        <time>2017-09-28T16:51:40Z</time>
      </trkpt>
      <trkpt lat="47.53306" lon="6.75913">
        <ele>386.8</ele>
        <time>2017-09-28T16:51:41Z</time>
      </trkpt>
      <trkpt lat="47.53303" lon="6.75912">
        <ele>386.6</ele>
        <time>2017-09-28T16:51:42Z</time>
      </trkpt>
      <trkpt lat="47.533" lon="6.75909">
        <ele>386.5</ele>
        <time>2017-09-28T16:51:43Z</time>
      </trkpt>
      <trkpt lat="47.53297" lon="6.75906">
        <ele>386.3</ele>
        <time>2017-09-28T16:51:44Z</time>
      </trkpt>
      <trkpt lat="47.53294" lon="6.75902">
        <ele>386.3</ele>
        <time>2017-09-28T16:51:45Z</time>
      </trkpt>
      <trkpt lat="47.53292" lon="6.75901">
        <ele>386.1</ele>
        <time>2017-09-28T16:51:46Z</time>
      </trkpt>
      <trkpt lat="47.53289" lon="6.759">
        <ele>386</ele>
        <time>2017-09-28T16:51:47Z</time>
      </trkpt>
      <trkpt lat="47.53285" lon="6.75898">
        <ele>385.9</ele>
        <time>2017-09-28T16:51:48Z</time>
      </trkpt>
      <trkpt lat="47.53282" lon="6.75896">
        <ele>385.7</ele>
        <time>2017-09-28T16:51:49Z</time>
      </trkpt>
      <trkpt lat="47.53278" lon="6.75893">
        <ele>385.5</ele>
        <time>2017-09-28T16:51:51Z</time>
      </trkpt>
      <trkpt lat="47.53276" lon="6.75892">
        <ele>385.3</ele>
        <time>2017-09-28T16:51:52Z</time>
      </trkpt>
      <trkpt lat="47.53273" lon="6.75892">
        <ele>385.3</ele>
        <time>2017-09-28T16:51:54Z</time>
      </trkpt>
      <trkpt lat="47.53271" lon="6.75893">
        <ele>385.1</ele>
        <time>2017-09-28T16:51:55Z</time>
      </trkpt>
      <trkpt lat="47.53269" lon="6.75893">
        <ele>384.9</ele>
        <time>2017-09-28T16:51:56Z</time>
      </trkpt>
      <trkpt lat="47.53266" lon="6.75893">
        <ele>384.7</ele>
        <time>2017-09-28T16:51:57Z</time>
      </trkpt>
      <trkpt lat="47.53262" lon="6.75894">
        <ele>384.5</ele>
        <time>2017-09-28T16:51:58Z</time>
      </trkpt>
      <trkpt lat="47.53259" lon="6.75895">
        <ele>384.2</ele>
        <time>2017-09-28T16:51:59Z</time>
      </trkpt>
      <trkpt lat="47.53255" lon="6.75896">
        <ele>383.7</ele>
        <time>2017-09-28T16:52:02Z</time>
      </trkpt>
      <trkpt lat="47.53253" lon="6.75896">
        <ele>383.4</ele>
        <time>2017-09-28T16:52:03Z</time>
      </trkpt>
      <trkpt lat="47.5325" lon="6.75896">
        <ele>383.1</ele>
        <time>2017-09-28T16:52:04Z</time>
      </trkpt>
      <trkpt lat="47.53247" lon="6.75896">
        <ele>383</ele>
        <time>2017-09-28T16:52:05Z</time>
      </trkpt>
      <trkpt lat="47.53243" lon="6.75895">
        <ele>382.3</ele>
        <time>2017-09-28T16:52:07Z</time>
      </trkpt>
      <trkpt lat="47.5324" lon="6.75894">
        <ele>381.9</ele>
        <time>2017-09-28T16:52:08Z</time>
      </trkpt>
      <trkpt lat="47.53237" lon="6.75892">
        <ele>381.6</ele>
        <time>2017-09-28T16:52:09Z</time>
      </trkpt>
      <trkpt lat="47.53235" lon="6.7589">
        <ele>381.1</ele>
        <time>2017-09-28T16:52:10Z</time>
      </trkpt>
      <trkpt lat="47.53231" lon="6.75888">
        <ele>380.7</ele>
        <time>2017-09-28T16:52:12Z</time>
      </trkpt>
      <trkpt lat="47.53229" lon="6.75887">
        <ele>380.3</ele>
        <time>2017-09-28T16:52:13Z</time>
      </trkpt>
      <trkpt lat="47.53227" lon="6.75886">
        <ele>379.9</ele>
        <time>2017-09-28T16:52:14Z</time>
      </trkpt>
      <trkpt lat="47.53224" lon="6.75886">
        <ele>379.6</ele>
        <time>2017-09-28T16:52:15Z</time>
      </trkpt>
      <trkpt lat="47.53221" lon="6.75884">
        <ele>379.3</ele>
        <time>2017-09-28T16:52:16Z</time>
      </trkpt>
      <trkpt lat="47.53218" lon="6.75883">
        <ele>379.1</ele>
        <time>2017-09-28T16:52:17Z</time>
      </trkpt>
      <trkpt lat="47.53215" lon="6.75883">
        <ele>378.9</ele>
        <time>2017-09-28T16:52:18Z</time>
      </trkpt>
      <trkpt lat="47.53213" lon="6.75882">
        <ele>378.7</ele>
        <time>2017-09-28T16:52:19Z</time>
      </trkpt>
      <trkpt lat="47.53208" lon="6.75882">
        <ele>379</ele>
        <time>2017-09-28T16:52:21Z</time>
      </trkpt>
      <trkpt lat="47.53205" lon="6.75882">
        <ele>379.3</ele>
        <time>2017-09-28T16:52:22Z</time>
      </trkpt>
      <trkpt lat="47.53203" lon="6.75885">
        <ele>379.6</ele>
        <time>2017-09-28T16:52:24Z</time>
      </trkpt>
      <trkpt lat="47.53201" lon="6.75888">
        <ele>379.7</ele>
        <time>2017-09-28T16:52:25Z</time>
      </trkpt>
      <trkpt lat="47.532" lon="6.75891">
        <ele>379.7</ele>
        <time>2017-09-28T16:52:26Z</time>
      </trkpt>
      <trkpt lat="47.53198" lon="6.75895">
        <ele>379.8</ele>
        <time>2017-09-28T16:52:27Z</time>
      </trkpt>
      <trkpt lat="47.53197" lon="6.75897">
        <ele>379.9</ele>
        <time>2017-09-28T16:52:28Z</time>
      </trkpt>
      <trkpt lat="47.53194" lon="6.759">
        <ele>380</ele>
        <time>2017-09-28T16:52:29Z</time>
      </trkpt>
      <trkpt lat="47.53192" lon="6.75905">
        <ele>380.3</ele>
        <time>2017-09-28T16:52:31Z</time>
      </trkpt>
      <trkpt lat="47.53189" lon="6.75906">
        <ele>380.5</ele>
        <time>2017-09-28T16:52:32Z</time>
      </trkpt>
      <trkpt lat="47.53186" lon="6.75906">
        <ele>380.7</ele>
        <time>2017-09-28T16:52:34Z</time>
      </trkpt>
      <trkpt lat="47.53183" lon="6.75908">
        <ele>380.8</ele>
        <time>2017-09-28T16:52:35Z</time>
      </trkpt>
      <trkpt lat="47.53181" lon="6.75909">
        <ele>380.8</ele>
        <time>2017-09-28T16:52:36Z</time>
      </trkpt>
      <trkpt lat="47.53179" lon="6.7591">
        <ele>380.9</ele>
        <time>2017-09-28T16:52:37Z</time>
      </trkpt>
      <trkpt lat="47.53176" lon="6.75911">
        <ele>381</ele>
        <time>2017-09-28T16:52:39Z</time>
      </trkpt>
      <trkpt lat="47.53172" lon="6.75912">
        <ele>381.2</ele>
        <time>2017-09-28T16:52:40Z</time>
      </trkpt>
      <trkpt lat="47.53169" lon="6.75913">
        <ele>381.4</ele>
        <time>2017-09-28T16:52:41Z</time>
      </trkpt>
      <trkpt lat="47.53164" lon="6.75912">
        <ele>381.5</ele>
        <time>2017-09-28T16:52:42Z</time>
      </trkpt>
      <trkpt lat="47.53162" lon="6.75913">
        <ele>381.6</ele>
        <time>2017-09-28T16:52:43Z</time>
      </trkpt>
      <trkpt lat="47.53159" lon="6.75913">
        <ele>381.6</ele>
        <time>2017-09-28T16:52:44Z</time>
      </trkpt>
      <trkpt lat="47.53156" lon="6.75915">
        <ele>381.7</ele>
        <time>2017-09-28T16:52:46Z</time>
      </trkpt>
      <trkpt lat="47.53154" lon="6.75916">
        <ele>381.7</ele>
        <time>2017-09-28T16:52:47Z</time>
      </trkpt>
      <trkpt lat="47.5315" lon="6.75918">
        <ele>381.8</ele>
        <time>2017-09-28T16:52:49Z</time>
      </trkpt>
      <trkpt lat="47.53148" lon="6.75919">
        <ele>381.7</ele>
        <time>2017-09-28T16:52:50Z</time>
      </trkpt>
      <trkpt lat="47.53146" lon="6.75919">
        <ele>381.7</ele>
        <time>2017-09-28T16:52:51Z</time>
      </trkpt>
      <trkpt lat="47.53142" lon="6.75919">
        <ele>381.7</ele>
        <time>2017-09-28T16:52:52Z</time>
      </trkpt>
      <trkpt lat="47.5314" lon="6.75919">
        <ele>381.7</ele>
        <time>2017-09-28T16:52:53Z</time>
      </trkpt>
      <trkpt lat="47.53137" lon="6.7592">
        <ele>381.8</ele>
        <time>2017-09-28T16:52:54Z</time>
      </trkpt>
      <trkpt lat="47.53134" lon="6.7592">
        <ele>381.8</ele>
        <time>2017-09-28T16:52:55Z</time>
      </trkpt>
      <trkpt lat="47.53132" lon="6.7592">
        <ele>381.9</ele>
        <time>2017-09-28T16:52:56Z</time>
      </trkpt>
      <trkpt lat="47.53129" lon="6.75923">
        <ele>382</ele>
        <time>2017-09-28T16:52:58Z</time>
      </trkpt>
      <trkpt lat="47.53127" lon="6.75923">
        <ele>382</ele>
        <time>2017-09-28T16:52:59Z</time>
      </trkpt>
      <trkpt lat="47.53125" lon="6.75924">
        <ele>382.1</ele>
        <time>2017-09-28T16:53:00Z</time>
      </trkpt>
      <trkpt lat="47.53122" lon="6.75926">
        <ele>382.1</ele>
        <time>2017-09-28T16:53:01Z</time>
      </trkpt>
      <trkpt lat="47.53118" lon="6.75925">
        <ele>382.1</ele>
        <time>2017-09-28T16:53:02Z</time>
      </trkpt>
      <trkpt lat="47.53115" lon="6.75926">
        <ele>382</ele>
        <time>2017-09-28T16:53:03Z</time>
      </trkpt>
      <trkpt lat="47.53112" lon="6.75926">
        <ele>382</ele>
        <time>2017-09-28T16:53:04Z</time>
      </trkpt>
      <trkpt lat="47.5311" lon="6.75927">
        <ele>382</ele>
        <time>2017-09-28T16:53:05Z</time>
      </trkpt>
      <trkpt lat="47.53107" lon="6.75928">
        <ele>382.1</ele>
        <time>2017-09-28T16:53:06Z</time>
      </trkpt>
      <trkpt lat="47.53104" lon="6.75929">
        <ele>382.1</ele>
        <time>2017-09-28T16:53:07Z</time>
      </trkpt>
      <trkpt lat="47.53101" lon="6.75931">
        <ele>382.2</ele>
        <time>2017-09-28T16:53:08Z</time>
      </trkpt>
      <trkpt lat="47.53097" lon="6.75933">
        <ele>382.3</ele>
        <time>2017-09-28T16:53:09Z</time>
      </trkpt>
      <trkpt lat="47.53095" lon="6.75934">
        <ele>382.3</ele>
        <time>2017-09-28T16:53:10Z</time>
      </trkpt>
      <trkpt lat="47.53093" lon="6.75935">
        <ele>382.3</ele>
        <time>2017-09-28T16:53:11Z</time>
      </trkpt>
      <trkpt lat="47.5309" lon="6.75936">
        <ele>382.4</ele>
        <time>2017-09-28T16:53:12Z</time>
      </trkpt>
      <trkpt lat="47.53087" lon="6.75937">
        <ele>382.4</ele>
        <time>2017-09-28T16:53:13Z</time>
      </trkpt>
      <trkpt lat="47.53084" lon="6.75938">
        <ele>382.4</ele>
        <time>2017-09-28T16:53:15Z</time>
      </trkpt>
      <trkpt lat="47.53082" lon="6.75939">
        <ele>382.4</ele>
        <time>2017-09-28T16:53:16Z</time>
      </trkpt>
      <trkpt lat="47.5308" lon="6.75939">
        <ele>382.4</ele>
        <time>2017-09-28T16:53:17Z</time>
      </trkpt>
      <trkpt lat="47.53078" lon="6.7594">
        <ele>382.4</ele>
        <time>2017-09-28T16:53:18Z</time>
      </trkpt>
      <trkpt lat="47.53076" lon="6.75941">
        <ele>382.4</ele>
        <time>2017-09-28T16:53:19Z</time>
      </trkpt>
      <trkpt lat="47.53073" lon="6.75942">
        <ele>382.4</ele>
        <time>2017-09-28T16:53:20Z</time>
      </trkpt>
      <trkpt lat="47.53069" lon="6.75942">
        <ele>382.3</ele>
        <time>2017-09-28T16:53:21Z</time>
      </trkpt>
      <trkpt lat="47.53066" lon="6.75944">
        <ele>382.3</ele>
        <time>2017-09-28T16:53:22Z</time>
      </trkpt>
      <trkpt lat="47.53064" lon="6.75946">
        <ele>382.2</ele>
        <time>2017-09-28T16:53:23Z</time>
      </trkpt>
      <trkpt lat="47.53062" lon="6.75947">
        <ele>382.1</ele>
        <time>2017-09-28T16:53:24Z</time>
      </trkpt>
      <trkpt lat="47.53058" lon="6.75949">
        <ele>381.9</ele>
        <time>2017-09-28T16:53:25Z</time>
      </trkpt>
      <trkpt lat="47.53055" lon="6.7595">
        <ele>381.7</ele>
        <time>2017-09-28T16:53:26Z</time>
      </trkpt>
      <trkpt lat="47.53053" lon="6.75952">
        <ele>381.6</ele>
        <time>2017-09-28T16:53:27Z</time>
      </trkpt>
      <trkpt lat="47.53051" lon="6.75953">
        <ele>381.6</ele>
        <time>2017-09-28T16:53:28Z</time>
      </trkpt>
      <trkpt lat="47.53047" lon="6.75954">
        <ele>381.4</ele>
        <time>2017-09-28T16:53:30Z</time>
      </trkpt>
      <trkpt lat="47.53046" lon="6.75956">
        <ele>381.4</ele>
        <time>2017-09-28T16:53:31Z</time>
      </trkpt>
      <trkpt lat="47.53044" lon="6.7596">
        <ele>381.4</ele>
        <time>2017-09-28T16:53:32Z</time>
      </trkpt>
      <trkpt lat="47.53043" lon="6.75963">
        <ele>381.4</ele>
        <time>2017-09-28T16:53:33Z</time>
      </trkpt>
      <trkpt lat="47.53042" lon="6.75967">
        <ele>381.4</ele>
        <time>2017-09-28T16:53:34Z</time>
      </trkpt>
      <trkpt lat="47.5304" lon="6.7597">
        <ele>381.6</ele>
        <time>2017-09-28T16:53:35Z</time>
      </trkpt>
      <trkpt lat="47.53039" lon="6.75975">
        <ele>381.8</ele>
        <time>2017-09-28T16:53:37Z</time>
      </trkpt>
      <trkpt lat="47.53038" lon="6.75978">
        <ele>382</ele>
        <time>2017-09-28T16:53:38Z</time>
      </trkpt>
      <trkpt lat="47.53035" lon="6.75982">
        <ele>382.4</ele>
        <time>2017-09-28T16:53:39Z</time>
      </trkpt>
      <trkpt lat="47.53033" lon="6.75983">
        <ele>382.7</ele>
        <time>2017-09-28T16:53:40Z</time>
      </trkpt>
      <trkpt lat="47.53031" lon="6.75984">
        <ele>383</ele>
        <time>2017-09-28T16:53:41Z</time>
      </trkpt>
      <trkpt lat="47.53028" lon="6.75987">
        <ele>383.5</ele>
        <time>2017-09-28T16:53:42Z</time>
      </trkpt>
      <trkpt lat="47.53026" lon="6.75989">
        <ele>383.8</ele>
        <time>2017-09-28T16:53:43Z</time>
      </trkpt>
      <trkpt lat="47.53023" lon="6.75992">
        <ele>384.1</ele>
        <time>2017-09-28T16:53:44Z</time>
      </trkpt>
      <trkpt lat="47.53021" lon="6.75996">
        <ele>384.5</ele>
        <time>2017-09-28T16:53:45Z</time>
      </trkpt>
      <trkpt lat="47.5302" lon="6.76">
        <ele>384.8</ele>
        <time>2017-09-28T16:53:46Z</time>
      </trkpt>
      <trkpt lat="47.53019" lon="6.76002">
        <ele>385</ele>
        <time>2017-09-28T16:53:47Z</time>
      </trkpt>
      <trkpt lat="47.53017" lon="6.76006">
        <ele>385.4</ele>
        <time>2017-09-28T16:53:48Z</time>
      </trkpt>
      <trkpt lat="47.53015" lon="6.76009">
        <ele>385.6</ele>
        <time>2017-09-28T16:53:49Z</time>
      </trkpt>
      <trkpt lat="47.53012" lon="6.76013">
        <ele>385.8</ele>
        <time>2017-09-28T16:53:50Z</time>
      </trkpt>
      <trkpt lat="47.5301" lon="6.76017">
        <ele>386.1</ele>
        <time>2017-09-28T16:53:51Z</time>
      </trkpt>
      <trkpt lat="47.53007" lon="6.7602">
        <ele>386.2</ele>
        <time>2017-09-28T16:53:52Z</time>
      </trkpt>
      <trkpt lat="47.53003" lon="6.76022">
        <ele>386.3</ele>
        <time>2017-09-28T16:53:53Z</time>
      </trkpt>
      <trkpt lat="47.53" lon="6.76025">
        <ele>386.3</ele>
        <time>2017-09-28T16:53:54Z</time>
      </trkpt>
      <trkpt lat="47.52997" lon="6.76025">
        <ele>386.3</ele>
        <time>2017-09-28T16:53:55Z</time>
      </trkpt>
      <trkpt lat="47.52994" lon="6.76026">
        <ele>386.3</ele>
        <time>2017-09-28T16:53:56Z</time>
      </trkpt>
      <trkpt lat="47.52991" lon="6.76028">
        <ele>386.1</ele>
        <time>2017-09-28T16:53:58Z</time>
      </trkpt>
      <trkpt lat="47.52988" lon="6.76029">
        <ele>385.8</ele>
        <time>2017-09-28T16:53:59Z</time>
      </trkpt>
      <trkpt lat="47.52985" lon="6.76032">
        <ele>385.6</ele>
        <time>2017-09-28T16:54:00Z</time>
      </trkpt>
      <trkpt lat="47.52985" lon="6.76035">
        <ele>385.4</ele>
        <time>2017-09-28T16:54:01Z</time>
      </trkpt>
      <trkpt lat="47.52983" lon="6.76037">
        <ele>385.2</ele>
        <time>2017-09-28T16:54:02Z</time>
      </trkpt>
      <trkpt lat="47.5298" lon="6.76041">
        <ele>384.8</ele>
        <time>2017-09-28T16:54:03Z</time>
      </trkpt>
      <trkpt lat="47.52978" lon="6.76044">
        <ele>384.5</ele>
        <time>2017-09-28T16:54:04Z</time>
      </trkpt>
      <trkpt lat="47.52975" lon="6.76046">
        <ele>384.2</ele>
        <time>2017-09-28T16:54:05Z</time>
      </trkpt>
      <trkpt lat="47.52976" lon="6.76052">
        <ele>383.8</ele>
        <time>2017-09-28T16:54:07Z</time>
      </trkpt>
      <trkpt lat="47.52976" lon="6.76054">
        <ele>383.6</ele>
        <time>2017-09-28T16:54:08Z</time>
      </trkpt>
      <trkpt lat="47.52977" lon="6.76061">
        <ele>383.1</ele>
        <time>2017-09-28T16:54:10Z</time>
      </trkpt>
      <trkpt lat="47.52979" lon="6.76064">
        <ele>382.8</ele>
        <time>2017-09-28T16:54:11Z</time>
      </trkpt>
      <trkpt lat="47.52981" lon="6.76069">
        <ele>382.4</ele>
        <time>2017-09-28T16:54:12Z</time>
      </trkpt>
      <trkpt lat="47.52981" lon="6.76072">
        <ele>382.2</ele>
        <time>2017-09-28T16:54:13Z</time>
      </trkpt>
      <trkpt lat="47.52983" lon="6.76076">
        <ele>381.8</ele>
        <time>2017-09-28T16:54:15Z</time>
      </trkpt>
      <trkpt lat="47.52984" lon="6.7608">
        <ele>381.4</ele>
        <time>2017-09-28T16:54:16Z</time>
      </trkpt>
      <trkpt lat="47.52985" lon="6.76085">
        <ele>381</ele>
        <time>2017-09-28T16:54:17Z</time>
      </trkpt>
      <trkpt lat="47.52986" lon="6.7609">
        <ele>380.8</ele>
        <time>2017-09-28T16:54:18Z</time>
      </trkpt>
      <trkpt lat="47.52987" lon="6.76096">
        <ele>381</ele>
        <time>2017-09-28T16:54:19Z</time>
      </trkpt>
      <trkpt lat="47.52988" lon="6.76101">
        <ele>381.1</ele>
        <time>2017-09-28T16:54:20Z</time>
      </trkpt>
      <trkpt lat="47.52988" lon="6.76104">
        <ele>381.1</ele>
        <time>2017-09-28T16:54:21Z</time>
      </trkpt>
      <trkpt lat="47.52989" lon="6.76109">
        <ele>381.2</ele>
        <time>2017-09-28T16:54:22Z</time>
      </trkpt>
      <trkpt lat="47.52989" lon="6.76114">
        <ele>381.3</ele>
        <time>2017-09-28T16:54:23Z</time>
      </trkpt>
      <trkpt lat="47.5299" lon="6.76117">
        <ele>381.3</ele>
        <time>2017-09-28T16:54:24Z</time>
      </trkpt>
      <trkpt lat="47.5299" lon="6.76121">
        <ele>381.3</ele>
        <time>2017-09-28T16:54:25Z</time>
      </trkpt>
      <trkpt lat="47.52991" lon="6.76124">
        <ele>381.3</ele>
        <time>2017-09-28T16:54:26Z</time>
      </trkpt>
      <trkpt lat="47.52991" lon="6.7613">
        <ele>381.4</ele>
        <time>2017-09-28T16:54:28Z</time>
      </trkpt>
      <trkpt lat="47.52991" lon="6.76131">
        <ele>381.4</ele>
        <time>2017-09-28T16:54:29Z</time>
      </trkpt>
      <trkpt lat="47.52991" lon="6.76134">
        <ele>381.4</ele>
        <time>2017-09-28T16:54:30Z</time>
      </trkpt>
      <trkpt lat="47.52991" lon="6.76138">
        <ele>381.4</ele>
        <time>2017-09-28T16:54:31Z</time>
      </trkpt>
      <trkpt lat="47.52992" lon="6.76144">
        <ele>381.5</ele>
        <time>2017-09-28T16:54:32Z</time>
      </trkpt>
      <trkpt lat="47.52993" lon="6.76149">
        <ele>381.7</ele>
        <time>2017-09-28T16:54:33Z</time>
      </trkpt>
      <trkpt lat="47.52994" lon="6.76156">
        <ele>381.9</ele>
        <time>2017-09-28T16:54:34Z</time>
      </trkpt>
      <trkpt lat="47.52994" lon="6.76161">
        <ele>382</ele>
        <time>2017-09-28T16:54:35Z</time>
      </trkpt>
      <trkpt lat="47.52993" lon="6.76165">
        <ele>382.2</ele>
        <time>2017-09-28T16:54:36Z</time>
      </trkpt>
      <trkpt lat="47.52993" lon="6.76169">
        <ele>382.3</ele>
        <time>2017-09-28T16:54:37Z</time>
      </trkpt>
      <trkpt lat="47.52993" lon="6.76173">
        <ele>382.3</ele>
        <time>2017-09-28T16:54:38Z</time>
      </trkpt>
      <trkpt lat="47.52992" lon="6.76178">
        <ele>382.2</ele>
        <time>2017-09-28T16:54:39Z</time>
      </trkpt>
      <trkpt lat="47.5299" lon="6.76183">
        <ele>382.2</ele>
        <time>2017-09-28T16:54:40Z</time>
      </trkpt>
      <trkpt lat="47.5299" lon="6.76189">
        <ele>382.3</ele>
        <time>2017-09-28T16:54:42Z</time>
      </trkpt>
      <trkpt lat="47.52992" lon="6.76194">
        <ele>382.4</ele>
        <time>2017-09-28T16:54:43Z</time>
      </trkpt>
      <trkpt lat="47.52993" lon="6.762">
        <ele>382.5</ele>
        <time>2017-09-28T16:54:44Z</time>
      </trkpt>
      <trkpt lat="47.52995" lon="6.76204">
        <ele>382.6</ele>
        <time>2017-09-28T16:54:45Z</time>
      </trkpt>
      <trkpt lat="47.52995" lon="6.76207">
        <ele>382.6</ele>
        <time>2017-09-28T16:54:46Z</time>
      </trkpt>
      <trkpt lat="47.52995" lon="6.76212">
        <ele>382.5</ele>
        <time>2017-09-28T16:54:47Z</time>
      </trkpt>
      <trkpt lat="47.52995" lon="6.76218">
        <ele>382.5</ele>
        <time>2017-09-28T16:54:48Z</time>
      </trkpt>
      <trkpt lat="47.52995" lon="6.76222">
        <ele>382.4</ele>
        <time>2017-09-28T16:54:49Z</time>
      </trkpt>
      <trkpt lat="47.52994" lon="6.76229">
        <ele>382.4</ele>
        <time>2017-09-28T16:54:51Z</time>
      </trkpt>
      <trkpt lat="47.52994" lon="6.76233">
        <ele>382.3</ele>
        <time>2017-09-28T16:54:52Z</time>
      </trkpt>
      <trkpt lat="47.52993" lon="6.76238">
        <ele>382.2</ele>
        <time>2017-09-28T16:54:53Z</time>
      </trkpt>
      <trkpt lat="47.52992" lon="6.76242">
        <ele>382</ele>
        <time>2017-09-28T16:54:54Z</time>
      </trkpt>
      <trkpt lat="47.52992" lon="6.76247">
        <ele>381.8</ele>
        <time>2017-09-28T16:54:55Z</time>
      </trkpt>
      <trkpt lat="47.52993" lon="6.76254">
        <ele>381.5</ele>
        <time>2017-09-28T16:54:56Z</time>
      </trkpt>
      <trkpt lat="47.52992" lon="6.76258">
        <ele>381.3</ele>
        <time>2017-09-28T16:54:57Z</time>
      </trkpt>
      <trkpt lat="47.52993" lon="6.76263">
        <ele>380.9</ele>
        <time>2017-09-28T16:54:58Z</time>
      </trkpt>
      <trkpt lat="47.52993" lon="6.76268">
        <ele>380.5</ele>
        <time>2017-09-28T16:54:59Z</time>
      </trkpt>
      <trkpt lat="47.52993" lon="6.76271">
        <ele>380.2</ele>
        <time>2017-09-28T16:55:00Z</time>
      </trkpt>
      <trkpt lat="47.52994" lon="6.76276">
        <ele>379.9</ele>
        <time>2017-09-28T16:55:01Z</time>
      </trkpt>
      <trkpt lat="47.52994" lon="6.7628">
        <ele>379.5</ele>
        <time>2017-09-28T16:55:02Z</time>
      </trkpt>
      <trkpt lat="47.52995" lon="6.76284">
        <ele>379.1</ele>
        <time>2017-09-28T16:55:03Z</time>
      </trkpt>
      <trkpt lat="47.52995" lon="6.76289">
        <ele>378.6</ele>
        <time>2017-09-28T16:55:04Z</time>
      </trkpt>
      <trkpt lat="47.52995" lon="6.76295">
        <ele>378</ele>
        <time>2017-09-28T16:55:06Z</time>
      </trkpt>
      <trkpt lat="47.52995" lon="6.763">
        <ele>377.4</ele>
        <time>2017-09-28T16:55:07Z</time>
      </trkpt>
      <trkpt lat="47.52996" lon="6.76305">
        <ele>376.8</ele>
        <time>2017-09-28T16:55:08Z</time>
      </trkpt>
      <trkpt lat="47.52993" lon="6.7631">
        <ele>376.2</ele>
        <time>2017-09-28T16:55:09Z</time>
      </trkpt>
      <trkpt lat="47.52991" lon="6.76316">
        <ele>375.6</ele>
        <time>2017-09-28T16:55:12Z</time>
      </trkpt>
      <trkpt lat="47.5299" lon="6.76317">
        <ele>375.2</ele>
        <time>2017-09-28T16:55:13Z</time>
      </trkpt>
      <trkpt lat="47.52986" lon="6.76314">
        <ele>374.6</ele>
        <time>2017-09-28T16:55:19Z</time>
      </trkpt>
      <trkpt lat="47.52986" lon="6.76313">
        <ele>374.5</ele>
        <time>2017-09-28T16:55:20Z</time>
      </trkpt>
      <trkpt lat="47.52983" lon="6.76309">
        <ele>374.1</ele>
        <time>2017-09-28T16:55:25Z</time>
      </trkpt>
      <trkpt lat="47.52982" lon="6.76307">
        <ele>374</ele>
        <time>2017-09-28T16:55:26Z</time>
      </trkpt>
      <trkpt lat="47.5298" lon="6.76308">
        <ele>373.8</ele>
        <time>2017-09-28T16:55:34Z</time>
      </trkpt>
      <trkpt lat="47.52979" lon="6.76312">
        <ele>373.6</ele>
        <time>2017-09-28T16:55:35Z</time>
      </trkpt>
      <trkpt lat="47.52979" lon="6.76316">
        <ele>373.3</ele>
        <time>2017-09-28T16:56:42Z</time>
      </trkpt>
      <trkpt lat="47.52978" lon="6.7632">
        <ele>373</ele>
        <time>2017-09-28T16:56:43Z</time>
      </trkpt>
      <trkpt lat="47.52977" lon="6.76324">
        <ele>372.8</ele>
        <time>2017-09-28T16:56:44Z</time>
      </trkpt>
      <trkpt lat="47.52976" lon="6.76328">
        <ele>372.6</ele>
        <time>2017-09-28T16:56:45Z</time>
      </trkpt>
      <trkpt lat="47.52976" lon="6.76332">
        <ele>372.4</ele>
        <time>2017-09-28T16:56:46Z</time>
      </trkpt>
      <trkpt lat="47.52977" lon="6.76337">
        <ele>372.2</ele>
        <time>2017-09-28T16:56:47Z</time>
      </trkpt>
      <trkpt lat="47.52976" lon="6.76343">
        <ele>372</ele>
        <time>2017-09-28T16:56:49Z</time>
      </trkpt>
      <trkpt lat="47.52976" lon="6.76345">
        <ele>372</ele>
        <time>2017-09-28T16:56:50Z</time>
      </trkpt>
      <trkpt lat="47.52979" lon="6.76349">
        <ele>372</ele>
        <time>2017-09-28T16:56:51Z</time>
      </trkpt>
      <trkpt lat="47.5298" lon="6.76353">
        <ele>372</ele>
        <time>2017-09-28T16:56:52Z</time>
      </trkpt>
      <trkpt lat="47.52982" lon="6.76357">
        <ele>372</ele>
        <time>2017-09-28T16:56:53Z</time>
      </trkpt>
      <trkpt lat="47.52982" lon="6.76362">
        <ele>372</ele>
        <time>2017-09-28T16:56:54Z</time>
      </trkpt>
      <trkpt lat="47.52983" lon="6.76369">
        <ele>372</ele>
        <time>2017-09-28T16:56:55Z</time>
      </trkpt>
      <trkpt lat="47.52984" lon="6.76373">
        <ele>372</ele>
        <time>2017-09-28T16:56:56Z</time>
      </trkpt>
      <trkpt lat="47.52986" lon="6.76376">
        <ele>371.9</ele>
        <time>2017-09-28T16:56:57Z</time>
      </trkpt>
      <trkpt lat="47.52988" lon="6.76381">
        <ele>371.7</ele>
        <time>2017-09-28T16:56:58Z</time>
      </trkpt>
      <trkpt lat="47.52988" lon="6.76386">
        <ele>371.5</ele>
        <time>2017-09-28T16:56:59Z</time>
      </trkpt>
      <trkpt lat="47.52988" lon="6.76391">
        <ele>371.3</ele>
        <time>2017-09-28T16:57:00Z</time>
      </trkpt>
      <trkpt lat="47.52988" lon="6.76395">
        <ele>371.2</ele>
        <time>2017-09-28T16:57:01Z</time>
      </trkpt>
      <trkpt lat="47.5299" lon="6.764">
        <ele>371</ele>
        <time>2017-09-28T16:57:02Z</time>
      </trkpt>
      <trkpt lat="47.5299" lon="6.76403">
        <ele>370.7</ele>
        <time>2017-09-28T16:57:03Z</time>
      </trkpt>
      <trkpt lat="47.52991" lon="6.76406">
        <ele>370.3</ele>
        <time>2017-09-28T16:57:04Z</time>
      </trkpt>
      <trkpt lat="47.52991" lon="6.76409">
        <ele>370</ele>
        <time>2017-09-28T16:57:05Z</time>
      </trkpt>
      <trkpt lat="47.52991" lon="6.76414">
        <ele>369.5</ele>
        <time>2017-09-28T16:57:06Z</time>
      </trkpt>
      <trkpt lat="47.52992" lon="6.76418">
        <ele>369.1</ele>
        <time>2017-09-28T16:57:07Z</time>
      </trkpt>
      <trkpt lat="47.52992" lon="6.76422">
        <ele>368.8</ele>
        <time>2017-09-28T16:57:08Z</time>
      </trkpt>
      <trkpt lat="47.52993" lon="6.76426">
        <ele>368.4</ele>
        <time>2017-09-28T16:57:09Z</time>
      </trkpt>
      <trkpt lat="47.52994" lon="6.76433">
        <ele>367.6</ele>
        <time>2017-09-28T16:57:10Z</time>
      </trkpt>
      <trkpt lat="47.52994" lon="6.76438">
        <ele>367</ele>
        <time>2017-09-28T16:57:11Z</time>
      </trkpt>
      <trkpt lat="47.52996" lon="6.76443">
        <ele>366.6</ele>
        <time>2017-09-28T16:57:12Z</time>
      </trkpt>
      <trkpt lat="47.52998" lon="6.76447">
        <ele>366.3</ele>
        <time>2017-09-28T16:57:13Z</time>
      </trkpt>
      <trkpt lat="47.53001" lon="6.76451">
        <ele>366</ele>
        <time>2017-09-28T16:57:14Z</time>
      </trkpt>
      <trkpt lat="47.53004" lon="6.76458">
        <ele>365.6</ele>
        <time>2017-09-28T16:57:15Z</time>
      </trkpt>
      <trkpt lat="47.53005" lon="6.76461">
        <ele>365.5</ele>
        <time>2017-09-28T16:57:16Z</time>
      </trkpt>
      <trkpt lat="47.53006" lon="6.76466">
        <ele>365.6</ele>
        <time>2017-09-28T16:57:17Z</time>
      </trkpt>
      <trkpt lat="47.53007" lon="6.76471">
        <ele>365.9</ele>
        <time>2017-09-28T16:57:18Z</time>
      </trkpt>
      <trkpt lat="47.53008" lon="6.76477">
        <ele>366.3</ele>
        <time>2017-09-28T16:57:19Z</time>
      </trkpt>
      <trkpt lat="47.5301" lon="6.76482">
        <ele>366.5</ele>
        <time>2017-09-28T16:57:20Z</time>
      </trkpt>
      <trkpt lat="47.5301" lon="6.76485">
        <ele>366.7</ele>
        <time>2017-09-28T16:57:21Z</time>
      </trkpt>
      <trkpt lat="47.5301" lon="6.76489">
        <ele>366.8</ele>
        <time>2017-09-28T16:57:22Z</time>
      </trkpt>
      <trkpt lat="47.53011" lon="6.76495">
        <ele>367.3</ele>
        <time>2017-09-28T16:57:23Z</time>
      </trkpt>
      <trkpt lat="47.53011" lon="6.76503">
        <ele>367.8</ele>
        <time>2017-09-28T16:57:24Z</time>
      </trkpt>
      <trkpt lat="47.53011" lon="6.7651">
        <ele>367.9</ele>
        <time>2017-09-28T16:57:25Z</time>
      </trkpt>
      <trkpt lat="47.53011" lon="6.76513">
        <ele>367.9</ele>
        <time>2017-09-28T16:57:26Z</time>
      </trkpt>
      <trkpt lat="47.5301" lon="6.76517">
        <ele>367.9</ele>
        <time>2017-09-28T16:57:27Z</time>
      </trkpt>
      <trkpt lat="47.53008" lon="6.76522">
        <ele>367.8</ele>
        <time>2017-09-28T16:57:28Z</time>
      </trkpt>
      <trkpt lat="47.53005" lon="6.76526">
        <ele>367.7</ele>
        <time>2017-09-28T16:57:29Z</time>
      </trkpt>
      <trkpt lat="47.53003" lon="6.76528">
        <ele>367.7</ele>
        <time>2017-09-28T16:57:30Z</time>
      </trkpt>
      <trkpt lat="47.53002" lon="6.76531">
        <ele>367.8</ele>
        <time>2017-09-28T16:57:31Z</time>
      </trkpt>
      <trkpt lat="47.53" lon="6.76533">
        <ele>367.8</ele>
        <time>2017-09-28T16:57:32Z</time>
      </trkpt>
      <trkpt lat="47.52997" lon="6.76536">
        <ele>367.9</ele>
        <time>2017-09-28T16:57:33Z</time>
      </trkpt>
      <trkpt lat="47.52995" lon="6.76538">
        <ele>368.1</ele>
        <time>2017-09-28T16:57:34Z</time>
      </trkpt>
      <trkpt lat="47.52993" lon="6.7654">
        <ele>368.3</ele>
        <time>2017-09-28T16:57:35Z</time>
      </trkpt>
      <trkpt lat="47.52991" lon="6.76543">
        <ele>368.5</ele>
        <time>2017-09-28T16:57:36Z</time>
      </trkpt>
      <trkpt lat="47.52989" lon="6.76544">
        <ele>368.7</ele>
        <time>2017-09-28T16:57:37Z</time>
      </trkpt>
      <trkpt lat="47.52985" lon="6.76547">
        <ele>369.3</ele>
        <time>2017-09-28T16:57:39Z</time>
      </trkpt>
      <trkpt lat="47.52984" lon="6.76549">
        <ele>369.6</ele>
        <time>2017-09-28T16:57:40Z</time>
      </trkpt>
      <trkpt lat="47.5298" lon="6.76551">
        <ele>370</ele>
        <time>2017-09-28T16:57:42Z</time>
      </trkpt>
      <trkpt lat="47.52977" lon="6.76555">
        <ele>370.2</ele>
        <time>2017-09-28T16:57:43Z</time>
      </trkpt>
      <trkpt lat="47.52975" lon="6.7656">
        <ele>370.5</ele>
        <time>2017-09-28T16:57:44Z</time>
      </trkpt>
      <trkpt lat="47.52974" lon="6.76566">
        <ele>370.7</ele>
        <time>2017-09-28T16:57:45Z</time>
      </trkpt>
      <trkpt lat="47.52973" lon="6.7657">
        <ele>370.9</ele>
        <time>2017-09-28T16:57:46Z</time>
      </trkpt>
      <trkpt lat="47.52973" lon="6.76574">
        <ele>371.1</ele>
        <time>2017-09-28T16:57:47Z</time>
      </trkpt>
      <trkpt lat="47.52972" lon="6.76579">
        <ele>371.1</ele>
        <time>2017-09-28T16:57:48Z</time>
      </trkpt>
      <trkpt lat="47.52971" lon="6.76583">
        <ele>371.1</ele>
        <time>2017-09-28T16:57:49Z</time>
      </trkpt>
      <trkpt lat="47.52969" lon="6.76588">
        <ele>371.2</ele>
        <time>2017-09-28T16:57:50Z</time>
      </trkpt>
      <trkpt lat="47.52968" lon="6.76592">
        <ele>371.2</ele>
        <time>2017-09-28T16:57:51Z</time>
      </trkpt>
      <trkpt lat="47.52966" lon="6.76597">
        <ele>371.2</ele>
        <time>2017-09-28T16:57:52Z</time>
      </trkpt>
      <trkpt lat="47.52965" lon="6.766">
        <ele>371.2</ele>
        <time>2017-09-28T16:57:53Z</time>
      </trkpt>
      <trkpt lat="47.52963" lon="6.76603">
        <ele>371.1</ele>
        <time>2017-09-28T16:57:54Z</time>
      </trkpt>
      <trkpt lat="47.52962" lon="6.76606">
        <ele>370.9</ele>
        <time>2017-09-28T16:57:55Z</time>
      </trkpt>
      <trkpt lat="47.52961" lon="6.7661">
        <ele>370.8</ele>
        <time>2017-09-28T16:57:56Z</time>
      </trkpt>
      <trkpt lat="47.52959" lon="6.76615">
        <ele>370.8</ele>
        <time>2017-09-28T16:57:57Z</time>
      </trkpt>
      <trkpt lat="47.52958" lon="6.76621">
        <ele>370.8</ele>
        <time>2017-09-28T16:57:58Z</time>
      </trkpt>
      <trkpt lat="47.52957" lon="6.76627">
        <ele>370.8</ele>
        <time>2017-09-28T16:57:59Z</time>
      </trkpt>
      <trkpt lat="47.52956" lon="6.76632">
        <ele>370.9</ele>
        <time>2017-09-28T16:58:00Z</time>
      </trkpt>
      <trkpt lat="47.52956" lon="6.76635">
        <ele>370.9</ele>
        <time>2017-09-28T16:58:01Z</time>
      </trkpt>
      <trkpt lat="47.52956" lon="6.76639">
        <ele>371</ele>
        <time>2017-09-28T16:58:02Z</time>
      </trkpt>
      <trkpt lat="47.52955" lon="6.76644">
        <ele>371</ele>
        <time>2017-09-28T16:58:03Z</time>
      </trkpt>
      <trkpt lat="47.52954" lon="6.76647">
        <ele>371.1</ele>
        <time>2017-09-28T16:58:04Z</time>
      </trkpt>
      <trkpt lat="47.52954" lon="6.76651">
        <ele>371.1</ele>
        <time>2017-09-28T16:58:05Z</time>
      </trkpt>
      <trkpt lat="47.52953" lon="6.76655">
        <ele>371.1</ele>
        <time>2017-09-28T16:58:06Z</time>
      </trkpt>
      <trkpt lat="47.52952" lon="6.76659">
        <ele>371.1</ele>
        <time>2017-09-28T16:58:07Z</time>
      </trkpt>
      <trkpt lat="47.5295" lon="6.76663">
        <ele>371.1</ele>
        <time>2017-09-28T16:58:08Z</time>
      </trkpt>
      <trkpt lat="47.52949" lon="6.76667">
        <ele>371.1</ele>
        <time>2017-09-28T16:58:09Z</time>
      </trkpt>
      <trkpt lat="47.52947" lon="6.76672">
        <ele>371</ele>
        <time>2017-09-28T16:58:10Z</time>
      </trkpt>
      <trkpt lat="47.52946" lon="6.76675">
        <ele>370.9</ele>
        <time>2017-09-28T16:58:11Z</time>
      </trkpt>
      <trkpt lat="47.52945" lon="6.76679">
        <ele>370.7</ele>
        <time>2017-09-28T16:58:12Z</time>
      </trkpt>
      <trkpt lat="47.52944" lon="6.76682">
        <ele>370.5</ele>
        <time>2017-09-28T16:58:13Z</time>
      </trkpt>
      <trkpt lat="47.52943" lon="6.76684">
        <ele>370.2</ele>
        <time>2017-09-28T16:58:14Z</time>
      </trkpt>
      <trkpt lat="47.52942" lon="6.76689">
        <ele>370</ele>
        <time>2017-09-28T16:58:15Z</time>
      </trkpt>
      <trkpt lat="47.5294" lon="6.76694">
        <ele>369.9</ele>
        <time>2017-09-28T16:58:16Z</time>
      </trkpt>
      <trkpt lat="47.52939" lon="6.76698">
        <ele>369.8</ele>
        <time>2017-09-28T16:58:17Z</time>
      </trkpt>
      <trkpt lat="47.52938" lon="6.76702">
        <ele>369.8</ele>
        <time>2017-09-28T16:58:18Z</time>
      </trkpt>
      <trkpt lat="47.52938" lon="6.76707">
        <ele>369.7</ele>
        <time>2017-09-28T16:58:19Z</time>
      </trkpt>
      <trkpt lat="47.52937" lon="6.76711">
        <ele>369.7</ele>
        <time>2017-09-28T16:58:20Z</time>
      </trkpt>
      <trkpt lat="47.52937" lon="6.76716">
        <ele>369.7</ele>
        <time>2017-09-28T16:58:21Z</time>
      </trkpt>
      <trkpt lat="47.52936" lon="6.7672">
        <ele>369.6</ele>
        <time>2017-09-28T16:58:22Z</time>
      </trkpt>
      <trkpt lat="47.52935" lon="6.76724">
        <ele>369.6</ele>
        <time>2017-09-28T16:58:23Z</time>
      </trkpt>
      <trkpt lat="47.52935" lon="6.76729">
        <ele>369.6</ele>
        <time>2017-09-28T16:58:24Z</time>
      </trkpt>
      <trkpt lat="47.52935" lon="6.76733">
        <ele>369.5</ele>
        <time>2017-09-28T16:58:25Z</time>
      </trkpt>
      <trkpt lat="47.5293" lon="6.76732">
        <ele>369.5</ele>
        <time>2017-09-28T16:58:33Z</time>
      </trkpt>
      <trkpt lat="47.5293" lon="6.76732">
        <ele>369.5</ele>
        <time>2017-09-28T16:58:34Z</time>
      </trkpt>
      <trkpt lat="47.52928" lon="6.76737">
        <ele>369.4</ele>
        <time>2017-09-28T16:58:39Z</time>
      </trkpt>
      <trkpt lat="47.52927" lon="6.76738">
        <ele>369.4</ele>
        <time>2017-09-28T16:58:40Z</time>
      </trkpt>
      <trkpt lat="47.52927" lon="6.76744">
        <ele>369.4</ele>
        <time>2017-09-28T16:58:52Z</time>
      </trkpt>
      <trkpt lat="47.52927" lon="6.76745">
        <ele>369.4</ele>
        <time>2017-09-28T16:58:53Z</time>
      </trkpt>
      <trkpt lat="47.52926" lon="6.76749">
        <ele>369.3</ele>
        <time>2017-09-28T16:58:57Z</time>
      </trkpt>
      <trkpt lat="47.52924" lon="6.7675">
        <ele>369.3</ele>
        <time>2017-09-28T16:58:58Z</time>
      </trkpt>
      <trkpt lat="47.52923" lon="6.76755">
        <ele>369.3</ele>
        <time>2017-09-28T16:59:00Z</time>
      </trkpt>
      <trkpt lat="47.52923" lon="6.76758">
        <ele>369.3</ele>
        <time>2017-09-28T16:59:01Z</time>
      </trkpt>
      <trkpt lat="47.52922" lon="6.76764">
        <ele>369.2</ele>
        <time>2017-09-28T16:59:03Z</time>
      </trkpt>
      <trkpt lat="47.52921" lon="6.76767">
        <ele>369.2</ele>
        <time>2017-09-28T16:59:04Z</time>
      </trkpt>
      <trkpt lat="47.52921" lon="6.76772">
        <ele>369.2</ele>
        <time>2017-09-28T16:59:05Z</time>
      </trkpt>
      <trkpt lat="47.5292" lon="6.76777">
        <ele>369.2</ele>
        <time>2017-09-28T16:59:06Z</time>
      </trkpt>
      <trkpt lat="47.52919" lon="6.76782">
        <ele>369.1</ele>
        <time>2017-09-28T16:59:07Z</time>
      </trkpt>
      <trkpt lat="47.52918" lon="6.76786">
        <ele>369.1</ele>
        <time>2017-09-28T16:59:08Z</time>
      </trkpt>
      <trkpt lat="47.52916" lon="6.76791">
        <ele>369.1</ele>
        <time>2017-09-28T16:59:09Z</time>
      </trkpt>
      <trkpt lat="47.52915" lon="6.76797">
        <ele>369.1</ele>
        <time>2017-09-28T16:59:10Z</time>
      </trkpt>
      <trkpt lat="47.52914" lon="6.768">
        <ele>369.1</ele>
        <time>2017-09-28T16:59:11Z</time>
      </trkpt>
      <trkpt lat="47.52912" lon="6.76804">
        <ele>369.1</ele>
        <time>2017-09-28T16:59:12Z</time>
      </trkpt>
      <trkpt lat="47.52911" lon="6.76807">
        <ele>369</ele>
        <time>2017-09-28T16:59:13Z</time>
      </trkpt>
      <trkpt lat="47.52911" lon="6.76811">
        <ele>369</ele>
        <time>2017-09-28T16:59:14Z</time>
      </trkpt>
      <trkpt lat="47.52909" lon="6.76816">
        <ele>369</ele>
        <time>2017-09-28T16:59:15Z</time>
      </trkpt>
      <trkpt lat="47.52908" lon="6.76819">
        <ele>369</ele>
        <time>2017-09-28T16:59:16Z</time>
      </trkpt>
      <trkpt lat="47.52905" lon="6.76822">
        <ele>369.1</ele>
        <time>2017-09-28T16:59:18Z</time>
      </trkpt>
      <trkpt lat="47.52904" lon="6.76824">
        <ele>369.1</ele>
        <time>2017-09-28T16:59:19Z</time>
      </trkpt>
      <trkpt lat="47.52899" lon="6.76825">
        <ele>369.1</ele>
        <time>2017-09-28T16:59:21Z</time>
      </trkpt>
      <trkpt lat="47.52897" lon="6.76826">
        <ele>369.1</ele>
        <time>2017-09-28T16:59:22Z</time>
      </trkpt>
      <trkpt lat="47.52893" lon="6.76827">
        <ele>369.1</ele>
        <time>2017-09-28T16:59:25Z</time>
      </trkpt>
      <trkpt lat="47.52891" lon="6.76828">
        <ele>369.1</ele>
        <time>2017-09-28T16:59:26Z</time>
      </trkpt>
      <trkpt lat="47.52888" lon="6.76829">
        <ele>369.2</ele>
        <time>2017-09-28T16:59:28Z</time>
      </trkpt>
      <trkpt lat="47.52885" lon="6.76828">
        <ele>369.8</ele>
        <time>2017-09-28T16:59:29Z</time>
      </trkpt>
      <trkpt lat="47.52883" lon="6.76829">
        <ele>370.5</ele>
        <time>2017-09-28T16:59:30Z</time>
      </trkpt>
      <trkpt lat="47.5288" lon="6.76829">
        <ele>370.7</ele>
        <time>2017-09-28T16:59:31Z</time>
      </trkpt>
      <trkpt lat="47.52876" lon="6.76828">
        <ele>371.2</ele>
        <time>2017-09-28T16:59:34Z</time>
      </trkpt>
      <trkpt lat="47.52874" lon="6.76828">
        <ele>371.5</ele>
        <time>2017-09-28T16:59:35Z</time>
      </trkpt>
      <trkpt lat="47.52869" lon="6.76827">
        <ele>372.1</ele>
        <time>2017-09-28T16:59:37Z</time>
      </trkpt>
      <trkpt lat="47.52867" lon="6.76827">
        <ele>372.3</ele>
        <time>2017-09-28T16:59:38Z</time>
      </trkpt>
      <trkpt lat="47.52863" lon="6.76828">
        <ele>372.6</ele>
        <time>2017-09-28T16:59:40Z</time>
      </trkpt>
      <trkpt lat="47.52861" lon="6.76828">
        <ele>372.8</ele>
        <time>2017-09-28T16:59:41Z</time>
      </trkpt>
      <trkpt lat="47.52857" lon="6.7683">
        <ele>373.1</ele>
        <time>2017-09-28T16:59:43Z</time>
      </trkpt>
      <trkpt lat="47.52856" lon="6.76831">
        <ele>373.3</ele>
        <time>2017-09-28T16:59:44Z</time>
      </trkpt>
      <trkpt lat="47.52853" lon="6.76833">
        <ele>373.6</ele>
        <time>2017-09-28T16:59:45Z</time>
      </trkpt>
      <trkpt lat="47.5285" lon="6.76834">
        <ele>374</ele>
        <time>2017-09-28T16:59:46Z</time>
      </trkpt>
      <trkpt lat="47.52847" lon="6.76834">
        <ele>374.1</ele>
        <time>2017-09-28T16:59:47Z</time>
      </trkpt>
      <trkpt lat="47.52845" lon="6.76835">
        <ele>374.3</ele>
        <time>2017-09-28T16:59:48Z</time>
      </trkpt>
      <trkpt lat="47.52841" lon="6.76837">
        <ele>374.6</ele>
        <time>2017-09-28T16:59:50Z</time>
      </trkpt>
      <trkpt lat="47.52839" lon="6.76837">
        <ele>374.8</ele>
        <time>2017-09-28T16:59:51Z</time>
      </trkpt>
      <trkpt lat="47.52835" lon="6.76838">
        <ele>375.5</ele>
        <time>2017-09-28T16:59:53Z</time>
      </trkpt>
      <trkpt lat="47.52832" lon="6.76838">
        <ele>375.9</ele>
        <time>2017-09-28T16:59:54Z</time>
      </trkpt>
      <trkpt lat="47.5283" lon="6.76838">
        <ele>376.1</ele>
        <time>2017-09-28T16:59:55Z</time>
      </trkpt>
      <trkpt lat="47.52827" lon="6.7684">
        <ele>376.3</ele>
        <time>2017-09-28T16:59:56Z</time>
      </trkpt>
      <trkpt lat="47.52825" lon="6.76842">
        <ele>376.5</ele>
        <time>2017-09-28T16:59:57Z</time>
      </trkpt>
      <trkpt lat="47.52822" lon="6.76844">
        <ele>376.8</ele>
        <time>2017-09-28T16:59:58Z</time>
      </trkpt>
      <trkpt lat="47.52819" lon="6.76846">
        <ele>377.3</ele>
        <time>2017-09-28T16:59:59Z</time>
      </trkpt>
      <trkpt lat="47.52816" lon="6.76848">
        <ele>377.7</ele>
        <time>2017-09-28T17:00:00Z</time>
      </trkpt>
      <trkpt lat="47.52814" lon="6.76849">
        <ele>378.1</ele>
        <time>2017-09-28T17:00:01Z</time>
      </trkpt>
      <trkpt lat="47.52812" lon="6.7685">
        <ele>378.2</ele>
        <time>2017-09-28T17:00:02Z</time>
      </trkpt>
      <trkpt lat="47.52808" lon="6.76852">
        <ele>378.5</ele>
        <time>2017-09-28T17:00:04Z</time>
      </trkpt>
      <trkpt lat="47.52806" lon="6.76853">
        <ele>378.6</ele>
        <time>2017-09-28T17:00:05Z</time>
      </trkpt>
      <trkpt lat="47.52804" lon="6.76854">
        <ele>378.8</ele>
        <time>2017-09-28T17:00:06Z</time>
      </trkpt>
      <trkpt lat="47.52801" lon="6.76855">
        <ele>379</ele>
        <time>2017-09-28T17:00:07Z</time>
      </trkpt>
      <trkpt lat="47.52799" lon="6.76856">
        <ele>379.3</ele>
        <time>2017-09-28T17:00:08Z</time>
      </trkpt>
      <trkpt lat="47.52797" lon="6.76857">
        <ele>379.7</ele>
        <time>2017-09-28T17:00:09Z</time>
      </trkpt>
      <trkpt lat="47.52794" lon="6.76858">
        <ele>380.1</ele>
        <time>2017-09-28T17:00:10Z</time>
      </trkpt>
      <trkpt lat="47.52792" lon="6.76858">
        <ele>380.3</ele>
        <time>2017-09-28T17:00:11Z</time>
      </trkpt>
      <trkpt lat="47.52789" lon="6.76859">
        <ele>380.4</ele>
        <time>2017-09-28T17:00:12Z</time>
      </trkpt>
      <trkpt lat="47.52787" lon="6.7686">
        <ele>380.6</ele>
        <time>2017-09-28T17:00:13Z</time>
      </trkpt>
      <trkpt lat="47.52783" lon="6.76861">
        <ele>380.8</ele>
        <time>2017-09-28T17:00:15Z</time>
      </trkpt>
      <trkpt lat="47.5278" lon="6.76862">
        <ele>381</ele>
        <time>2017-09-28T17:00:16Z</time>
      </trkpt>
      <trkpt lat="47.52777" lon="6.76863">
        <ele>381.2</ele>
        <time>2017-09-28T17:00:17Z</time>
      </trkpt>
      <trkpt lat="47.52775" lon="6.76864">
        <ele>381.3</ele>
        <time>2017-09-28T17:00:18Z</time>
      </trkpt>
      <trkpt lat="47.52773" lon="6.76865">
        <ele>381.5</ele>
        <time>2017-09-28T17:00:19Z</time>
      </trkpt>
      <trkpt lat="47.5277" lon="6.76865">
        <ele>381.9</ele>
        <time>2017-09-28T17:00:20Z</time>
      </trkpt>
      <trkpt lat="47.52767" lon="6.76865">
        <ele>382.2</ele>
        <time>2017-09-28T17:00:21Z</time>
      </trkpt>
      <trkpt lat="47.52765" lon="6.76866">
        <ele>382.4</ele>
        <time>2017-09-28T17:00:22Z</time>
      </trkpt>
      <trkpt lat="47.52763" lon="6.76866">
        <ele>382.5</ele>
        <time>2017-09-28T17:00:23Z</time>
      </trkpt>
      <trkpt lat="47.5276" lon="6.76866">
        <ele>383.8</ele>
        <time>2017-09-28T17:00:24Z</time>
      </trkpt>
      <trkpt lat="47.52756" lon="6.76868">
        <ele>385</ele>
        <time>2017-09-28T17:00:26Z</time>
      </trkpt>
      <trkpt lat="47.52753" lon="6.76869">
        <ele>385</ele>
        <time>2017-09-28T17:00:27Z</time>
      </trkpt>
      <trkpt lat="47.52751" lon="6.76869">
        <ele>385</ele>
        <time>2017-09-28T17:00:28Z</time>
      </trkpt>
      <trkpt lat="47.52748" lon="6.76871">
        <ele>385</ele>
        <time>2017-09-28T17:00:29Z</time>
      </trkpt>
      <trkpt lat="47.52744" lon="6.76872">
        <ele>385</ele>
        <time>2017-09-28T17:00:31Z</time>
      </trkpt>
      <trkpt lat="47.52741" lon="6.76872">
        <ele>385.1</ele>
        <time>2017-09-28T17:00:32Z</time>
      </trkpt>
      <trkpt lat="47.52737" lon="6.76874">
        <ele>385.1</ele>
        <time>2017-09-28T17:00:37Z</time>
      </trkpt>
      <trkpt lat="47.52737" lon="6.76873">
        <ele>385.1</ele>
        <time>2017-09-28T17:00:38Z</time>
      </trkpt>
      <trkpt lat="47.52733" lon="6.7687">
        <ele>385.1</ele>
        <time>2017-09-28T17:01:01Z</time>
      </trkpt>
      <trkpt lat="47.52733" lon="6.7687">
        <ele>385.1</ele>
        <time>2017-09-28T17:01:02Z</time>
      </trkpt>
      <trkpt lat="47.52729" lon="6.76871">
        <ele>385.1</ele>
        <time>2017-09-28T17:01:11Z</time>
      </trkpt>
      <trkpt lat="47.52727" lon="6.76872">
        <ele>385.1</ele>
        <time>2017-09-28T17:01:12Z</time>
      </trkpt>
      <trkpt lat="47.52722" lon="6.76873">
        <ele>385.1</ele>
        <time>2017-09-28T17:01:14Z</time>
      </trkpt>
      <trkpt lat="47.5272" lon="6.76874">
        <ele>385.6</ele>
        <time>2017-09-28T17:01:15Z</time>
      </trkpt>
      <trkpt lat="47.52716" lon="6.76875">
        <ele>385.6</ele>
        <time>2017-09-28T17:01:16Z</time>
      </trkpt>
      <trkpt lat="47.52714" lon="6.76877">
        <ele>385.7</ele>
        <time>2017-09-28T17:01:17Z</time>
      </trkpt>
      <trkpt lat="47.52711" lon="6.76878">
        <ele>386.3</ele>
        <time>2017-09-28T17:01:18Z</time>
      </trkpt>
      <trkpt lat="47.52709" lon="6.76879">
        <ele>386.4</ele>
        <time>2017-09-28T17:01:19Z</time>
      </trkpt>
      <trkpt lat="47.52707" lon="6.7688">
        <ele>386.5</ele>
        <time>2017-09-28T17:01:20Z</time>
      </trkpt>
      <trkpt lat="47.52704" lon="6.76881">
        <ele>386.6</ele>
        <time>2017-09-28T17:01:21Z</time>
      </trkpt>
      <trkpt lat="47.52702" lon="6.76882">
        <ele>387.3</ele>
        <time>2017-09-28T17:01:22Z</time>
      </trkpt>
      <trkpt lat="47.52699" lon="6.76884">
        <ele>387.4</ele>
        <time>2017-09-28T17:01:23Z</time>
      </trkpt>
      <trkpt lat="47.52695" lon="6.76886">
        <ele>387.5</ele>
        <time>2017-09-28T17:01:25Z</time>
      </trkpt>
      <trkpt lat="47.52693" lon="6.76887">
        <ele>388.1</ele>
        <time>2017-09-28T17:01:26Z</time>
      </trkpt>
      <trkpt lat="47.5269" lon="6.76889">
        <ele>388.2</ele>
        <time>2017-09-28T17:01:28Z</time>
      </trkpt>
      <trkpt lat="47.52688" lon="6.7689">
        <ele>388.3</ele>
        <time>2017-09-28T17:01:29Z</time>
      </trkpt>
      <trkpt lat="47.52685" lon="6.7689">
        <ele>388.6</ele>
        <time>2017-09-28T17:01:30Z</time>
      </trkpt>
      <trkpt lat="47.52683" lon="6.76891">
        <ele>388.6</ele>
        <time>2017-09-28T17:01:31Z</time>
      </trkpt>
      <trkpt lat="47.5268" lon="6.76891">
        <ele>389.5</ele>
        <time>2017-09-28T17:01:32Z</time>
      </trkpt>
      <trkpt lat="47.52678" lon="6.76893">
        <ele>389.8</ele>
        <time>2017-09-28T17:01:33Z</time>
      </trkpt>
      <trkpt lat="47.52675" lon="6.76894">
        <ele>390.2</ele>
        <time>2017-09-28T17:01:34Z</time>
      </trkpt>
      <trkpt lat="47.52672" lon="6.76893">
        <ele>390.6</ele>
        <time>2017-09-28T17:01:35Z</time>
      </trkpt>
      <trkpt lat="47.52669" lon="6.76893">
        <ele>391.1</ele>
        <time>2017-09-28T17:01:37Z</time>
      </trkpt>
      <trkpt lat="47.52667" lon="6.76893">
        <ele>391.3</ele>
        <time>2017-09-28T17:01:38Z</time>
      </trkpt>
      <trkpt lat="47.52662" lon="6.76893">
        <ele>392.1</ele>
        <time>2017-09-28T17:01:41Z</time>
      </trkpt>
      <trkpt lat="47.5266" lon="6.76893">
        <ele>392.4</ele>
        <time>2017-09-28T17:01:42Z</time>
      </trkpt>
      <trkpt lat="47.52658" lon="6.76893">
        <ele>392.7</ele>
        <time>2017-09-28T17:01:43Z</time>
      </trkpt>
      <trkpt lat="47.52656" lon="6.76892">
        <ele>393.1</ele>
        <time>2017-09-28T17:01:44Z</time>
      </trkpt>
      <trkpt lat="47.52652" lon="6.76892">
        <ele>393.4</ele>
        <time>2017-09-28T17:01:46Z</time>
      </trkpt>
      <trkpt lat="47.52651" lon="6.76892">
        <ele>393.5</ele>
        <time>2017-09-28T17:01:47Z</time>
      </trkpt>
      <trkpt lat="47.52647" lon="6.76893">
        <ele>394.2</ele>
        <time>2017-09-28T17:01:49Z</time>
      </trkpt>
      <trkpt lat="47.52645" lon="6.76893">
        <ele>394.6</ele>
        <time>2017-09-28T17:01:50Z</time>
      </trkpt>
      <trkpt lat="47.52642" lon="6.76894">
        <ele>395</ele>
        <time>2017-09-28T17:01:52Z</time>
      </trkpt>
      <trkpt lat="47.52639" lon="6.76894">
        <ele>395.3</ele>
        <time>2017-09-28T17:01:53Z</time>
      </trkpt>
      <trkpt lat="47.52636" lon="6.76894">
        <ele>395.9</ele>
        <time>2017-09-28T17:01:54Z</time>
      </trkpt>
      <trkpt lat="47.52634" lon="6.76894">
        <ele>396.3</ele>
        <time>2017-09-28T17:01:55Z</time>
      </trkpt>
      <trkpt lat="47.5263" lon="6.76894">
        <ele>396.9</ele>
        <time>2017-09-28T17:01:57Z</time>
      </trkpt>
      <trkpt lat="47.52628" lon="6.76893">
        <ele>397.1</ele>
        <time>2017-09-28T17:01:58Z</time>
      </trkpt>
      <trkpt lat="47.52624" lon="6.76891">
        <ele>397.6</ele>
        <time>2017-09-28T17:02:00Z</time>
      </trkpt>
      <trkpt lat="47.52622" lon="6.76891">
        <ele>397.9</ele>
        <time>2017-09-28T17:02:01Z</time>
      </trkpt>
      <trkpt lat="47.5262" lon="6.7689">
        <ele>398.3</ele>
        <time>2017-09-28T17:02:02Z</time>
      </trkpt>
      <trkpt lat="47.52617" lon="6.76889">
        <ele>398.8</ele>
        <time>2017-09-28T17:02:03Z</time>
      </trkpt>
      <trkpt lat="47.52615" lon="6.76888">
        <ele>399.1</ele>
        <time>2017-09-28T17:02:04Z</time>
      </trkpt>
      <trkpt lat="47.52612" lon="6.76887">
        <ele>399.4</ele>
        <time>2017-09-28T17:02:05Z</time>
      </trkpt>
      <trkpt lat="47.52609" lon="6.76887">
        <ele>399.6</ele>
        <time>2017-09-28T17:02:06Z</time>
      </trkpt>
      <trkpt lat="47.52607" lon="6.76887">
        <ele>399.8</ele>
        <time>2017-09-28T17:02:07Z</time>
      </trkpt>
      <trkpt lat="47.52602" lon="6.76887">
        <ele>400.6</ele>
        <time>2017-09-28T17:02:09Z</time>
      </trkpt>
      <trkpt lat="47.526" lon="6.76888">
        <ele>400.9</ele>
        <time>2017-09-28T17:02:10Z</time>
      </trkpt>
      <trkpt lat="47.52596" lon="6.76887">
        <ele>401.3</ele>
        <time>2017-09-28T17:02:12Z</time>
      </trkpt>
      <trkpt lat="47.52594" lon="6.76888">
        <ele>401.6</ele>
        <time>2017-09-28T17:02:13Z</time>
      </trkpt>
      <trkpt lat="47.5259" lon="6.76889">
        <ele>402.4</ele>
        <time>2017-09-28T17:02:15Z</time>
      </trkpt>
      <trkpt lat="47.52588" lon="6.76889">
        <ele>402.8</ele>
        <time>2017-09-28T17:02:16Z</time>
      </trkpt>
      <trkpt lat="47.52585" lon="6.7689">
        <ele>403.1</ele>
        <time>2017-09-28T17:02:18Z</time>
      </trkpt>
      <trkpt lat="47.52582" lon="6.7689">
        <ele>403.4</ele>
        <time>2017-09-28T17:02:19Z</time>
      </trkpt>
      <trkpt lat="47.52578" lon="6.7689">
        <ele>404.3</ele>
        <time>2017-09-28T17:02:21Z</time>
      </trkpt>
      <trkpt lat="47.52576" lon="6.76889">
        <ele>404.7</ele>
        <time>2017-09-28T17:02:22Z</time>
      </trkpt>
      <trkpt lat="47.52572" lon="6.76888">
        <ele>405.2</ele>
        <time>2017-09-28T17:02:24Z</time>
      </trkpt>
      <trkpt lat="47.52571" lon="6.76887">
        <ele>405.3</ele>
        <time>2017-09-28T17:02:25Z</time>
      </trkpt>
      <trkpt lat="47.52567" lon="6.76886">
        <ele>405.6</ele>
        <time>2017-09-28T17:02:27Z</time>
      </trkpt>
      <trkpt lat="47.52565" lon="6.76886">
        <ele>406</ele>
        <time>2017-09-28T17:02:28Z</time>
      </trkpt>
      <trkpt lat="47.52563" lon="6.76886">
        <ele>406.5</ele>
        <time>2017-09-28T17:02:29Z</time>
      </trkpt>
      <trkpt lat="47.5256" lon="6.76885">
        <ele>407.2</ele>
        <time>2017-09-28T17:02:30Z</time>
      </trkpt>
      <trkpt lat="47.52557" lon="6.76886">
        <ele>407.5</ele>
        <time>2017-09-28T17:02:32Z</time>
      </trkpt>
      <trkpt lat="47.52555" lon="6.76886">
        <ele>407.7</ele>
        <time>2017-09-28T17:02:33Z</time>
      </trkpt>
      <trkpt lat="47.52553" lon="6.76886">
        <ele>407.9</ele>
        <time>2017-09-28T17:02:34Z</time>
      </trkpt>
      <trkpt lat="47.5255" lon="6.76886">
        <ele>408.5</ele>
        <time>2017-09-28T17:02:35Z</time>
      </trkpt>
      <trkpt lat="47.52548" lon="6.76887">
        <ele>409</ele>
        <time>2017-09-28T17:02:36Z</time>
      </trkpt>
      <trkpt lat="47.52546" lon="6.76887">
        <ele>409.4</ele>
        <time>2017-09-28T17:02:37Z</time>
      </trkpt>
      <trkpt lat="47.52543" lon="6.76887">
        <ele>409.7</ele>
        <time>2017-09-28T17:02:38Z</time>
      </trkpt>
      <trkpt lat="47.52541" lon="6.76888">
        <ele>410.1</ele>
        <time>2017-09-28T17:02:39Z</time>
      </trkpt>
      <trkpt lat="47.52538" lon="6.76888">
        <ele>410.6</ele>
        <time>2017-09-28T17:02:40Z</time>
      </trkpt>
      <trkpt lat="47.52536" lon="6.76889">
        <ele>410.9</ele>
        <time>2017-09-28T17:02:41Z</time>
      </trkpt>
      <trkpt lat="47.52532" lon="6.76889">
        <ele>411.4</ele>
        <time>2017-09-28T17:02:43Z</time>
      </trkpt>
      <trkpt lat="47.52529" lon="6.76889">
        <ele>411.7</ele>
        <time>2017-09-28T17:02:44Z</time>
      </trkpt>
      <trkpt lat="47.52526" lon="6.76888">
        <ele>411.9</ele>
        <time>2017-09-28T17:02:45Z</time>
      </trkpt>
      <trkpt lat="47.52524" lon="6.76888">
        <ele>412.1</ele>
        <time>2017-09-28T17:02:46Z</time>
      </trkpt>
      <trkpt lat="47.52521" lon="6.76888">
        <ele>412.4</ele>
        <time>2017-09-28T17:02:47Z</time>
      </trkpt>
      <trkpt lat="47.52519" lon="6.76889">
        <ele>412.8</ele>
        <time>2017-09-28T17:02:48Z</time>
      </trkpt>
      <trkpt lat="47.52515" lon="6.7689">
        <ele>413.4</ele>
        <time>2017-09-28T17:02:50Z</time>
      </trkpt>
      <trkpt lat="47.52513" lon="6.7689">
        <ele>413.6</ele>
        <time>2017-09-28T17:02:51Z</time>
      </trkpt>
      <trkpt lat="47.52509" lon="6.7689">
        <ele>414</ele>
        <time>2017-09-28T17:02:53Z</time>
      </trkpt>
      <trkpt lat="47.52507" lon="6.76891">
        <ele>414.1</ele>
        <time>2017-09-28T17:02:54Z</time>
      </trkpt>
      <trkpt lat="47.52503" lon="6.76891">
        <ele>414.7</ele>
        <time>2017-09-28T17:02:56Z</time>
      </trkpt>
      <trkpt lat="47.52501" lon="6.76891">
        <ele>415</ele>
        <time>2017-09-28T17:02:57Z</time>
      </trkpt>
      <trkpt lat="47.52497" lon="6.76892">
        <ele>415.4</ele>
        <time>2017-09-28T17:02:59Z</time>
      </trkpt>
      <trkpt lat="47.52495" lon="6.76892">
        <ele>415.5</ele>
        <time>2017-09-28T17:03:00Z</time>
      </trkpt>
      <trkpt lat="47.52491" lon="6.76892">
        <ele>416.3</ele>
        <time>2017-09-28T17:03:02Z</time>
      </trkpt>
      <trkpt lat="47.5249" lon="6.76893">
        <ele>416.6</ele>
        <time>2017-09-28T17:03:03Z</time>
      </trkpt>
      <trkpt lat="47.52488" lon="6.76894">
        <ele>417.1</ele>
        <time>2017-09-28T17:03:04Z</time>
      </trkpt>
      <trkpt lat="47.52485" lon="6.76895">
        <ele>417.5</ele>
        <time>2017-09-28T17:03:05Z</time>
      </trkpt>
      <trkpt lat="47.52482" lon="6.76897">
        <ele>418</ele>
        <time>2017-09-28T17:03:09Z</time>
      </trkpt>
      <trkpt lat="47.52481" lon="6.76898">
        <ele>418.1</ele>
        <time>2017-09-28T17:03:10Z</time>
      </trkpt>
      <trkpt lat="47.5248" lon="6.76903">
        <ele>418.6</ele>
        <time>2017-09-28T17:03:13Z</time>
      </trkpt>
      <trkpt lat="47.52479" lon="6.76905">
        <ele>418.9</ele>
        <time>2017-09-28T17:03:14Z</time>
      </trkpt>
      <trkpt lat="47.52475" lon="6.76908">
        <ele>419.3</ele>
        <time>2017-09-28T17:03:31Z</time>
      </trkpt>
      <trkpt lat="47.52474" lon="6.76909">
        <ele>419.4</ele>
        <time>2017-09-28T17:03:32Z</time>
      </trkpt>
      <trkpt lat="47.52472" lon="6.76914">
        <ele>419.6</ele>
        <time>2017-09-28T17:03:44Z</time>
      </trkpt>
      <trkpt lat="47.52472" lon="6.76915">
        <ele>419.6</ele>
        <time>2017-09-28T17:03:45Z</time>
      </trkpt>
      <trkpt lat="47.52475" lon="6.76919">
        <ele>419.7</ele>
        <time>2017-09-28T17:04:00Z</time>
      </trkpt>
      <trkpt lat="47.52476" lon="6.76919">
        <ele>419.7</ele>
        <time>2017-09-28T17:04:01Z</time>
      </trkpt>
      <trkpt lat="47.52473" lon="6.76923">
        <ele>419.7</ele>
        <time>2017-09-28T17:04:07Z</time>
      </trkpt>
      <trkpt lat="47.52472" lon="6.76923">
        <ele>419.7</ele>
        <time>2017-09-28T17:04:08Z</time>
      </trkpt>
      <trkpt lat="47.5247" lon="6.76928">
        <ele>419.8</ele>
        <time>2017-09-28T17:04:11Z</time>
      </trkpt>
      <trkpt lat="47.5247" lon="6.7693">
        <ele>419.8</ele>
        <time>2017-09-28T17:04:12Z</time>
      </trkpt>
      <trkpt lat="47.52469" lon="6.76936">
        <ele>419.8</ele>
        <time>2017-09-28T17:04:14Z</time>
      </trkpt>
      <trkpt lat="47.52467" lon="6.76939">
        <ele>419.8</ele>
        <time>2017-09-28T17:04:15Z</time>
      </trkpt>
      <trkpt lat="47.52464" lon="6.76944">
        <ele>419.8</ele>
        <time>2017-09-28T17:04:17Z</time>
      </trkpt>
      <trkpt lat="47.52462" lon="6.76946">
        <ele>419.8</ele>
        <time>2017-09-28T17:04:18Z</time>
      </trkpt>
      <trkpt lat="47.5246" lon="6.76949">
        <ele>419.8</ele>
        <time>2017-09-28T17:04:19Z</time>
      </trkpt>
      <trkpt lat="47.52458" lon="6.76952">
        <ele>419.7</ele>
        <time>2017-09-28T17:04:20Z</time>
      </trkpt>
      <trkpt lat="47.52457" lon="6.76955">
        <ele>419.7</ele>
        <time>2017-09-28T17:04:21Z</time>
      </trkpt>
      <trkpt lat="47.52454" lon="6.76959">
        <ele>419.7</ele>
        <time>2017-09-28T17:04:22Z</time>
      </trkpt>
      <trkpt lat="47.52451" lon="6.76963">
        <ele>419.6</ele>
        <time>2017-09-28T17:04:23Z</time>
      </trkpt>
      <trkpt lat="47.5245" lon="6.76966">
        <ele>419.6</ele>
        <time>2017-09-28T17:04:24Z</time>
      </trkpt>
      <trkpt lat="47.52449" lon="6.76969">
        <ele>419.6</ele>
        <time>2017-09-28T17:04:25Z</time>
      </trkpt>
      <trkpt lat="47.52447" lon="6.76972">
        <ele>419.5</ele>
        <time>2017-09-28T17:04:26Z</time>
      </trkpt>
      <trkpt lat="47.52445" lon="6.76978">
        <ele>419.4</ele>
        <time>2017-09-28T17:04:28Z</time>
      </trkpt>
      <trkpt lat="47.52444" lon="6.7698">
        <ele>419.4</ele>
        <time>2017-09-28T17:04:29Z</time>
      </trkpt>
      <trkpt lat="47.52443" lon="6.76983">
        <ele>419.3</ele>
        <time>2017-09-28T17:04:30Z</time>
      </trkpt>
      <trkpt lat="47.52442" lon="6.76987">
        <ele>419.3</ele>
        <time>2017-09-28T17:04:31Z</time>
      </trkpt>
      <trkpt lat="47.52441" lon="6.7699">
        <ele>419.2</ele>
        <time>2017-09-28T17:04:32Z</time>
      </trkpt>
      <trkpt lat="47.5244" lon="6.76995">
        <ele>419</ele>
        <time>2017-09-28T17:04:33Z</time>
      </trkpt>
      <trkpt lat="47.52438" lon="6.76999">
        <ele>418.7</ele>
        <time>2017-09-28T17:04:34Z</time>
      </trkpt>
      <trkpt lat="47.52437" lon="6.77003">
        <ele>418.4</ele>
        <time>2017-09-28T17:04:35Z</time>
      </trkpt>
      <trkpt lat="47.52436" lon="6.77007">
        <ele>418.1</ele>
        <time>2017-09-28T17:04:36Z</time>
      </trkpt>
      <trkpt lat="47.52434" lon="6.7701">
        <ele>417.8</ele>
        <time>2017-09-28T17:04:37Z</time>
      </trkpt>
      <trkpt lat="47.52433" lon="6.77013">
        <ele>417.5</ele>
        <time>2017-09-28T17:04:38Z</time>
      </trkpt>
      <trkpt lat="47.52432" lon="6.77016">
        <ele>417.1</ele>
        <time>2017-09-28T17:04:39Z</time>
      </trkpt>
      <trkpt lat="47.5243" lon="6.7702">
        <ele>416.6</ele>
        <time>2017-09-28T17:04:41Z</time>
      </trkpt>
      <trkpt lat="47.52429" lon="6.77023">
        <ele>416.3</ele>
        <time>2017-09-28T17:04:42Z</time>
      </trkpt>
      <trkpt lat="47.52427" lon="6.77028">
        <ele>415.8</ele>
        <time>2017-09-28T17:04:43Z</time>
      </trkpt>
      <trkpt lat="47.52425" lon="6.77032">
        <ele>415.4</ele>
        <time>2017-09-28T17:04:44Z</time>
      </trkpt>
      <trkpt lat="47.52423" lon="6.77035">
        <ele>415.1</ele>
        <time>2017-09-28T17:04:45Z</time>
      </trkpt>
      <trkpt lat="47.52422" lon="6.77038">
        <ele>414.9</ele>
        <time>2017-09-28T17:04:46Z</time>
      </trkpt>
      <trkpt lat="47.52421" lon="6.77041">
        <ele>414.6</ele>
        <time>2017-09-28T17:04:47Z</time>
      </trkpt>
      <trkpt lat="47.5242" lon="6.77044">
        <ele>414.4</ele>
        <time>2017-09-28T17:04:48Z</time>
      </trkpt>
      <trkpt lat="47.52419" lon="6.77047">
        <ele>414.1</ele>
        <time>2017-09-28T17:04:49Z</time>
      </trkpt>
      <trkpt lat="47.52417" lon="6.77051">
        <ele>413.9</ele>
        <time>2017-09-28T17:04:50Z</time>
      </trkpt>
      <trkpt lat="47.52416" lon="6.77055">
        <ele>413.6</ele>
        <time>2017-09-28T17:04:51Z</time>
      </trkpt>
      <trkpt lat="47.52414" lon="6.77057">
        <ele>413.4</ele>
        <time>2017-09-28T17:04:52Z</time>
      </trkpt>
      <trkpt lat="47.52413" lon="6.7706">
        <ele>413.1</ele>
        <time>2017-09-28T17:04:53Z</time>
      </trkpt>
      <trkpt lat="47.52411" lon="6.77065">
        <ele>412.8</ele>
        <time>2017-09-28T17:04:54Z</time>
      </trkpt>
      <trkpt lat="47.5241" lon="6.77069">
        <ele>412.6</ele>
        <time>2017-09-28T17:04:55Z</time>
      </trkpt>
      <trkpt lat="47.52409" lon="6.77073">
        <ele>412.4</ele>
        <time>2017-09-28T17:04:56Z</time>
      </trkpt>
      <trkpt lat="47.52407" lon="6.77076">
        <ele>412.2</ele>
        <time>2017-09-28T17:04:57Z</time>
      </trkpt>
      <trkpt lat="47.52405" lon="6.77079">
        <ele>412</ele>
        <time>2017-09-28T17:04:58Z</time>
      </trkpt>
      <trkpt lat="47.52403" lon="6.77083">
        <ele>411.7</ele>
        <time>2017-09-28T17:04:59Z</time>
      </trkpt>
      <trkpt lat="47.52402" lon="6.77087">
        <ele>411.4</ele>
        <time>2017-09-28T17:05:00Z</time>
      </trkpt>
      <trkpt lat="47.524" lon="6.7709">
        <ele>411.2</ele>
        <time>2017-09-28T17:05:01Z</time>
      </trkpt>
      <trkpt lat="47.52398" lon="6.77094">
        <ele>410.8</ele>
        <time>2017-09-28T17:05:02Z</time>
      </trkpt>
      <trkpt lat="47.52396" lon="6.77099">
        <ele>410.4</ele>
        <time>2017-09-28T17:05:03Z</time>
      </trkpt>
      <trkpt lat="47.52395" lon="6.77103">
        <ele>410.1</ele>
        <time>2017-09-28T17:05:04Z</time>
      </trkpt>
      <trkpt lat="47.52393" lon="6.77107">
        <ele>409.7</ele>
        <time>2017-09-28T17:05:05Z</time>
      </trkpt>
      <trkpt lat="47.52391" lon="6.77111">
        <ele>409.4</ele>
        <time>2017-09-28T17:05:06Z</time>
      </trkpt>
      <trkpt lat="47.52389" lon="6.77114">
        <ele>409</ele>
        <time>2017-09-28T17:05:07Z</time>
      </trkpt>
      <trkpt lat="47.52387" lon="6.77117">
        <ele>408.7</ele>
        <time>2017-09-28T17:05:08Z</time>
      </trkpt>
      <trkpt lat="47.52386" lon="6.77119">
        <ele>408.4</ele>
        <time>2017-09-28T17:05:09Z</time>
      </trkpt>
      <trkpt lat="47.52384" lon="6.77123">
        <ele>408</ele>
        <time>2017-09-28T17:05:10Z</time>
      </trkpt>
      <trkpt lat="47.52382" lon="6.77126">
        <ele>407.6</ele>
        <time>2017-09-28T17:05:11Z</time>
      </trkpt>
      <trkpt lat="47.5238" lon="6.77129">
        <ele>407.1</ele>
        <time>2017-09-28T17:05:12Z</time>
      </trkpt>
      <trkpt lat="47.52378" lon="6.77132">
        <ele>406.6</ele>
        <time>2017-09-28T17:05:13Z</time>
      </trkpt>
      <trkpt lat="47.52377" lon="6.77136">
        <ele>406.3</ele>
        <time>2017-09-28T17:05:14Z</time>
      </trkpt>
      <trkpt lat="47.52376" lon="6.77139">
        <ele>406</ele>
        <time>2017-09-28T17:05:15Z</time>
      </trkpt>
      <trkpt lat="47.52374" lon="6.77143">
        <ele>405.6</ele>
        <time>2017-09-28T17:05:16Z</time>
      </trkpt>
      <trkpt lat="47.52373" lon="6.77147">
        <ele>405.3</ele>
        <time>2017-09-28T17:05:17Z</time>
      </trkpt>
      <trkpt lat="47.52371" lon="6.77151">
        <ele>405.1</ele>
        <time>2017-09-28T17:05:18Z</time>
      </trkpt>
      <trkpt lat="47.52369" lon="6.77156">
        <ele>404.7</ele>
        <time>2017-09-28T17:05:20Z</time>
      </trkpt>
      <trkpt lat="47.52367" lon="6.77159">
        <ele>404.4</ele>
        <time>2017-09-28T17:05:21Z</time>
      </trkpt>
      <trkpt lat="47.52366" lon="6.77163">
        <ele>404.2</ele>
        <time>2017-09-28T17:05:22Z</time>
      </trkpt>
      <trkpt lat="47.52364" lon="6.77167">
        <ele>403.9</ele>
        <time>2017-09-28T17:05:23Z</time>
      </trkpt>
      <trkpt lat="47.52363" lon="6.7717">
        <ele>403.7</ele>
        <time>2017-09-28T17:05:24Z</time>
      </trkpt>
      <trkpt lat="47.52362" lon="6.77174">
        <ele>403.5</ele>
        <time>2017-09-28T17:05:25Z</time>
      </trkpt>
      <trkpt lat="47.5236" lon="6.77178">
        <ele>403.3</ele>
        <time>2017-09-28T17:05:26Z</time>
      </trkpt>
      <trkpt lat="47.5236" lon="6.77181">
        <ele>403.2</ele>
        <time>2017-09-28T17:05:27Z</time>
      </trkpt>
      <trkpt lat="47.52359" lon="6.77183">
        <ele>403</ele>
        <time>2017-09-28T17:05:28Z</time>
      </trkpt>
      <trkpt lat="47.52357" lon="6.77186">
        <ele>402.8</ele>
        <time>2017-09-28T17:05:29Z</time>
      </trkpt>
      <trkpt lat="47.52355" lon="6.77191">
        <ele>402.5</ele>
        <time>2017-09-28T17:05:31Z</time>
      </trkpt>
      <trkpt lat="47.52353" lon="6.77195">
        <ele>402.3</ele>
        <time>2017-09-28T17:05:32Z</time>
      </trkpt>
      <trkpt lat="47.52352" lon="6.77197">
        <ele>402.1</ele>
        <time>2017-09-28T17:05:33Z</time>
      </trkpt>
      <trkpt lat="47.52351" lon="6.77202">
        <ele>401.9</ele>
        <time>2017-09-28T17:05:34Z</time>
      </trkpt>
      <trkpt lat="47.52349" lon="6.77206">
        <ele>401.7</ele>
        <time>2017-09-28T17:05:35Z</time>
      </trkpt>
      <trkpt lat="47.52348" lon="6.77209">
        <ele>401.5</ele>
        <time>2017-09-28T17:05:36Z</time>
      </trkpt>
      <trkpt lat="47.52347" lon="6.77212">
        <ele>401.4</ele>
        <time>2017-09-28T17:05:37Z</time>
      </trkpt>
      <trkpt lat="47.52347" lon="6.77216">
        <ele>401.3</ele>
        <time>2017-09-28T17:05:38Z</time>
      </trkpt>
      <trkpt lat="47.52347" lon="6.7722">
        <ele>401.2</ele>
        <time>2017-09-28T17:05:39Z</time>
      </trkpt>
      <trkpt lat="47.52347" lon="6.77223">
        <ele>401.1</ele>
        <time>2017-09-28T17:05:40Z</time>
      </trkpt>
      <trkpt lat="47.52346" lon="6.77229">
        <ele>400.9</ele>
        <time>2017-09-28T17:05:42Z</time>
      </trkpt>
      <trkpt lat="47.52345" lon="6.77233">
        <ele>400.8</ele>
        <time>2017-09-28T17:05:43Z</time>
      </trkpt>
      <trkpt lat="47.52343" lon="6.77238">
        <ele>400.7</ele>
        <time>2017-09-28T17:05:44Z</time>
      </trkpt>
      <trkpt lat="47.52343" lon="6.77242">
        <ele>400.6</ele>
        <time>2017-09-28T17:05:45Z</time>
      </trkpt>
      <trkpt lat="47.52342" lon="6.77246">
        <ele>400.5</ele>
        <time>2017-09-28T17:05:46Z</time>
      </trkpt>
      <trkpt lat="47.52341" lon="6.7725">
        <ele>400.3</ele>
        <time>2017-09-28T17:05:47Z</time>
      </trkpt>
      <trkpt lat="47.5234" lon="6.77254">
        <ele>400.1</ele>
        <time>2017-09-28T17:05:48Z</time>
      </trkpt>
      <trkpt lat="47.52339" lon="6.77258">
        <ele>399.9</ele>
        <time>2017-09-28T17:05:49Z</time>
      </trkpt>
      <trkpt lat="47.52338" lon="6.77263">
        <ele>399.7</ele>
        <time>2017-09-28T17:05:50Z</time>
      </trkpt>
      <trkpt lat="47.52337" lon="6.77267">
        <ele>399.5</ele>
        <time>2017-09-28T17:05:51Z</time>
      </trkpt>
      <trkpt lat="47.52336" lon="6.77271">
        <ele>399.3</ele>
        <time>2017-09-28T17:05:52Z</time>
      </trkpt>
      <trkpt lat="47.52335" lon="6.77276">
        <ele>399</ele>
        <time>2017-09-28T17:05:53Z</time>
      </trkpt>
      <trkpt lat="47.52335" lon="6.7728">
        <ele>398.8</ele>
        <time>2017-09-28T17:05:54Z</time>
      </trkpt>
      <trkpt lat="47.52335" lon="6.77284">
        <ele>398.7</ele>
        <time>2017-09-28T17:05:55Z</time>
      </trkpt>
      <trkpt lat="47.52334" lon="6.77288">
        <ele>398.4</ele>
        <time>2017-09-28T17:05:56Z</time>
      </trkpt>
      <trkpt lat="47.52334" lon="6.77293">
        <ele>398.2</ele>
        <time>2017-09-28T17:05:57Z</time>
      </trkpt>
      <trkpt lat="47.52334" lon="6.77296">
        <ele>398</ele>
        <time>2017-09-28T17:05:58Z</time>
      </trkpt>
      <trkpt lat="47.52334" lon="6.77301">
        <ele>397.8</ele>
        <time>2017-09-28T17:05:59Z</time>
      </trkpt>
      <trkpt lat="47.52333" lon="6.77306">
        <ele>397.5</ele>
        <time>2017-09-28T17:06:00Z</time>
      </trkpt>
      <trkpt lat="47.52333" lon="6.7731">
        <ele>397.3</ele>
        <time>2017-09-28T17:06:01Z</time>
      </trkpt>
      <trkpt lat="47.52334" lon="6.77314">
        <ele>397.1</ele>
        <time>2017-09-28T17:06:02Z</time>
      </trkpt>
      <trkpt lat="47.52335" lon="6.77317">
        <ele>396.9</ele>
        <time>2017-09-28T17:06:03Z</time>
      </trkpt>
      <trkpt lat="47.52336" lon="6.77321">
        <ele>396.7</ele>
        <time>2017-09-28T17:06:04Z</time>
      </trkpt>
      <trkpt lat="47.52338" lon="6.77326">
        <ele>396.4</ele>
        <time>2017-09-28T17:06:05Z</time>
      </trkpt>
      <trkpt lat="47.5234" lon="6.7733">
        <ele>396.2</ele>
        <time>2017-09-28T17:06:06Z</time>
      </trkpt>
      <trkpt lat="47.52341" lon="6.77335">
        <ele>395.9</ele>
        <time>2017-09-28T17:06:07Z</time>
      </trkpt>
      <trkpt lat="47.52342" lon="6.77338">
        <ele>395.8</ele>
        <time>2017-09-28T17:06:08Z</time>
      </trkpt>
      <trkpt lat="47.52342" lon="6.77342">
        <ele>395.6</ele>
        <time>2017-09-28T17:06:09Z</time>
      </trkpt>
      <trkpt lat="47.52344" lon="6.77348">
        <ele>395.3</ele>
        <time>2017-09-28T17:06:10Z</time>
      </trkpt>
      <trkpt lat="47.52345" lon="6.77351">
        <ele>395.1</ele>
        <time>2017-09-28T17:06:11Z</time>
      </trkpt>
      <trkpt lat="47.52347" lon="6.77356">
        <ele>394.8</ele>
        <time>2017-09-28T17:06:12Z</time>
      </trkpt>
      <trkpt lat="47.52348" lon="6.7736">
        <ele>394.7</ele>
        <time>2017-09-28T17:06:13Z</time>
      </trkpt>
      <trkpt lat="47.52348" lon="6.77365">
        <ele>394.5</ele>
        <time>2017-09-28T17:06:14Z</time>
      </trkpt>
      <trkpt lat="47.52348" lon="6.77368">
        <ele>394.5</ele>
        <time>2017-09-28T17:06:15Z</time>
      </trkpt>
      <trkpt lat="47.52349" lon="6.77373">
        <ele>394.4</ele>
        <time>2017-09-28T17:06:17Z</time>
      </trkpt>
      <trkpt lat="47.5235" lon="6.77377">
        <ele>394.4</ele>
        <time>2017-09-28T17:06:18Z</time>
      </trkpt>
      <trkpt lat="47.52351" lon="6.7738">
        <ele>394.4</ele>
        <time>2017-09-28T17:06:19Z</time>
      </trkpt>
      <trkpt lat="47.52352" lon="6.77384">
        <ele>394.4</ele>
        <time>2017-09-28T17:06:20Z</time>
      </trkpt>
      <trkpt lat="47.52353" lon="6.77388">
        <ele>394.4</ele>
        <time>2017-09-28T17:06:21Z</time>
      </trkpt>
      <trkpt lat="47.52355" lon="6.77393">
        <ele>394.3</ele>
        <time>2017-09-28T17:06:22Z</time>
      </trkpt>
      <trkpt lat="47.52356" lon="6.77397">
        <ele>394.3</ele>
        <time>2017-09-28T17:06:23Z</time>
      </trkpt>
      <trkpt lat="47.52357" lon="6.774">
        <ele>394.3</ele>
        <time>2017-09-28T17:06:24Z</time>
      </trkpt>
      <trkpt lat="47.52358" lon="6.77404">
        <ele>394.3</ele>
        <time>2017-09-28T17:06:26Z</time>
      </trkpt>
      <trkpt lat="47.5236" lon="6.77407">
        <ele>394.3</ele>
        <time>2017-09-28T17:06:27Z</time>
      </trkpt>
      <trkpt lat="47.52362" lon="6.7741">
        <ele>394.3</ele>
        <time>2017-09-28T17:06:29Z</time>
      </trkpt>
      <trkpt lat="47.52364" lon="6.77413">
        <ele>394.3</ele>
        <time>2017-09-28T17:06:30Z</time>
      </trkpt>
      <trkpt lat="47.52368" lon="6.77416">
        <ele>394.2</ele>
        <time>2017-09-28T17:06:32Z</time>
      </trkpt>
      <trkpt lat="47.52369" lon="6.77419">
        <ele>394.2</ele>
        <time>2017-09-28T17:06:33Z</time>
      </trkpt>
      <trkpt lat="47.52372" lon="6.77421">
        <ele>394.2</ele>
        <time>2017-09-28T17:06:34Z</time>
      </trkpt>
      <trkpt lat="47.52374" lon="6.77423">
        <ele>394.1</ele>
        <time>2017-09-28T17:06:35Z</time>
      </trkpt>
      <trkpt lat="47.52376" lon="6.77425">
        <ele>394.1</ele>
        <time>2017-09-28T17:06:36Z</time>
      </trkpt>
      <trkpt lat="47.52379" lon="6.77427">
        <ele>394</ele>
        <time>2017-09-28T17:06:37Z</time>
      </trkpt>
      <trkpt lat="47.52381" lon="6.77429">
        <ele>394</ele>
        <time>2017-09-28T17:06:38Z</time>
      </trkpt>
      <trkpt lat="47.52384" lon="6.77432">
        <ele>393.9</ele>
        <time>2017-09-28T17:06:39Z</time>
      </trkpt>
      <trkpt lat="47.52386" lon="6.77434">
        <ele>393.9</ele>
        <time>2017-09-28T17:06:40Z</time>
      </trkpt>
      <trkpt lat="47.52389" lon="6.77437">
        <ele>393.8</ele>
        <time>2017-09-28T17:06:41Z</time>
      </trkpt>
      <trkpt lat="47.52392" lon="6.77439">
        <ele>393.7</ele>
        <time>2017-09-28T17:06:42Z</time>
      </trkpt>
      <trkpt lat="47.52394" lon="6.77441">
        <ele>393.7</ele>
        <time>2017-09-28T17:06:43Z</time>
      </trkpt>
      <trkpt lat="47.52396" lon="6.77443">
        <ele>393.6</ele>
        <time>2017-09-28T17:06:44Z</time>
      </trkpt>
      <trkpt lat="47.52399" lon="6.77445">
        <ele>393.5</ele>
        <time>2017-09-28T17:06:45Z</time>
      </trkpt>
      <trkpt lat="47.52401" lon="6.77447">
        <ele>393.4</ele>
        <time>2017-09-28T17:06:46Z</time>
      </trkpt>
      <trkpt lat="47.52403" lon="6.77448">
        <ele>393.4</ele>
        <time>2017-09-28T17:06:47Z</time>
      </trkpt>
      <trkpt lat="47.52405" lon="6.7745">
        <ele>393.2</ele>
        <time>2017-09-28T17:06:49Z</time>
      </trkpt>
      <trkpt lat="47.52407" lon="6.77452">
        <ele>392.9</ele>
        <time>2017-09-28T17:06:50Z</time>
      </trkpt>
      <trkpt lat="47.52408" lon="6.77457">
        <ele>392.5</ele>
        <time>2017-09-28T17:06:53Z</time>
      </trkpt>
      <trkpt lat="47.52408" lon="6.77459">
        <ele>391.9</ele>
        <time>2017-09-28T17:06:54Z</time>
      </trkpt>
      <trkpt lat="47.52405" lon="6.77464">
        <ele>391.8</ele>
        <time>2017-09-28T17:06:58Z</time>
      </trkpt>
      <trkpt lat="47.52405" lon="6.77464">
        <ele>391.8</ele>
        <time>2017-09-28T17:06:59Z</time>
      </trkpt>
      <trkpt lat="47.52402" lon="6.77465">
        <ele>391.7</ele>
        <time>2017-09-28T17:07:01Z</time>
      </trkpt>
      <trkpt lat="47.52399" lon="6.77467">
        <ele>391.7</ele>
        <time>2017-09-28T17:07:02Z</time>
      </trkpt>
      <trkpt lat="47.52397" lon="6.77471">
        <ele>391.6</ele>
        <time>2017-09-28T17:07:03Z</time>
      </trkpt>
      <trkpt lat="47.52395" lon="6.77473">
        <ele>391.6</ele>
        <time>2017-09-28T17:07:04Z</time>
      </trkpt>
      <trkpt lat="47.52393" lon="6.77475">
        <ele>391.5</ele>
        <time>2017-09-28T17:07:05Z</time>
      </trkpt>
      <trkpt lat="47.52391" lon="6.77477">
        <ele>391.4</ele>
        <time>2017-09-28T17:07:06Z</time>
      </trkpt>
      <trkpt lat="47.52389" lon="6.77479">
        <ele>391.3</ele>
        <time>2017-09-28T17:07:07Z</time>
      </trkpt>
      <trkpt lat="47.52386" lon="6.77481">
        <ele>391.1</ele>
        <time>2017-09-28T17:07:08Z</time>
      </trkpt>
      <trkpt lat="47.52384" lon="6.77483">
        <ele>390.9</ele>
        <time>2017-09-28T17:07:09Z</time>
      </trkpt>
      <trkpt lat="47.52382" lon="6.77485">
        <ele>390.6</ele>
        <time>2017-09-28T17:07:10Z</time>
      </trkpt>
      <trkpt lat="47.52379" lon="6.77487">
        <ele>390.3</ele>
        <time>2017-09-28T17:07:11Z</time>
      </trkpt>
      <trkpt lat="47.52377" lon="6.77489">
        <ele>390.1</ele>
        <time>2017-09-28T17:07:12Z</time>
      </trkpt>
      <trkpt lat="47.52374" lon="6.7749">
        <ele>389.8</ele>
        <time>2017-09-28T17:07:13Z</time>
      </trkpt>
      <trkpt lat="47.52372" lon="6.77493">
        <ele>389.6</ele>
        <time>2017-09-28T17:07:14Z</time>
      </trkpt>
      <trkpt lat="47.5237" lon="6.77495">
        <ele>389.4</ele>
        <time>2017-09-28T17:07:15Z</time>
      </trkpt>
      <trkpt lat="47.52367" lon="6.77498">
        <ele>389.3</ele>
        <time>2017-09-28T17:07:16Z</time>
      </trkpt>
      <trkpt lat="47.52364" lon="6.775">
        <ele>389.2</ele>
        <time>2017-09-28T17:07:17Z</time>
      </trkpt>
      <trkpt lat="47.52362" lon="6.77501">
        <ele>389.1</ele>
        <time>2017-09-28T17:07:18Z</time>
      </trkpt>
      <trkpt lat="47.52359" lon="6.77503">
        <ele>389</ele>
        <time>2017-09-28T17:07:19Z</time>
      </trkpt>
      <trkpt lat="47.52357" lon="6.77505">
        <ele>389</ele>
        <time>2017-09-28T17:07:20Z</time>
      </trkpt>
      <trkpt lat="47.52354" lon="6.77506">
        <ele>388.9</ele>
        <time>2017-09-28T17:07:21Z</time>
      </trkpt>
      <trkpt lat="47.52351" lon="6.77508">
        <ele>388.9</ele>
        <time>2017-09-28T17:07:22Z</time>
      </trkpt>
      <trkpt lat="47.52349" lon="6.7751">
        <ele>388.8</ele>
        <time>2017-09-28T17:07:23Z</time>
      </trkpt>
      <trkpt lat="47.52346" lon="6.77513">
        <ele>388.8</ele>
        <time>2017-09-28T17:07:24Z</time>
      </trkpt>
      <trkpt lat="47.52343" lon="6.77514">
        <ele>388.7</ele>
        <time>2017-09-28T17:07:25Z</time>
      </trkpt>
      <trkpt lat="47.5234" lon="6.77516">
        <ele>388.6</ele>
        <time>2017-09-28T17:07:26Z</time>
      </trkpt>
      <trkpt lat="47.52337" lon="6.77518">
        <ele>388.6</ele>
        <time>2017-09-28T17:07:27Z</time>
      </trkpt>
      <trkpt lat="47.52335" lon="6.7752">
        <ele>388.6</ele>
        <time>2017-09-28T17:07:28Z</time>
      </trkpt>
      <trkpt lat="47.52332" lon="6.77522">
        <ele>388.5</ele>
        <time>2017-09-28T17:07:29Z</time>
      </trkpt>
      <trkpt lat="47.52329" lon="6.77523">
        <ele>388.5</ele>
        <time>2017-09-28T17:07:30Z</time>
      </trkpt>
      <trkpt lat="47.52326" lon="6.77525">
        <ele>388.4</ele>
        <time>2017-09-28T17:07:31Z</time>
      </trkpt>
      <trkpt lat="47.52323" lon="6.77527">
        <ele>388.4</ele>
        <time>2017-09-28T17:07:32Z</time>
      </trkpt>
      <trkpt lat="47.5232" lon="6.77529">
        <ele>388.3</ele>
        <time>2017-09-28T17:07:33Z</time>
      </trkpt>
      <trkpt lat="47.52317" lon="6.7753">
        <ele>388.3</ele>
        <time>2017-09-28T17:07:34Z</time>
      </trkpt>
      <trkpt lat="47.52314" lon="6.77532">
        <ele>388.3</ele>
        <time>2017-09-28T17:07:35Z</time>
      </trkpt>
      <trkpt lat="47.52311" lon="6.77535">
        <ele>388.2</ele>
        <time>2017-09-28T17:07:36Z</time>
      </trkpt>
      <trkpt lat="47.52308" lon="6.77535">
        <ele>388.2</ele>
        <time>2017-09-28T17:07:37Z</time>
      </trkpt>
      <trkpt lat="47.52306" lon="6.77537">
        <ele>388.2</ele>
        <time>2017-09-28T17:07:38Z</time>
      </trkpt>
      <trkpt lat="47.52304" lon="6.77539">
        <ele>388.2</ele>
        <time>2017-09-28T17:07:39Z</time>
      </trkpt>
      <trkpt lat="47.52302" lon="6.77539">
        <ele>388.2</ele>
        <time>2017-09-28T17:07:40Z</time>
      </trkpt>
      <trkpt lat="47.523" lon="6.77541">
        <ele>388.1</ele>
        <time>2017-09-28T17:07:41Z</time>
      </trkpt>
      <trkpt lat="47.52297" lon="6.77543">
        <ele>388.1</ele>
        <time>2017-09-28T17:07:42Z</time>
      </trkpt>
      <trkpt lat="47.52294" lon="6.77545">
        <ele>388.1</ele>
        <time>2017-09-28T17:07:43Z</time>
      </trkpt>
      <trkpt lat="47.52291" lon="6.77548">
        <ele>388</ele>
        <time>2017-09-28T17:07:44Z</time>
      </trkpt>
      <trkpt lat="47.52288" lon="6.7755">
        <ele>388</ele>
        <time>2017-09-28T17:07:45Z</time>
      </trkpt>
      <trkpt lat="47.52285" lon="6.77552">
        <ele>387.9</ele>
        <time>2017-09-28T17:07:46Z</time>
      </trkpt>
      <trkpt lat="47.52282" lon="6.77554">
        <ele>387.9</ele>
        <time>2017-09-28T17:07:47Z</time>
      </trkpt>
      <trkpt lat="47.52279" lon="6.77556">
        <ele>387.8</ele>
        <time>2017-09-28T17:07:48Z</time>
      </trkpt>
      <trkpt lat="47.52276" lon="6.77558">
        <ele>387.8</ele>
        <time>2017-09-28T17:07:49Z</time>
      </trkpt>
      <trkpt lat="47.52273" lon="6.7756">
        <ele>387.8</ele>
        <time>2017-09-28T17:07:50Z</time>
      </trkpt>
      <trkpt lat="47.5227" lon="6.77561">
        <ele>387.7</ele>
        <time>2017-09-28T17:07:51Z</time>
      </trkpt>
      <trkpt lat="47.52268" lon="6.77563">
        <ele>387.7</ele>
        <time>2017-09-28T17:07:52Z</time>
      </trkpt>
      <trkpt lat="47.52265" lon="6.77564">
        <ele>387.7</ele>
        <time>2017-09-28T17:07:53Z</time>
      </trkpt>
      <trkpt lat="47.52262" lon="6.77566">
        <ele>387.6</ele>
        <time>2017-09-28T17:07:54Z</time>
      </trkpt>
      <trkpt lat="47.52259" lon="6.77568">
        <ele>387.6</ele>
        <time>2017-09-28T17:07:55Z</time>
      </trkpt>
      <trkpt lat="47.52257" lon="6.7757">
        <ele>387.6</ele>
        <time>2017-09-28T17:07:56Z</time>
      </trkpt>
      <trkpt lat="47.52253" lon="6.77572">
        <ele>387.6</ele>
        <time>2017-09-28T17:07:57Z</time>
      </trkpt>
      <trkpt lat="47.5225" lon="6.77574">
        <ele>387.6</ele>
        <time>2017-09-28T17:07:58Z</time>
      </trkpt>
      <trkpt lat="47.52247" lon="6.77577">
        <ele>387.5</ele>
        <time>2017-09-28T17:07:59Z</time>
      </trkpt>
      <trkpt lat="47.52245" lon="6.77579">
        <ele>387.5</ele>
        <time>2017-09-28T17:08:00Z</time>
      </trkpt>
      <trkpt lat="47.52242" lon="6.77581">
        <ele>387.5</ele>
        <time>2017-09-28T17:08:01Z</time>
      </trkpt>
      <trkpt lat="47.52239" lon="6.77583">
        <ele>387.5</ele>
        <time>2017-09-28T17:08:02Z</time>
      </trkpt>
      <trkpt lat="47.52237" lon="6.77585">
        <ele>387.5</ele>
        <time>2017-09-28T17:08:03Z</time>
      </trkpt>
      <trkpt lat="47.52235" lon="6.77586">
        <ele>387.5</ele>
        <time>2017-09-28T17:08:04Z</time>
      </trkpt>
      <trkpt lat="47.52232" lon="6.77588">
        <ele>387.5</ele>
        <time>2017-09-28T17:08:05Z</time>
      </trkpt>
      <trkpt lat="47.52229" lon="6.7759">
        <ele>387.5</ele>
        <time>2017-09-28T17:08:06Z</time>
      </trkpt>
      <trkpt lat="47.52227" lon="6.77592">
        <ele>387.5</ele>
        <time>2017-09-28T17:08:07Z</time>
      </trkpt>
      <trkpt lat="47.52224" lon="6.77593">
        <ele>387.6</ele>
        <time>2017-09-28T17:08:08Z</time>
      </trkpt>
      <trkpt lat="47.52222" lon="6.77595">
        <ele>387.7</ele>
        <time>2017-09-28T17:08:09Z</time>
      </trkpt>
      <trkpt lat="47.52219" lon="6.77597">
        <ele>387.7</ele>
        <time>2017-09-28T17:08:10Z</time>
      </trkpt>
      <trkpt lat="47.52216" lon="6.77598">
        <ele>387.8</ele>
        <time>2017-09-28T17:08:11Z</time>
      </trkpt>
      <trkpt lat="47.52213" lon="6.776">
        <ele>387.9</ele>
        <time>2017-09-28T17:08:12Z</time>
      </trkpt>
      <trkpt lat="47.5221" lon="6.77602">
        <ele>388.1</ele>
        <time>2017-09-28T17:08:13Z</time>
      </trkpt>
      <trkpt lat="47.52208" lon="6.77604">
        <ele>388.2</ele>
        <time>2017-09-28T17:08:14Z</time>
      </trkpt>
      <trkpt lat="47.52205" lon="6.77606">
        <ele>388.3</ele>
        <time>2017-09-28T17:08:15Z</time>
      </trkpt>
      <trkpt lat="47.52203" lon="6.77609">
        <ele>388.4</ele>
        <time>2017-09-28T17:08:16Z</time>
      </trkpt>
      <trkpt lat="47.522" lon="6.77611">
        <ele>388.6</ele>
        <time>2017-09-28T17:08:17Z</time>
      </trkpt>
      <trkpt lat="47.52198" lon="6.77613">
        <ele>388.6</ele>
        <time>2017-09-28T17:08:18Z</time>
      </trkpt>
      <trkpt lat="47.52196" lon="6.77615">
        <ele>388.7</ele>
        <time>2017-09-28T17:08:19Z</time>
      </trkpt>
      <trkpt lat="47.52193" lon="6.77617">
        <ele>388.7</ele>
        <time>2017-09-28T17:08:20Z</time>
      </trkpt>
      <trkpt lat="47.52191" lon="6.77618">
        <ele>388.8</ele>
        <time>2017-09-28T17:08:21Z</time>
      </trkpt>
      <trkpt lat="47.52189" lon="6.7762">
        <ele>388.9</ele>
        <time>2017-09-28T17:08:22Z</time>
      </trkpt>
      <trkpt lat="47.52186" lon="6.77622">
        <ele>388.9</ele>
        <time>2017-09-28T17:08:23Z</time>
      </trkpt>
      <trkpt lat="47.52184" lon="6.77623">
        <ele>389</ele>
        <time>2017-09-28T17:08:24Z</time>
      </trkpt>
      <trkpt lat="47.52182" lon="6.77625">
        <ele>389</ele>
        <time>2017-09-28T17:08:25Z</time>
      </trkpt>
      <trkpt lat="47.5218" lon="6.77626">
        <ele>389.1</ele>
        <time>2017-09-28T17:08:26Z</time>
      </trkpt>
      <trkpt lat="47.52177" lon="6.77628">
        <ele>389.3</ele>
        <time>2017-09-28T17:08:27Z</time>
      </trkpt>
      <trkpt lat="47.52175" lon="6.7763">
        <ele>389.4</ele>
        <time>2017-09-28T17:08:28Z</time>
      </trkpt>
      <trkpt lat="47.52172" lon="6.77632">
        <ele>389.5</ele>
        <time>2017-09-28T17:08:29Z</time>
      </trkpt>
      <trkpt lat="47.52169" lon="6.77634">
        <ele>389.7</ele>
        <time>2017-09-28T17:08:30Z</time>
      </trkpt>
      <trkpt lat="47.52167" lon="6.77636">
        <ele>389.8</ele>
        <time>2017-09-28T17:08:31Z</time>
      </trkpt>
      <trkpt lat="47.52164" lon="6.77637">
        <ele>390</ele>
        <time>2017-09-28T17:08:32Z</time>
      </trkpt>
      <trkpt lat="47.52162" lon="6.77639">
        <ele>390.1</ele>
        <time>2017-09-28T17:08:33Z</time>
      </trkpt>
      <trkpt lat="47.5216" lon="6.77641">
        <ele>390.2</ele>
        <time>2017-09-28T17:08:34Z</time>
      </trkpt>
      <trkpt lat="47.52157" lon="6.77643">
        <ele>390.4</ele>
        <time>2017-09-28T17:08:35Z</time>
      </trkpt>
      <trkpt lat="47.52155" lon="6.77644">
        <ele>390.5</ele>
        <time>2017-09-28T17:08:36Z</time>
      </trkpt>
      <trkpt lat="47.52152" lon="6.77645">
        <ele>390.5</ele>
        <time>2017-09-28T17:08:37Z</time>
      </trkpt>
      <trkpt lat="47.52149" lon="6.77647">
        <ele>390.6</ele>
        <time>2017-09-28T17:08:38Z</time>
      </trkpt>
      <trkpt lat="47.52146" lon="6.77649">
        <ele>390.7</ele>
        <time>2017-09-28T17:08:39Z</time>
      </trkpt>
      <trkpt lat="47.52144" lon="6.7765">
        <ele>390.8</ele>
        <time>2017-09-28T17:08:40Z</time>
      </trkpt>
      <trkpt lat="47.52141" lon="6.77652">
        <ele>390.9</ele>
        <time>2017-09-28T17:08:42Z</time>
      </trkpt>
      <trkpt lat="47.52139" lon="6.77653">
        <ele>390.9</ele>
        <time>2017-09-28T17:08:43Z</time>
      </trkpt>
      <trkpt lat="47.52137" lon="6.77654">
        <ele>391</ele>
        <time>2017-09-28T17:08:44Z</time>
      </trkpt>
      <trkpt lat="47.52134" lon="6.77655">
        <ele>391.1</ele>
        <time>2017-09-28T17:08:45Z</time>
      </trkpt>
      <trkpt lat="47.52131" lon="6.77656">
        <ele>391.2</ele>
        <time>2017-09-28T17:08:46Z</time>
      </trkpt>
      <trkpt lat="47.52128" lon="6.77657">
        <ele>391.4</ele>
        <time>2017-09-28T17:08:47Z</time>
      </trkpt>
      <trkpt lat="47.52126" lon="6.77659">
        <ele>391.5</ele>
        <time>2017-09-28T17:08:48Z</time>
      </trkpt>
      <trkpt lat="47.52123" lon="6.7766">
        <ele>391.7</ele>
        <time>2017-09-28T17:08:49Z</time>
      </trkpt>
      <trkpt lat="47.5212" lon="6.77662">
        <ele>391.8</ele>
        <time>2017-09-28T17:08:50Z</time>
      </trkpt>
      <trkpt lat="47.52118" lon="6.77664">
        <ele>392</ele>
        <time>2017-09-28T17:08:51Z</time>
      </trkpt>
      <trkpt lat="47.52115" lon="6.77665">
        <ele>392.1</ele>
        <time>2017-09-28T17:08:52Z</time>
      </trkpt>
      <trkpt lat="47.52113" lon="6.77667">
        <ele>392.2</ele>
        <time>2017-09-28T17:08:53Z</time>
      </trkpt>
      <trkpt lat="47.5211" lon="6.77668">
        <ele>392.3</ele>
        <time>2017-09-28T17:08:54Z</time>
      </trkpt>
      <trkpt lat="47.52108" lon="6.7767">
        <ele>392.5</ele>
        <time>2017-09-28T17:08:55Z</time>
      </trkpt>
      <trkpt lat="47.52106" lon="6.77672">
        <ele>392.6</ele>
        <time>2017-09-28T17:08:56Z</time>
      </trkpt>
      <trkpt lat="47.52104" lon="6.77673">
        <ele>392.7</ele>
        <time>2017-09-28T17:08:57Z</time>
      </trkpt>
      <trkpt lat="47.52101" lon="6.77673">
        <ele>392.8</ele>
        <time>2017-09-28T17:08:59Z</time>
      </trkpt>
      <trkpt lat="47.521" lon="6.77671">
        <ele>392.9</ele>
        <time>2017-09-28T17:09:00Z</time>
      </trkpt>
      <trkpt lat="47.52099" lon="6.77667">
        <ele>392.9</ele>
        <time>2017-09-28T17:09:01Z</time>
      </trkpt>
      <trkpt lat="47.52099" lon="6.77664">
        <ele>392.8</ele>
        <time>2017-09-28T17:09:02Z</time>
      </trkpt>
      <trkpt lat="47.52098" lon="6.77657">
        <ele>392.8</ele>
        <time>2017-09-28T17:09:04Z</time>
      </trkpt>
      <trkpt lat="47.52099" lon="6.77654">
        <ele>392.7</ele>
        <time>2017-09-28T17:09:05Z</time>
      </trkpt>
      <trkpt lat="47.52098" lon="6.77648">
        <ele>392.7</ele>
        <time>2017-09-28T17:09:11Z</time>
      </trkpt>
      <trkpt lat="47.52098" lon="6.77647">
        <ele>392.7</ele>
        <time>2017-09-28T17:09:12Z</time>
      </trkpt>
      <trkpt lat="47.52099" lon="6.77643">
        <ele>392.6</ele>
        <time>2017-09-28T17:09:37Z</time>
      </trkpt>
      <trkpt lat="47.52099" lon="6.77639">
        <ele>392.5</ele>
        <time>2017-09-28T17:09:38Z</time>
      </trkpt>
      <trkpt lat="47.52098" lon="6.77636">
        <ele>392.4</ele>
        <time>2017-09-28T17:09:39Z</time>
      </trkpt>
      <trkpt lat="47.52098" lon="6.77631">
        <ele>392.3</ele>
        <time>2017-09-28T17:09:40Z</time>
      </trkpt>
      <trkpt lat="47.52098" lon="6.77625">
        <ele>392.1</ele>
        <time>2017-09-28T17:09:41Z</time>
      </trkpt>
      <trkpt lat="47.52098" lon="6.7762">
        <ele>392</ele>
        <time>2017-09-28T17:09:42Z</time>
      </trkpt>
      <trkpt lat="47.52097" lon="6.77616">
        <ele>391.8</ele>
        <time>2017-09-28T17:09:43Z</time>
      </trkpt>
      <trkpt lat="47.52097" lon="6.77612">
        <ele>391.7</ele>
        <time>2017-09-28T17:09:44Z</time>
      </trkpt>
      <trkpt lat="47.52097" lon="6.77607">
        <ele>391.6</ele>
        <time>2017-09-28T17:09:45Z</time>
      </trkpt>
      <trkpt lat="47.52097" lon="6.77603">
        <ele>391.5</ele>
        <time>2017-09-28T17:09:46Z</time>
      </trkpt>
      <trkpt lat="47.52097" lon="6.77598">
        <ele>391.5</ele>
        <time>2017-09-28T17:09:47Z</time>
      </trkpt>
      <trkpt lat="47.52097" lon="6.77593">
        <ele>391.5</ele>
        <time>2017-09-28T17:09:48Z</time>
      </trkpt>
      <trkpt lat="47.52097" lon="6.77588">
        <ele>391.4</ele>
        <time>2017-09-28T17:09:49Z</time>
      </trkpt>
      <trkpt lat="47.52097" lon="6.77584">
        <ele>391.3</ele>
        <time>2017-09-28T17:09:50Z</time>
      </trkpt>
      <trkpt lat="47.52097" lon="6.7758">
        <ele>391.2</ele>
        <time>2017-09-28T17:09:51Z</time>
      </trkpt>
      <trkpt lat="47.52097" lon="6.77576">
        <ele>391.1</ele>
        <time>2017-09-28T17:09:52Z</time>
      </trkpt>
      <trkpt lat="47.52097" lon="6.77572">
        <ele>390.9</ele>
        <time>2017-09-28T17:09:53Z</time>
      </trkpt>
      <trkpt lat="47.52096" lon="6.77568">
        <ele>390.7</ele>
        <time>2017-09-28T17:09:54Z</time>
      </trkpt>
      <trkpt lat="47.52095" lon="6.77564">
        <ele>390.5</ele>
        <time>2017-09-28T17:09:55Z</time>
      </trkpt>
      <trkpt lat="47.52093" lon="6.77562">
        <ele>390.3</ele>
        <time>2017-09-28T17:09:56Z</time>
      </trkpt>
      <trkpt lat="47.52091" lon="6.77559">
        <ele>390.1</ele>
        <time>2017-09-28T17:09:57Z</time>
      </trkpt>
      <trkpt lat="47.52089" lon="6.77556">
        <ele>390</ele>
        <time>2017-09-28T17:09:58Z</time>
      </trkpt>
      <trkpt lat="47.52087" lon="6.77554">
        <ele>389.8</ele>
        <time>2017-09-28T17:09:59Z</time>
      </trkpt>
      <trkpt lat="47.52085" lon="6.77552">
        <ele>389.7</ele>
        <time>2017-09-28T17:10:00Z</time>
      </trkpt>
      <trkpt lat="47.52082" lon="6.77551">
        <ele>389.6</ele>
        <time>2017-09-28T17:10:01Z</time>
      </trkpt>
      <trkpt lat="47.52079" lon="6.77549">
        <ele>389.4</ele>
        <time>2017-09-28T17:10:02Z</time>
      </trkpt>
      <trkpt lat="47.52076" lon="6.77548">
        <ele>389.3</ele>
        <time>2017-09-28T17:10:03Z</time>
      </trkpt>
      <trkpt lat="47.52073" lon="6.77548">
        <ele>389.3</ele>
        <time>2017-09-28T17:10:04Z</time>
      </trkpt>
      <trkpt lat="47.5207" lon="6.77547">
        <ele>389.2</ele>
        <time>2017-09-28T17:10:05Z</time>
      </trkpt>
      <trkpt lat="47.52067" lon="6.77547">
        <ele>389.2</ele>
        <time>2017-09-28T17:10:06Z</time>
      </trkpt>
      <trkpt lat="47.52064" lon="6.77547">
        <ele>389.2</ele>
        <time>2017-09-28T17:10:07Z</time>
      </trkpt>
      <trkpt lat="47.52062" lon="6.77546">
        <ele>389.2</ele>
        <time>2017-09-28T17:10:08Z</time>
      </trkpt>
      <trkpt lat="47.52059" lon="6.77546">
        <ele>389.2</ele>
        <time>2017-09-28T17:10:09Z</time>
      </trkpt>
      <trkpt lat="47.52056" lon="6.77545">
        <ele>389.2</ele>
        <time>2017-09-28T17:10:10Z</time>
      </trkpt>
      <trkpt lat="47.52053" lon="6.77545">
        <ele>389.2</ele>
        <time>2017-09-28T17:10:11Z</time>
      </trkpt>
      <trkpt lat="47.5205" lon="6.77544">
        <ele>389.3</ele>
        <time>2017-09-28T17:10:12Z</time>
      </trkpt>
      <trkpt lat="47.52046" lon="6.77544">
        <ele>389.3</ele>
        <time>2017-09-28T17:10:13Z</time>
      </trkpt>
      <trkpt lat="47.52044" lon="6.77543">
        <ele>389.3</ele>
        <time>2017-09-28T17:10:14Z</time>
      </trkpt>
      <trkpt lat="47.52042" lon="6.77543">
        <ele>389.3</ele>
        <time>2017-09-28T17:10:15Z</time>
      </trkpt>
      <trkpt lat="47.52039" lon="6.77542">
        <ele>389.3</ele>
        <time>2017-09-28T17:10:16Z</time>
      </trkpt>
      <trkpt lat="47.52036" lon="6.77542">
        <ele>389.3</ele>
        <time>2017-09-28T17:10:17Z</time>
      </trkpt>
      <trkpt lat="47.52033" lon="6.77542">
        <ele>389.3</ele>
        <time>2017-09-28T17:10:18Z</time>
      </trkpt>
      <trkpt lat="47.5203" lon="6.77541">
        <ele>389.3</ele>
        <time>2017-09-28T17:10:19Z</time>
      </trkpt>
      <trkpt lat="47.52027" lon="6.77542">
        <ele>389.3</ele>
        <time>2017-09-28T17:10:20Z</time>
      </trkpt>
      <trkpt lat="47.52025" lon="6.77541">
        <ele>389.2</ele>
        <time>2017-09-28T17:10:21Z</time>
      </trkpt>
      <trkpt lat="47.52022" lon="6.77541">
        <ele>389.2</ele>
        <time>2017-09-28T17:10:22Z</time>
      </trkpt>
      <trkpt lat="47.52019" lon="6.77541">
        <ele>389.1</ele>
        <time>2017-09-28T17:10:23Z</time>
      </trkpt>
      <trkpt lat="47.52017" lon="6.7754">
        <ele>389.1</ele>
        <time>2017-09-28T17:10:24Z</time>
      </trkpt>
      <trkpt lat="47.52014" lon="6.77539">
        <ele>389.1</ele>
        <time>2017-09-28T17:10:25Z</time>
      </trkpt>
      <trkpt lat="47.52011" lon="6.77538">
        <ele>389.1</ele>
        <time>2017-09-28T17:10:26Z</time>
      </trkpt>
      <trkpt lat="47.52007" lon="6.77537">
        <ele>389</ele>
        <time>2017-09-28T17:10:27Z</time>
      </trkpt>
      <trkpt lat="47.52005" lon="6.77536">
        <ele>389</ele>
        <time>2017-09-28T17:10:28Z</time>
      </trkpt>
      <trkpt lat="47.52002" lon="6.77536">
        <ele>388.8</ele>
        <time>2017-09-28T17:10:29Z</time>
      </trkpt>
      <trkpt lat="47.51998" lon="6.77535">
        <ele>388.7</ele>
        <time>2017-09-28T17:10:30Z</time>
      </trkpt>
      <trkpt lat="47.51996" lon="6.77535">
        <ele>388.5</ele>
        <time>2017-09-28T17:10:31Z</time>
      </trkpt>
      <trkpt lat="47.51993" lon="6.77534">
        <ele>388.3</ele>
        <time>2017-09-28T17:10:32Z</time>
      </trkpt>
      <trkpt lat="47.5199" lon="6.77533">
        <ele>388.2</ele>
        <time>2017-09-28T17:10:33Z</time>
      </trkpt>
      <trkpt lat="47.51988" lon="6.77533">
        <ele>388.1</ele>
        <time>2017-09-28T17:10:34Z</time>
      </trkpt>
      <trkpt lat="47.51985" lon="6.77533">
        <ele>388</ele>
        <time>2017-09-28T17:10:35Z</time>
      </trkpt>
      <trkpt lat="47.51982" lon="6.77532">
        <ele>388</ele>
        <time>2017-09-28T17:10:36Z</time>
      </trkpt>
      <trkpt lat="47.51978" lon="6.77531">
        <ele>388</ele>
        <time>2017-09-28T17:10:38Z</time>
      </trkpt>
      <trkpt lat="47.51975" lon="6.7753">
        <ele>388</ele>
        <time>2017-09-28T17:10:39Z</time>
      </trkpt>
      <trkpt lat="47.51972" lon="6.77529">
        <ele>388</ele>
        <time>2017-09-28T17:10:40Z</time>
      </trkpt>
      <trkpt lat="47.51969" lon="6.77529">
        <ele>388</ele>
        <time>2017-09-28T17:10:41Z</time>
      </trkpt>
      <trkpt lat="47.51966" lon="6.77528">
        <ele>388.1</ele>
        <time>2017-09-28T17:10:42Z</time>
      </trkpt>
      <trkpt lat="47.51963" lon="6.77527">
        <ele>388.1</ele>
        <time>2017-09-28T17:10:43Z</time>
      </trkpt>
      <trkpt lat="47.5196" lon="6.77527">
        <ele>388.2</ele>
        <time>2017-09-28T17:10:44Z</time>
      </trkpt>
      <trkpt lat="47.51958" lon="6.77526">
        <ele>388.2</ele>
        <time>2017-09-28T17:10:45Z</time>
      </trkpt>
      <trkpt lat="47.51955" lon="6.77526">
        <ele>388.2</ele>
        <time>2017-09-28T17:10:46Z</time>
      </trkpt>
      <trkpt lat="47.51953" lon="6.77525">
        <ele>388.3</ele>
        <time>2017-09-28T17:10:47Z</time>
      </trkpt>
      <trkpt lat="47.5195" lon="6.77524">
        <ele>388.3</ele>
        <time>2017-09-28T17:10:48Z</time>
      </trkpt>
      <trkpt lat="47.51947" lon="6.77524">
        <ele>388.4</ele>
        <time>2017-09-28T17:10:49Z</time>
      </trkpt>
      <trkpt lat="47.51944" lon="6.77523">
        <ele>388.4</ele>
        <time>2017-09-28T17:10:50Z</time>
      </trkpt>
      <trkpt lat="47.51942" lon="6.77523">
        <ele>388.4</ele>
        <time>2017-09-28T17:10:51Z</time>
      </trkpt>
      <trkpt lat="47.51939" lon="6.77522">
        <ele>388.3</ele>
        <time>2017-09-28T17:10:52Z</time>
      </trkpt>
      <trkpt lat="47.51937" lon="6.77522">
        <ele>388.2</ele>
        <time>2017-09-28T17:10:53Z</time>
      </trkpt>
      <trkpt lat="47.51934" lon="6.77521">
        <ele>388.2</ele>
        <time>2017-09-28T17:10:54Z</time>
      </trkpt>
      <trkpt lat="47.51931" lon="6.7752">
        <ele>388</ele>
        <time>2017-09-28T17:10:55Z</time>
      </trkpt>
      <trkpt lat="47.51929" lon="6.7752">
        <ele>387.9</ele>
        <time>2017-09-28T17:10:56Z</time>
      </trkpt>
      <trkpt lat="47.51926" lon="6.77519">
        <ele>387.8</ele>
        <time>2017-09-28T17:10:57Z</time>
      </trkpt>
      <trkpt lat="47.51923" lon="6.77519">
        <ele>387.6</ele>
        <time>2017-09-28T17:10:58Z</time>
      </trkpt>
      <trkpt lat="47.5192" lon="6.77518">
        <ele>387.4</ele>
        <time>2017-09-28T17:10:59Z</time>
      </trkpt>
      <trkpt lat="47.51917" lon="6.77517">
        <ele>387.1</ele>
        <time>2017-09-28T17:11:00Z</time>
      </trkpt>
      <trkpt lat="47.51913" lon="6.77515">
        <ele>386.9</ele>
        <time>2017-09-28T17:11:01Z</time>
      </trkpt>
      <trkpt lat="47.5191" lon="6.77514">
        <ele>386.6</ele>
        <time>2017-09-28T17:11:02Z</time>
      </trkpt>
      <trkpt lat="47.51907" lon="6.77513">
        <ele>386.5</ele>
        <time>2017-09-28T17:11:03Z</time>
      </trkpt>
      <trkpt lat="47.51904" lon="6.77513">
        <ele>386.4</ele>
        <time>2017-09-28T17:11:04Z</time>
      </trkpt>
      <trkpt lat="47.51902" lon="6.77512">
        <ele>386.2</ele>
        <time>2017-09-28T17:11:05Z</time>
      </trkpt>
      <trkpt lat="47.51899" lon="6.77511">
        <ele>386.1</ele>
        <time>2017-09-28T17:11:06Z</time>
      </trkpt>
      <trkpt lat="47.51896" lon="6.7751">
        <ele>385.9</ele>
        <time>2017-09-28T17:11:07Z</time>
      </trkpt>
      <trkpt lat="47.51893" lon="6.77508">
        <ele>385.7</ele>
        <time>2017-09-28T17:11:08Z</time>
      </trkpt>
      <trkpt lat="47.51889" lon="6.77507">
        <ele>385.5</ele>
        <time>2017-09-28T17:11:09Z</time>
      </trkpt>
      <trkpt lat="47.51887" lon="6.77507">
        <ele>385.4</ele>
        <time>2017-09-28T17:11:10Z</time>
      </trkpt>
      <trkpt lat="47.51884" lon="6.77506">
        <ele>385.2</ele>
        <time>2017-09-28T17:11:11Z</time>
      </trkpt>
      <trkpt lat="47.5188" lon="6.77505">
        <ele>385.1</ele>
        <time>2017-09-28T17:11:12Z</time>
      </trkpt>
      <trkpt lat="47.51877" lon="6.77504">
        <ele>384.9</ele>
        <time>2017-09-28T17:11:13Z</time>
      </trkpt>
      <trkpt lat="47.51874" lon="6.77504">
        <ele>384.7</ele>
        <time>2017-09-28T17:11:14Z</time>
      </trkpt>
      <trkpt lat="47.51871" lon="6.77503">
        <ele>384.5</ele>
        <time>2017-09-28T17:11:15Z</time>
      </trkpt>
      <trkpt lat="47.51868" lon="6.77503">
        <ele>384.3</ele>
        <time>2017-09-28T17:11:16Z</time>
      </trkpt>
      <trkpt lat="47.51864" lon="6.77503">
        <ele>384.2</ele>
        <time>2017-09-28T17:11:17Z</time>
      </trkpt>
      <trkpt lat="47.51861" lon="6.77503">
        <ele>384</ele>
        <time>2017-09-28T17:11:18Z</time>
      </trkpt>
      <trkpt lat="47.51859" lon="6.77503">
        <ele>383.8</ele>
        <time>2017-09-28T17:11:19Z</time>
      </trkpt>
      <trkpt lat="47.51855" lon="6.77504">
        <ele>383.6</ele>
        <time>2017-09-28T17:11:20Z</time>
      </trkpt>
      <trkpt lat="47.51852" lon="6.77505">
        <ele>383.4</ele>
        <time>2017-09-28T17:11:21Z</time>
      </trkpt>
      <trkpt lat="47.51848" lon="6.77506">
        <ele>383.3</ele>
        <time>2017-09-28T17:11:22Z</time>
      </trkpt>
      <trkpt lat="47.51846" lon="6.77505">
        <ele>383.2</ele>
        <time>2017-09-28T17:11:23Z</time>
      </trkpt>
      <trkpt lat="47.51844" lon="6.77505">
        <ele>383.2</ele>
        <time>2017-09-28T17:11:24Z</time>
      </trkpt>
      <trkpt lat="47.51841" lon="6.77504">
        <ele>383.1</ele>
        <time>2017-09-28T17:11:25Z</time>
      </trkpt>
      <trkpt lat="47.51838" lon="6.77503">
        <ele>383</ele>
        <time>2017-09-28T17:11:26Z</time>
      </trkpt>
      <trkpt lat="47.51835" lon="6.77502">
        <ele>382.8</ele>
        <time>2017-09-28T17:11:27Z</time>
      </trkpt>
      <trkpt lat="47.51833" lon="6.77502">
        <ele>382.7</ele>
        <time>2017-09-28T17:11:28Z</time>
      </trkpt>
      <trkpt lat="47.51829" lon="6.77501">
        <ele>382.6</ele>
        <time>2017-09-28T17:11:29Z</time>
      </trkpt>
      <trkpt lat="47.51825" lon="6.775">
        <ele>382.5</ele>
        <time>2017-09-28T17:11:30Z</time>
      </trkpt>
      <trkpt lat="47.51822" lon="6.775">
        <ele>382.4</ele>
        <time>2017-09-28T17:11:31Z</time>
      </trkpt>
      <trkpt lat="47.51819" lon="6.77499">
        <ele>382.4</ele>
        <time>2017-09-28T17:11:32Z</time>
      </trkpt>
      <trkpt lat="47.51816" lon="6.77499">
        <ele>382.4</ele>
        <time>2017-09-28T17:11:33Z</time>
      </trkpt>
      <trkpt lat="47.51813" lon="6.77497">
        <ele>382.5</ele>
        <time>2017-09-28T17:11:35Z</time>
      </trkpt>
      <trkpt lat="47.51811" lon="6.77496">
        <ele>382.6</ele>
        <time>2017-09-28T17:11:36Z</time>
      </trkpt>
      <trkpt lat="47.51809" lon="6.77493">
        <ele>382.6</ele>
        <time>2017-09-28T17:11:38Z</time>
      </trkpt>
      <trkpt lat="47.51808" lon="6.77491">
        <ele>382.7</ele>
        <time>2017-09-28T17:11:39Z</time>
      </trkpt>
      <trkpt lat="47.51804" lon="6.77488">
        <ele>382.8</ele>
        <time>2017-09-28T17:11:42Z</time>
      </trkpt>
      <trkpt lat="47.51802" lon="6.77487">
        <ele>382.8</ele>
        <time>2017-09-28T17:11:43Z</time>
      </trkpt>
      <trkpt lat="47.51799" lon="6.77483">
        <ele>382.9</ele>
        <time>2017-09-28T17:11:48Z</time>
      </trkpt>
      <trkpt lat="47.51798" lon="6.77483">
        <ele>382.9</ele>
        <time>2017-09-28T17:11:49Z</time>
      </trkpt>
      <trkpt lat="47.51796" lon="6.77478">
        <ele>383</ele>
        <time>2017-09-28T17:11:52Z</time>
      </trkpt>
      <trkpt lat="47.51795" lon="6.77476">
        <ele>383</ele>
        <time>2017-09-28T17:11:53Z</time>
      </trkpt>
      <trkpt lat="47.51795" lon="6.7747">
        <ele>383.1</ele>
        <time>2017-09-28T17:11:59Z</time>
      </trkpt>
      <trkpt lat="47.51795" lon="6.77468">
        <ele>383.1</ele>
        <time>2017-09-28T17:12:00Z</time>
      </trkpt>
      <trkpt lat="47.51796" lon="6.77466">
        <ele>383.2</ele>
        <time>2017-09-28T17:12:19Z</time>
      </trkpt>
    </trkseg>
  </trk>
</gpx>